GFSGL_prec_cloud_006.txt.gz
Cloud_Cover
66 89 92 73 20 5 5 1 4 5 78 95 96 71 100 100 100 100 100 100 100 100 100 100 100 100 100 100 100 100 37 5 2 1 0 0 61 88 54 100 99 25 5
53 39 95 100 95 25 6 96 100 100 100 38 97 100 100 100 100 100 100 100 100 100 100 100 100 100 100 100 100 100 11 5 5 5 5 5 5 99 100 100 100 95 58
80 97 100 100 100 100 100 100 88 81 57 91 100 100 100 100 100 100 100 100 100 100 100 100 100 100 100 100 98 71 69 7 5 5 5 5 5 10 100 100 100 100 39
100 100 100 100 100 100 94 33 94 100 98 100 100 100 100 100 100 100 100 100 100 100 100 100 100 87 53 20 14 6 33 54 21 5 5 5 5 5 16 100 100 100 100
100 100 100 100 100 100 100 99 79 90 100 100 100 100 100 100 100 100 100 100 100 91 76 79 86 45 34 10 5 11 59 87 90 100 100 100 100 96 5 16 86 100 100
92 100 100 100 100 100 85 83 100 100 100 100 100 100 100 100 100 100 100 100 100 100 100 100 89 14 5 5 6 39 86 100 100 100 99 98 86 91 8 5 5 11 100
100 84 85 84 86 100 87 88 52 100 100 100 100 100 100 100 100 100 100 100 100 100 56 53 5 5 13 15 58 97 100 82 96 99 100 95 93 66 48 92 7 5 5
30 42 14 46 98 100 99 85 94 90 74 100 100 100 100 100 100 99 100 98 93 70 77 5 20 12 74 100 100 100 93 81 76 69 55 44 95 64 77 50 49 76 27
60 5 5 14 6 86 97 81 100 100 100 100 99 83 64 85 31 49 58 96 92 37 6 68 88 99 48 100 100 100 100 100 94 67 90 96 84 94 100 96 100 100 100
94 5 52 5 5 5 5 75 100 100 100 99 100 99 56 12 5 11 41 85 88 84 15 57 52 96 100 100 100 100 100 100 99 92 100 100 99 93 100 100 99 100 100
84 92 93 24 5 5 7 45 76 60 36 16 9 5 5 5 5 5 49 100 99 100 96 94 100 100 98 100 100 92 91 92 96 100 100 100 100 100 69 92 98 100 100
68 62 68 61 5 5 15 21 5 5 5 5 44 7 5 5 5 5 64 96 99 100 100 100 98 96 100 99 92 97 100 100 99 88 95 100 98 94 99 95 100 100 91
6 58 80 16 5 5 4 4 5 5 40 37 68 44 6 65 5 5 5 90 99 100 100 100 100 100 100 82 95 100 98 98 98 89 85 100 96 100 100 100 100 100 100
5 5 5 5 8 5 5 7 11 16 64 80 47 80 100 69 8 17 100 86 100 100 100 100 100 100 82 86 84 86 90 95 100 100 100 95 100 100 100 100 100 100 100
5 5 5 5 5 5 16 82 69 33 63 97 19 92 96 94 80 100 100 100 100 100 100 100 100 100 100 100 100 85 100 100 100 100 100 100 100 100 100 100 100 100 100
49 5 5 6 42 14 5 6 46 11 21 5 46 78 98 98 100 100 100 100 100 100 100 100 100 100 80 99 100 99 92 99 100 100 97 100 91 80 82 90 82 100 100
76 10 56 34 75 58 54 24 75 46 98 19 33 97 100 100 100 100 100 100 100 100 100 100 100 100 100 100 100 100 100 99 100 100 100 100 100 93 90 71 95 95 100
59 29 97 67 67 71 77 77 76 89 99 100 100 97 55 100 100 100 100 100 100 100 100 100 100 100 100 100 99 99 98 86 87 100 100 100 96 100 92 77 88 88 99
92 94 22 69 73 73 76 75 69 89 74 100 100 91 66 92 100 100 100 100 100 100 100 100 100 100 100 100 100 97 97 100 99 100 100 100 95 100 100 100 95 91 69
90 23 6 58 73 81 71 75 74 93 78 100 100 100 100 100 100 100 100 100 100 100 100 100 100 100 100 100 100 100 93 92 99 88 100 100 90 90 93 91 89 88 93
74 60 70 96 73 91 76 81 82 94 95 100 100 100 100 100 100 100 100 100 100 100 100 100 100 100 100 100 100 100 100 98 100 100 100 100 98 97 87 84 72 58 70
100 97 79 81 82 84 80 78 96 94 97 100 100 100 100 100 100 100 100 100 100 100 100 100 100 100 100 100 100 100 100 100 100 94 95 81 88 90 59 69 73 74 53
100 100 98 98 92 89 78 77 99 100 84 92 100 100 100 100 100 100 100 100 100 100 100 100 100 100 100 100 100 100 100 100 100 93 92 75 69 98 99 96 85 65 58
100 100 99 93 100 99 94 100 100 95 94 95 100 100 100 100 100 100 100 100 100 100 100 100 100 100 100 100 100 100 100 100 98 72 51 40 42 46 50 79 94 99 95
100 100 100 100 100 100 100 99 100 99 100 100 82 100 100 100 100 100 100 100 100 100 100 100 100 100 100 100 100 100 100 100 100 100 34 21 12 8 7 25 38 61 74
100 100 100 100 100 100 94 93 96 91 100 96 98 93 100 100 100 100 100 100 100 100 100 100 100 100 100 100 100 100 100 100 100 100 89 58 57 58 39 17 71 27 11

GFSGL_prec_cloud_009.txt.gz
Cloud_Cover
100 100 100 100 57 70 36 70 99 76 88 81 65 76 95 100 100 100 100 100 100 100 100 100 100 100 100 100 100 100 92 35 15 6 100 86 6 5 3 1 5 1 0
100 100 90 86 79 100 88 22 31 97 88 98 100 100 100 100 100 100 100 100 100 100 100 100 100 100 100 99 100 73 67 56 6 6 30 8 45 6 5 7 5 5 5
100 100 100 99 96 50 54 95 51 98 100 100 99 100 100 100 100 100 100 100 100 100 100 100 100 100 100 100 100 100 100 100 52 23 5 5 5 5 5 5 5 5 6
100 100 97 84 48 95 100 98 99 100 97 96 95 100 100 100 100 100 100 100 100 100 100 100 100 100 100 100 100 100 99 59 8 18 14 11 16 22 46 38 20 25 31
100 93 60 48 100 96 97 100 100 100 100 100 93 100 100 84 100 100 100 100 100 100 100 100 100 100 100 100 49 29 82 100 100 100 100 100 99 100 100 94 100 100 91
100 100 99 73 22 15 5 5 8 98 100 100 100 100 100 100 100 100 100 87 100 100 100 100 98 59 5 54 78 92 90 99 100 100 100 100 98 100 100 100 100 100 94
22 16 12 13 5 5 5 5 5 5 5 5 5 51 97 96 89 94 54 18 19 46 82 100 100 100 94 95 98 100 100 100 100 100 100 99 100 100 100 100 100 100 100
5 5 72 83 48 5 5 5 5 5 5 5 6 23 50 50 32 41 67 100 100 100 100 100 100 100 97 100 100 100 100 100 100 100 100 100 100 100 100 100 100 100 100
82 100 100 78 70 5 5 5 5 5 5 31 30 6 5 5 5 5 28 96 100 97 97 98 100 99 100 100 100 99 100 100 100 35 62 78 70 41 92 100 100 100 99
100 100 100 99 23 5 5 5 5 5 5 6 5 5 5 5 5 7 95 100 100 100 100 100 99 95 88 100 100 100 100 100 100 100 100 100 98 99 100 100 100 100 100
59 67 96 54 63 5 5 5 5 4 5 5 5 5 25 7 10 69 98 100 100 100 100 100 100 100 100 94 99 100 100 100 100 100 100 100 100 100 100 100 100 100 100
5 52 32 10 5 5 5 3 5 5 9 66 78 97 100 98 99 62 79 100 99 100 100 100 100 100 99 97 90 100 100 99 100 100 100 100 100 100 100 100 100 98 100
5 38 5 5 5 5 5 5 70 85 99 97 100 100 100 100 100 100 93 100 99 100 100 100 100 98 100 85 100 100 99 100 100 100 100 100 100 100 100 100 100 100 100
72 13 5 5 5 5 50 69 100 100 100 100 100 100 100 100 100 100 100 100 100 100 100 100 100 100 100 99 100 100 100 100 100 100 100 100 100 100 100 100 100 100 100
72 5 5 52 5 55 35 5 93 98 95 100 100 100 100 100 100 100 100 100 100 100 100 100 100 100 100 100 100 100 100 100 100 100 100 100 100 100 100 98 100 100 100
19 5 5 5 40 61 7 60 23 9 9 5 45 88 100 100 100 100 100 100 100 100 100 100 100 100 100 100 100 100 100 100 100 100 100 100 100 100 100 100 100 100 100
5 5 7 72 6 5 37 91 100 54 69 6 48 97 100 100 100 100 100 100 100 100 100 100 100 100 100 100 100 100 100 100 100 100 100 100 100 100 100 100 100 100 100
91 90 77 9 5 9 64 33 74 87 95 100 95 96 100 100 100 100 100 100 100 100 100 100 100 100 100 100 100 100 100 100 100 100 100 100 100 100 100 100 100 100 100
100 66 18 10 29 23 36 20 84 96 100 100 100 97 96 100 100 100 100 100 100 100 100 100 100 100 100 100 100 100 100 100 100 100 100 100 100 100 100 100 100 90 92
96 96 27 85 38 67 76 83 100 98 100 100 100 100 100 100 100 100 100 100 100 100 100 100 100 100 100 100 100 100 100 100 100 100 100 100 100 100 100 100 99 98 100
100 100 89 15 11 86 85 96 93 99 100 100 100 100 100 100 100 100 100 100 100 100 100 100 100 100 100 100 100 100 100 100 100 100 100 100 100 100 100 100 100 100 100
100 100 99 74 63 87 87 80 76 92 100 100 100 100 100 100 100 100 100 100 100 100 100 100 100 100 100 100 100 100 100 100 100 100 100 100 100 100 100 100 100 100 100
100 100 99 100 76 62 91 75 74 79 93 100 100 100 100 100 100 100 100 100 100 100 100 100 100 100 100 100 100 100 100 100 100 100 99 100 100 100 100 100 100 100 100
100 100 99 98 96 95 100 99 92 37 44 100 100 100 100 100 100 100 100 100 100 100 100 100 100 100 100 100 100 100 100 100 100 100 86 61 78 89 100 100 100 100 100
100 100 100 93 94 99 100 99 100 82 79 100 100 100 100 100 100 100 100 100 100 100 100 100 100 100 100 100 100 100 100 100 100 100 100 86 48 45 64 76 99 100 92
100 99 98 96 94 97 100 100 100 100 96 100 100 100 100 100 100 100 100 100 100 100 100 100 100 100 100 100 100 100 100 100 100 97 84 57 56 50 55 57 42 92 87

GFSGL_prec_cloud_012.txt.gz
Cloud_Cover
70 100 100 100 100 100 100 20 70 96 77 96 100 100 100 100 100 100 100 100 100 100 100 100 100 100 100 91 74 100 100 100 100 100 100 100 100 66 30 5 16 5 5
100 100 100 100 100 100 64 86 99 100 100 100 100 99 99 100 100 100 100 100 100 100 100 100 100 100 100 100 100 100 87 52 100 100 100 100 100 100 75 5 5 5 5
100 100 100 100 54 90 88 99 100 95 96 100 100 100 100 100 100 100 100 100 100 100 100 100 100 100 100 100 100 100 70 9 5 9 45 33 12 5 35 5 5 5 5
100 100 64 58 95 74 82 94 97 81 90 97 100 100 96 85 98 100 100 100 100 100 100 100 100 100 100 100 100 100 91 59 21 13 6 5 14 14 5 10 9 56 41
95 94 60 16 59 93 69 37 14 7 5 5 5 5 5 20 29 48 100 100 100 100 99 100 100 100 100 100 100 100 100 100 92 90 99 72 88 97 99 99 99 99 96
5 66 53 50 90 71 5 5 5 5 5 5 5 5 28 11 40 12 27 27 80 99 85 64 61 13 20 5 21 91 90 86 100 100 100 100 97 100 100 100 100 100 94
40 77 94 100 78 77 88 99 5 5 5 5 5 8 5 18 6 6 14 5 5 12 65 74 74 7 43 100 100 100 98 96 96 95 100 100 100 100 100 100 100 100 100
77 94 100 92 95 99 75 14 5 5 5 5 36 60 83 83 5 5 5 6 90 99 100 100 98 89 99 100 100 100 100 100 100 96 100 96 100 100 100 100 100 100 100
100 100 100 64 10 5 5 5 5 5 5 5 90 100 100 99 98 51 62 99 100 100 97 100 100 99 100 100 100 100 100 100 100 100 100 92 86 80 96 100 100 100 100
66 14 5 5 5 6 34 5 5 6 72 94 93 92 98 100 100 100 96 100 100 100 100 100 100 91 98 100 100 100 100 100 100 100 100 100 100 80 96 94 97 100 100
100 28 34 39 10 5 5 5 83 98 100 100 100 98 99 100 100 100 100 100 100 100 100 100 100 100 96 100 100 100 100 92 95 100 100 100 100 100 100 100 100 100 100
100 100 85 97 5 5 42 55 100 100 100 100 100 100 100 97 100 100 99 100 100 100 100 100 100 100 100 100 92 96 95 99 100 100 100 100 100 100 100 100 100 100 100
100 100 100 100 35 73 100 92 100 100 100 100 100 100 100 100 100 100 100 100 100 100 100 100 100 100 100 100 100 100 100 100 100 100 100 100 100 100 100 100 100 100 100
100 100 100 100 72 78 99 100 100 100 100 100 100 100 100 100 100 100 100 100 100 100 100 100 100 100 100 100 100 100 100 100 100 100 100 100 100 99 100 100 100 100 100
100 100 100 99 90 88 96 94 91 100 83 95 99 100 100 100 100 100 100 100 100 100 100 100 100 100 100 100 100 100 100 100 100 100 100 100 100 100 100 100 100 100 100
100 100 100 60 94 100 97 95 98 67 10 5 13 95 100 100 100 100 100 100 100 100 100 100 100 100 100 100 100 100 100 100 100 100 100 100 100 100 100 100 99 100 100
100 100 87 99 100 100 100 100 100 100 96 70 20 95 100 100 100 100 100 100 100 100 100 100 100 100 100 100 100 100 100 100 100 100 100 100 100 100 100 100 100 100 100
100 100 91 100 100 100 100 100 100 100 100 100 100 54 100 100 100 100 100 100 100 100 100 100 100 100 100 100 100 100 100 100 100 100 100 100 100 100 100 100 100 100 100
100 100 97 100 100 96 100 100 100 100 100 100 100 94 100 100 100 100 100 100 100 100 100 100 100 100 100 100 100 100 100 100 100 100 100 100 100 100 100 100 100 88 98
100 94 65 100 100 100 100 100 100 100 100 100 100 100 100 100 100 100 100 100 100 100 100 100 100 100 100 100 100 100 100 100 100 100 100 100 100 100 100 100 100 100 100
100 100 99 100 100 100 100 100 100 100 100 100 100 98 85 100 100 100 100 100 100 100 100 100 100 100 100 100 100 100 100 100 100 100 100 100 100 100 100 100 100 100 100
100 98 100 100 100 100 98 100 100 100 100 100 100 100 82 100 100 100 100 100 100 100 100 100 100 100 100 100 100 100 100 100 100 100 100 100 100 100 100 100 100 100 100
100 100 100 100 100 100 100 100 100 100 100 100 100 100 100 100 100 100 100 100 100 100 100 100 100 100 100 100 100 100 100 100 100 100 100 100 100 100 100 100 100 100 100
100 100 100 100 100 100 100 100 100 100 100 100 100 100 100 100 100 100 100 100 100 100 100 100 100 100 100 100 100 100 100 100 100 100 100 100 96 99 100 100 100 100 100
100 100 100 100 100 100 100 100 100 100 100 100 100 100 100 100 100 100 100 100 100 100 100 100 100 100 100 100 100 100 100 100 100 100 100 95 84 70 81 96 100 100 100
100 100 100 100 100 100 100 100 100 100 100 100 100 100 100 100 99 100 100 100 100 100 100 100 100 100 100 100 100 100 100 100 100 100 100 100 97 30 37 6 56 88 96

GFSGL_prec_cloud_015.txt.gz
Cloud_Cover
96 57 73 86 100 100 100 49 94 76 70 73 90 95 99 78 100 92 100 100 100 100 100 99 94 100 100 100 100 100 100 99 83 100 100 100 100 100 100 96 33 83 100
96 100 100 100 100 88 100 100 100 100 100 96 73 55 92 92 98 100 100 100 100 100 100 100 100 100 100 100 100 100 96 100 100 100 100 100 100 100 100 98 72 100 100
100 100 100 100 100 96 100 100 96 100 99 100 90 61 83 68 80 81 93 78 80 98 100 100 99 100 100 100 100 100 100 100 67 32 7 93 100 97 57 55 99 93 27
86 98 56 33 61 94 100 100 100 99 96 33 5 5 5 5 5 7 27 18 18 41 76 98 96 90 86 97 99 91 98 100 100 12 5 9 18 45 35 7 5 20 22
98 44 5 68 95 100 100 99 97 73 5 5 5 5 5 5 73 5 4 5 5 6 19 35 94 100 78 16 13 91 100 67 92 100 98 99 99 95 100 100 100 96 86
5 28 79 98 99 100 100 97 93 5 5 5 5 24 96 100 98 5 3 5 5 5 42 67 90 100 98 100 80 5 25 96 98 99 99 78 76 24 5 47 92 93 95
98 100 89 76 100 100 100 100 100 24 7 62 95 100 100 100 76 5 5 5 5 33 98 100 100 100 100 100 100 100 99 83 77 80 99 100 98 100 100 100 98 100 100
100 100 86 97 100 100 100 100 100 100 100 100 100 98 92 100 96 7 5 37 94 100 100 100 100 100 100 96 99 100 100 100 99 91 98 96 99 100 100 100 100 100 100
100 70 82 97 99 100 100 100 100 100 100 100 92 90 97 99 96 90 27 100 100 100 100 100 100 98 100 94 100 100 100 100 100 96 58 38 10 14 56 98 99 100 100
100 100 40 96 100 100 100 100 100 100 100 30 23 97 100 97 100 100 91 100 100 100 100 100 94 98 100 100 100 100 100 100 100 98 99 100 96 66 68 74 73 99 100
100 98 50 90 100 100 100 100 100 100 81 64 15 82 98 100 95 100 96 100 100 100 100 100 100 100 100 100 97 100 99 98 100 100 100 99 100 100 100 100 91 98 93
66 27 66 100 100 100 100 100 100 91 98 65 100 85 100 89 100 100 96 48 100 100 100 100 100 98 98 100 100 100 100 100 100 100 100 100 100 100 100 99 98 100 100
62 85 100 100 100 100 100 100 99 100 100 100 100 100 100 99 100 100 81 100 100 100 100 100 100 100 100 100 100 100 100 100 100 100 100 100 100 98 97 94 99 100 100
100 100 100 100 100 100 100 100 100 98 97 100 100 100 100 100 100 100 100 100 100 100 100 100 100 100 100 100 100 100 100 100 100 100 100 100 100 92 99 100 100 100 100
100 99 100 100 100 99 68 93 75 98 53 47 59 95 100 100 100 100 100 100 100 100 100 100 100 100 100 100 100 100 100 100 100 100 100 100 100 100 100 100 98 100 100
84 90 99 93 98 94 93 98 95 6 5 5 5 12 86 98 100 100 100 100 100 100 100 100 100 100 100 100 100 100 100 100 100 100 100 100 100 100 100 100 99 96 100
85 91 76 100 100 100 100 100 100 100 67 66 78 5 66 86 100 100 100 100 100 100 100 100 100 100 100 100 100 100 100 100 100 100 100 100 100 100 100 100 100 99 98
100 100 99 100 100 100 100 100 100 100 99 100 100 66 48 91 100 100 100 100 100 100 100 100 100 100 100 100 100 100 100 100 100 100 100 100 100 100 100 100 99 98 99
96 100 100 100 100 100 100 100 100 100 100 100 100 100 73 100 99 99 100 100 100 100 100 100 100 100 100 100 100 100 100 100 100 100 100 100 100 100 100 100 100 100 97
85 100 99 100 100 100 100 100 100 100 100 100 100 100 92 100 100 100 100 100 100 100 100 100 100 100 100 100 100 100 100 100 100 100 100 100 100 100 100 100 100 100 100
100 100 100 100 100 100 100 100 100 100 100 100 100 88 5 72 100 100 100 100 100 100 100 100 100 100 100 100 100 100 100 100 100 100 100 100 100 100 100 100 100 100 100
99 100 100 100 100 100 100 100 100 100 100 100 100 100 66 100 100 100 100 100 100 100 100 100 100 100 100 100 100 100 100 100 100 100 100 100 100 100 100 100 100 100 100
100 100 100 100 100 100 100 100 100 100 100 100 100 100 100 100 100 100 100 100 100 100 100 100 100 100 100 100 100 100 100 100 100 100 100 100 100 100 100 100 100 100 100
100 100 100 100 100 100 100 100 100 100 100 100 100 100 100 100 100 100 100 100 100 100 100 100 100 100 100 100 100 100 100 100 100 100 100 100 100 100 100 100 100 100 100
100 100 100 100 100 100 100 100 100 100 100 100 100 100 100 100 100 100 100 100 100 100 100 100 100 100 100 100 100 100 100 100 100 100 100 100 100 100 99 96 72 100 90
97 100 100 100 100 100 100 100 100 100 100 100 100 100 100 100 100 100 100 100 100 100 99 100 100 100 100 100 100 100 100 100 100 100 100 100 100 92 81 86 59 93 82

GFSGL_prec_cloud_018.txt.gz
Cloud_Cover
98 100 92 39 10 9 49 6 5 2 4 5 67 5 14 37 89 98 82 94 82 61 95 100 100 100 100 100 84 98 96 100 87 100 100 100 100 55 100 100 100 100 100
88 13 5 5 5 84 47 5 1 5 5 5 36 5 39 19 38 26 8 6 6 16 10 88 100 100 100 100 100 94 96 97 90 25 100 100 100 100 98 100 100 100 98
5 5 5 5 88 5 5 2 5 5 5 22 8 5 5 5 3 5 11 90 5 4 1 13 78 34 43 86 98 83 95 85 93 62 5 86 100 100 100 14 85 99 31
5 5 2 4 1 5 1 0 12 61 20 5 5 5 5 21 5 5 5 5 5 0 0 0 0 5 5 16 81 85 15 29 5 5 5 5 3 38 66 74 5 28 76
32 8 62 54 99 37 5 5 5 64 8 5 5 5 5 20 80 31 5 1 0 0 0 0 1 5 6 83 100 87 10 5 60 20 97 50 5 13 65 72 68 71 45
100 92 100 66 5 5 2 2 5 98 5 5 99 96 17 66 62 1 5 5 5 5 3 2 5 5 42 100 97 85 28 33 54 62 38 100 98 97 84 9 5 5 7
18 36 100 73 36 47 17 5 8 54 27 86 100 94 7 20 5 5 5 53 42 5 5 25 16 42 84 100 85 71 18 100 100 68 20 6 81 99 93 91 66 5 6
72 97 95 97 98 72 100 6 97 71 95 100 100 78 5 5 5 14 5 5 5 5 39 7 11 5 32 59 81 60 86 61 62 78 88 64 98 70 98 72 94 98 64
99 48 35 4 100 99 100 60 100 100 99 100 49 34 5 5 5 85 89 57 5 5 5 75 97 97 68 100 98 89 68 37 88 100 100 98 100 100 91 80 81 97 17
91 6 10 98 100 100 100 100 100 100 100 24 5 5 5 5 79 100 91 100 98 69 99 100 92 100 100 83 100 100 99 69 56 21 99 73 74 15 65 92 100 100 97
0 4 5 8 75 18 93 100 100 100 92 5 5 5 5 25 96 100 100 98 100 80 55 42 86 100 100 100 99 87 86 98 99 100 100 100 96 100 100 100 95 98 99
3 4 5 8 100 69 68 100 100 64 13 5 5 5 52 93 86 99 100 100 79 90 86 95 100 100 100 100 100 100 100 100 100 100 100 100 100 99 100 100 100 100 91
5 5 12 5 29 71 100 100 6 5 5 5 5 5 5 5 5 64 7 58 100 100 100 100 100 100 100 100 100 100 100 100 100 100 100 100 100 100 90 94 100 100 100
5 38 78 42 76 79 5 5 5 5 5 5 5 5 5 5 30 6 19 100 100 100 100 100 100 100 100 100 100 100 100 100 100 100 100 100 99 92 87 85 100 100 96
5 5 5 5 5 5 5 20 41 5 5 5 5 5 5 5 52 100 100 100 100 100 100 100 100 100 100 100 100 100 100 100 100 100 100 99 94 100 100 99 100 95 100
34 5 5 5 5 20 35 11 16 5 8 5 5 5 5 32 100 100 100 100 100 100 100 100 100 100 100 100 100 100 100 100 100 100 96 94 99 100 100 96 100 98 100
100 74 56 27 17 99 100 100 98 88 80 25 68 23 69 71 100 100 100 100 100 100 100 100 100 100 100 100 100 100 100 100 100 90 100 90 100 99 98 100 67 70 97
5 10 86 100 96 100 100 100 100 100 97 95 98 80 93 82 22 96 100 95 99 100 100 100 100 100 100 100 100 100 100 100 100 100 100 97 99 94 92 94 88 90 96
95 29 97 100 100 100 100 100 100 100 98 100 100 94 80 5 32 97 100 99 100 100 100 100 100 100 100 100 100 100 100 100 100 100 100 100 98 93 93 99 100 97 99
44 79 99 100 100 100 100 100 100 100 100 100 100 89 28 5 16 71 95 96 81 100 100 100 100 100 100 100 100 100 100 100 100 100 100 100 100 100 100 100 100 100 100
98 100 100 100 100 100 100 100 100 100 100 100 99 97 60 5 50 52 100 86 100 28 100 100 100 100 100 100 100 100 100 100 100 100 100 100 100 100 100 100 100 100 99
45 90 94 100 100 100 100 100 100 100 100 100 100 98 62 67 99 9 96 100 100 96 50 100 100 100 100 100 100 100 100 100 100 100 100 100 100 100 100 100 100 100 100
100 100 100 100 98 100 98 100 100 100 100 100 100 100 100 100 100 80 98 98 99 100 70 55 100 100 100 100 100 100 100 100 100 100 100 100 100 100 100 100 100 97 68
88 96 99 99 100 100 100 100 100 100 100 100 100 100 100 100 99 91 68 90 91 84 98 58 75 100 100 100 100 100 100 100 100 100 100 100 100 100 100 99 100 100 91
61 70 100 96 100 100 100 100 100 100 100 100 100 100 100 100 98 93 80 81 64 33 65 38 42 78 100 100 100 100 100 100 100 100 100 100 100 100 100 100 98 85 84
68 59 100 98 100 100 100 100 100 100 100 100 100 100 100 100 100 100 81 6 56 85 5 67 30 66 93 100 100 100 100 100 100 100 100 100 100 100 100 100 83 85 95

GFSGL_prec_cloud_021.txt.gz
Cloud_Cover
14 6 9 5 5 5 5 4 0 0 0 2 2 0 5 45 62 16 5 4 0 3 5 7 4 4 58 95 100 100 100 100 93 17 14 100 77 100 100 100 100 100 99
12 7 5 5 7 4 0 0 0 0 0 0 0 1 4 5 5 5 5 5 5 38 93 70 23 0 3 5 77 100 96 82 23 54 69 96 100 100 100 100 100 100 100
26 93 71 73 64 11 5 4 10 30 2 2 0 0 0 4 5 35 70 83 54 87 94 42 4 0 0 0 6 5 5 5 11 6 21 100 98 100 100 100 59 100 100
15 22 34 63 39 7 95 39 100 79 91 84 20 0 4 5 13 54 20 5 5 0 1 2 0 0 0 2 5 5 19 5 8 25 13 74 69 98 100 100 86 2 72
5 6 5 5 19 51 81 100 92 100 99 100 34 4 15 5 5 5 2 4 4 5 5 5 0 4 72 40 96 53 13 90 83 51 43 26 56 47 12 27 10 5 7
20 14 4 5 100 82 30 100 100 100 100 97 28 58 5 4 5 30 12 5 4 5 1 0 1 5 59 47 100 87 100 100 94 13 20 12 82 62 16 5 5 5 5
13 5 1 5 66 73 47 100 100 100 58 85 72 100 6 54 99 95 8 5 5 5 5 2 5 5 5 6 73 98 91 100 100 98 97 40 44 31 34 33 6 5 5
5 0 0 0 0 1 5 100 100 100 100 93 84 83 61 92 19 2 15 32 13 60 36 70 10 5 71 59 56 39 5 6 21 25 33 5 50 56 96 87 60 61 86
0 0 0 0 4 21 82 94 100 93 100 64 36 30 81 7 4 5 5 12 63 68 26 49 50 16 20 100 100 76 9 7 81 97 94 100 100 73 100 100 91 100 100
0 2 5 0 5 21 16 13 46 98 97 7 5 5 5 5 5 97 54 93 77 30 88 100 99 82 100 99 100 64 89 24 40 7 5 5 9 17 100 96 86 85 98
5 4 0 5 4 13 93 72 100 96 6 5 5 5 5 5 5 66 87 100 100 98 100 100 100 100 100 100 97 93 82 52 93 77 84 97 96 98 100 100 100 88 100
5 0 0 3 13 75 100 99 48 5 5 5 5 5 5 5 2 16 71 74 98 100 100 100 100 100 100 100 100 100 100 100 100 100 100 100 100 100 100 100 100 100 98
0 3 0 5 5 14 10 21 52 5 5 5 5 5 5 5 5 5 5 30 27 94 100 100 100 100 100 100 100 100 100 100 100 100 100 100 100 100 100 100 96 80 99
2 5 5 5 5 5 36 33 5 5 5 5 5 5 29 5 5 45 43 48 58 99 100 100 100 100 100 100 100 100 100 100 100 100 100 100 100 100 100 91 100 95 86
5 5 5 5 5 5 5 5 6 5 5 5 5 5 60 64 27 100 100 100 100 100 100 100 100 100 100 100 100 100 100 100 100 99 94 100 99 98 100 100 99 92 84
52 5 5 5 5 14 22 6 5 5 5 5 11 26 19 5 73 100 100 100 100 94 99 100 100 100 100 100 100 100 100 100 96 100 100 100 100 98 94 90 80 94 98
6 5 5 5 86 99 94 92 100 30 5 5 40 90 62 14 100 100 97 78 36 77 71 100 100 100 100 100 100 100 100 100 100 100 100 100 98 88 94 91 98 100 100
97 5 63 36 87 100 100 100 100 97 96 51 24 76 17 86 74 54 98 5 15 14 25 91 100 100 100 100 100 100 100 100 100 100 100 100 100 100 88 87 96 100 100
30 51 99 100 100 100 100 100 100 100 100 100 96 86 93 100 7 5 5 31 52 16 40 32 85 100 100 100 100 100 100 100 100 100 100 100 100 100 95 79 69 70 74
7 7 91 100 100 100 100 100 100 100 100 100 100 69 74 69 16 63 60 67 17 10 58 58 56 100 100 100 100 100 100 100 100 100 100 100 100 100 100 99 93 96 66
96 99 75 100 96 100 100 100 100 100 100 100 100 97 86 18 11 76 69 64 64 44 17 11 60 66 100 100 100 100 100 100 100 100 100 100 100 100 100 96 90 94 73
81 98 69 70 84 98 99 100 100 100 100 100 100 100 82 52 87 92 75 68 65 55 57 68 15 56 88 100 100 100 100 100 100 100 100 100 100 100 100 89 96 70 80
5 5 43 100 100 99 98 100 100 100 100 100 100 100 88 77 74 79 86 65 70 58 56 5 8 17 56 100 100 100 100 100 100 100 100 100 100 100 100 100 93 67 67
8 24 44 98 100 100 99 100 98 100 100 100 90 99 94 83 70 62 68 58 67 54 66 5 8 5 29 89 100 100 100 100 100 100 100 100 100 100 100 100 100 96 91
96 97 74 96 93 95 80 94 98 100 100 100 93 100 100 81 71 56 50 49 55 53 22 5 5 5 5 47 99 100 100 100 100 100 100 100 100 100 100 100 100 100 88
100 99 100 30 99 100 100 100 100 99 100 100 99 93 95 85 68 90 80 71 80 26 19 23 5 5 5 31 44 96 100 100 100 100 100 100 100 100 100 100 100 100 95

GFSGL_prec_cloud_024.txt.gz
Cloud_Cover
8 13 5 3 1 0 5 5 5 10 5 10 68 100 78 11 24 0 0 0 3 5 18 70 47 77 76 92 6 4 5 67 95 15 36 100 100 100 100 95 100 100 100
5 4 0 4 4 5 80 6 2 5 5 48 100 100 100 100 100 6 3 5 55 80 76 36 54 8 5 2 0 0 0 51 100 24 5 23 100 100 16 41 100 64 100
5 5 5 5 67 57 10 10 18 100 99 100 100 100 100 100 100 77 0 5 5 5 2 0 0 0 0 0 0 3 0 1 5 48 5 5 21 100 97 68 64 100 100
5 50 99 100 91 100 82 64 83 92 91 100 100 100 100 100 98 0 5 5 5 5 5 0 1 0 5 5 19 50 84 28 5 5 5 5 5 48 100 94 40 30 100
100 100 100 100 100 50 2 59 5 6 46 100 100 100 100 100 96 5 5 5 5 4 4 3 3 1 5 6 100 99 99 64 34 55 67 66 8 4 6 35 6 5 100
54 40 32 27 0 0 0 0 0 46 98 100 100 88 100 100 86 5 5 5 5 5 5 5 5 5 5 5 5 5 96 100 79 98 100 90 10 5 5 5 5 36 5
5 1 0 0 0 0 0 4 100 100 100 100 100 98 95 99 43 5 5 5 73 54 19 5 5 5 5 5 28 36 21 19 98 100 89 5 5 5 35 5 5 7 16
5 0 0 0 0 1 6 80 100 99 59 58 95 80 85 17 4 7 10 5 6 5 5 5 5 48 44 66 75 97 100 100 76 58 66 21 11 5 5 6 47 88 58
0 0 0 0 0 0 23 58 56 8 63 82 100 50 5 5 6 50 58 11 5 5 5 5 89 98 100 100 93 90 94 100 98 81 82 99 91 100 93 100 88 98 58
5 5 5 5 0 5 5 96 99 34 88 99 6 5 5 5 2 28 71 72 36 68 63 92 100 100 100 100 100 100 99 100 42 5 6 5 5 5 5 20 5 5 83
3 4 5 0 0 5 56 78 41 21 13 79 13 5 5 4 4 5 83 100 99 91 67 100 100 100 100 100 100 100 100 100 98 95 85 68 63 48 41 77 76 66 88
5 5 4 0 3 5 5 19 75 98 99 74 17 5 5 5 0 5 49 100 99 96 99 98 100 100 100 100 100 100 100 100 100 100 100 100 100 100 100 100 100 100 100
5 5 5 5 5 5 67 89 100 67 8 5 5 30 6 5 5 5 5 20 14 94 98 100 100 100 100 100 100 100 100 100 100 100 100 100 100 100 100 100 100 100 99
5 5 5 5 5 5 5 5 5 6 15 5 5 5 53 5 5 11 74 37 72 86 23 86 100 100 100 100 100 100 100 100 100 100 100 100 100 100 100 100 98 100 100
82 54 38 5 5 5 30 70 49 7 5 5 5 17 54 66 15 99 100 98 99 82 7 49 83 100 100 100 100 100 100 100 100 100 100 100 100 100 100 100 98 100 100
96 94 66 5 7 18 95 99 64 5 5 5 5 41 20 18 66 100 100 90 77 37 30 78 74 94 100 100 100 100 100 100 100 100 100 99 100 100 91 88 100 100 84
100 100 100 29 63 98 82 100 99 14 5 5 5 5 26 63 92 96 98 25 5 2 69 79 93 94 100 100 100 100 100 100 100 100 100 100 100 100 100 100 100 89 79
100 100 100 99 98 96 100 100 100 100 100 70 5 5 41 67 75 10 5 5 13 8 60 75 99 98 95 100 100 100 100 100 100 98 100 100 98 100 100 100 90 83 99
100 96 100 97 100 100 100 100 100 100 98 99 71 12 5 69 77 16 5 31 44 37 57 65 87 85 60 100 100 100 100 100 100 100 100 100 100 100 100 100 98 80 56
100 97 81 94 100 100 100 100 100 100 100 100 100 75 68 81 73 91 81 100 65 51 69 57 67 76 76 69 100 100 100 100 100 100 100 100 100 100 100 100 100 93 93
100 96 96 100 100 100 100 100 100 100 100 100 98 100 86 33 38 78 77 83 77 69 66 53 57 70 68 62 89 100 100 100 100 100 100 100 100 100 100 100 100 100 100
90 90 66 27 87 95 85 100 100 100 100 100 96 99 88 68 77 87 88 85 64 64 25 21 40 57 61 42 69 91 100 100 100 100 100 100 100 100 100 100 99 100 73
89 9 5 14 49 92 100 100 100 100 98 100 100 98 89 92 78 79 67 8 74 83 73 62 57 53 42 33 57 58 100 100 100 100 100 100 100 100 100 100 100 95 100
100 81 69 87 100 100 100 79 96 98 100 96 99 99 82 74 99 84 81 59 72 93 99 59 45 5 6 12 47 47 71 100 100 100 100 100 100 100 100 100 100 100 99
100 99 100 99 99 99 100 88 85 98 100 100 100 98 87 87 98 98 94 69 61 86 73 76 40 26 5 5 14 5 5 70 100 100 100 100 100 100 100 100 100 100 100
100 100 100 100 99 98 100 100 96 82 96 100 100 98 100 97 83 83 69 69 55 50 56 54 24 5 5 26 7 5 5 5 44 100 100 100 100 100 100 100 100 100 100

GFSGL_prec_cloud_027.txt.gz
Cloud_Cover
5 5 5 5 5 3 5 5 5 5 46 71 48 99 100 98 100 97 100 100 100 100 100 5 5 14 5 5 5 5 5 5 5 5 5 4 90 100 20 5 0 5 5
5 4 3 5 5 5 5 5 87 68 88 100 100 85 100 100 100 100 100 100 100 92 6 5 5 5 0 5 5 5 5 4 5 5 5 5 5 6 6 5 5 5 19
5 5 5 1 1 11 23 5 0 0 0 0 3 68 89 100 100 91 72 98 74 15 32 8 5 3 5 5 5 5 11 74 95 97 6 5 5 5 5 4 0 5 4
5 5 1 5 5 7 0 0 0 0 0 7 76 60 100 94 100 100 100 98 38 88 54 5 5 5 5 5 5 4 73 100 100 100 100 94 72 17 5 3 2 0 5
5 1 0 5 5 0 0 0 0 3 46 96 100 100 100 99 100 100 79 14 5 5 5 5 5 16 91 70 55 23 6 75 100 100 100 100 77 42 5 5 5 5 4
5 5 5 5 0 0 0 0 5 70 94 100 100 87 5 38 95 50 5 5 5 79 93 56 5 5 5 11 6 78 97 95 100 100 100 100 63 98 41 5 5 5 5
14 7 5 5 2 0 0 18 98 88 17 68 11 5 35 86 5 9 8 5 8 22 7 15 5 5 5 5 89 100 87 94 100 100 100 98 98 5 11 5 5 5 5
8 5 5 5 0 5 6 32 100 100 37 5 44 90 68 6 6 5 18 5 5 5 5 5 18 55 47 99 100 100 100 94 100 100 100 97 86 30 31 5 16 61 91
25 5 5 0 5 5 5 5 72 53 46 34 74 84 75 5 3 9 52 8 5 5 5 5 99 99 96 100 100 100 100 100 96 45 73 75 78 92 87 100 100 100 97
4 0 0 0 5 4 5 5 17 70 80 88 70 83 79 5 2 5 63 40 27 84 5 5 65 99 100 100 100 100 100 100 99 100 100 87 11 5 5 5 55 93 95
0 0 1 22 85 0 3 5 5 5 14 80 100 53 5 4 4 5 64 33 82 53 82 73 74 99 100 100 100 100 100 100 100 100 100 96 91 85 56 20 19 29 62
5 5 45 100 12 5 5 5 22 93 100 96 13 5 5 5 5 5 76 98 85 99 100 82 99 100 100 100 100 100 100 100 100 100 100 100 100 100 100 98 96 100 100
5 64 100 46 5 5 5 8 80 90 64 10 29 57 5 5 5 5 7 98 11 42 5 57 100 100 100 100 100 100 100 100 100 100 100 100 100 100 100 100 100 100 100
83 100 100 87 27 5 5 11 68 88 51 5 27 49 56 5 5 6 95 64 8 38 5 5 5 61 100 100 100 100 100 100 100 100 100 100 100 100 100 100 100 100 98
100 100 97 99 93 5 83 100 100 98 70 24 10 14 70 72 18 80 100 96 46 20 6 49 35 55 80 100 100 100 100 100 100 100 100 100 100 100 100 100 100 100 100
100 100 100 100 100 54 97 100 100 100 91 100 64 30 49 18 16 100 93 60 39 4 25 89 95 86 90 100 100 100 100 100 100 100 100 100 100 100 100 100 100 100 100
100 100 100 100 100 100 95 100 100 80 82 73 64 58 6 16 52 46 15 7 5 5 40 74 100 100 94 100 100 100 100 100 100 100 100 100 100 100 100 100 100 89 100
100 100 100 100 100 100 100 100 100 100 99 60 61 14 10 8 68 9 6 5 5 15 64 75 100 100 93 93 100 100 100 100 100 100 100 100 100 99 90 87 100 100 100
100 100 100 100 100 100 100 99 99 100 100 100 100 51 64 53 32 16 13 29 50 47 59 62 79 100 80 78 98 84 100 100 100 100 100 100 100 97 85 91 83 75 88
100 100 100 100 95 100 100 100 100 100 100 100 100 95 50 84 9 29 99 100 95 59 68 58 18 72 73 73 98 96 72 100 100 100 100 100 100 100 100 100 100 100 99
100 100 100 99 100 58 94 100 100 100 100 100 94 94 78 89 55 85 88 92 96 70 63 30 57 63 68 66 70 65 68 66 100 100 100 100 100 100 100 100 100 100 100
100 100 99 49 9 41 37 83 95 86 82 100 86 90 96 100 86 74 64 71 65 39 57 43 34 26 60 32 57 71 58 52 58 100 100 100 100 100 100 100 100 100 100
100 100 100 100 45 69 80 63 80 81 79 100 100 94 92 100 91 84 72 62 72 61 64 71 75 52 50 56 67 57 60 29 61 86 100 100 100 100 100 100 100 100 100
100 100 100 100 100 81 75 76 62 80 85 94 100 96 98 99 97 99 93 68 62 66 96 94 60 10 5 26 74 69 64 55 60 59 82 100 100 100 100 100 100 100 100
100 100 100 100 94 92 85 67 83 83 96 100 100 100 100 100 100 96 100 99 60 65 78 98 86 11 5 5 19 17 28 5 5 5 62 92 100 100 100 100 100 100 100
100 100 100 100 99 99 100 100 97 96 100 100 100 100 100 100 100 100 100 100 100 89 80 83 70 18 5 8 12 28 5 5 5 5 57 53 76 100 100 100 100 100 100

GFSGL_prec_cloud_030.txt.gz
Cloud_Cover
99 5 5 5 5 5 5 4 5 5 2 0 0 1 5 2 100 98 74 94 97 93 61 42 79 5 5 5 5 5 5 5 35 9 5 0 1 5 5 5 21 5 3
5 5 5 5 5 5 5 2 0 0 0 0 1 40 88 16 82 100 100 100 100 100 88 6 5 5 5 4 3 5 5 5 20 97 9 5 5 2 97 25 0 0 1
99 5 5 5 5 1 0 2 5 5 1 0 15 100 100 99 72 100 100 98 61 62 5 5 5 5 5 5 5 5 5 5 39 93 71 11 5 5 6 13 5 0 0
5 5 5 5 4 5 5 5 5 0 2 5 43 90 82 96 90 78 37 19 5 5 5 5 5 43 72 57 43 93 79 73 41 39 49 90 75 12 98 100 64 5 0
5 5 7 14 18 31 7 5 5 5 81 70 70 78 76 12 5 5 13 12 5 5 10 34 16 38 98 100 96 98 100 96 99 100 100 100 100 100 100 100 93 5 2
35 58 87 99 100 76 77 5 5 8 77 35 24 5 5 5 7 5 10 5 5 5 10 26 5 5 5 91 74 100 100 100 100 100 100 100 100 100 100 100 100 98 5
83 98 100 100 100 43 5 24 5 57 45 25 5 5 5 44 5 5 7 5 5 5 5 5 11 48 27 38 17 77 100 100 100 99 100 97 99 100 100 86 85 89 5
100 100 100 100 80 5 4 25 20 37 93 46 10 5 51 6 5 5 5 5 5 5 5 8 51 59 37 100 94 100 100 100 100 100 100 71 58 100 100 100 88 94 98
100 100 97 79 5 2 5 0 5 29 86 84 10 53 5 60 4 5 5 5 5 5 5 5 98 100 79 100 100 100 100 100 100 100 100 98 88 100 100 98 95 100 96
100 93 21 5 5 5 0 22 5 33 5 14 93 48 93 5 5 5 52 60 34 44 10 16 31 100 100 100 100 100 100 100 100 100 100 99 85 99 91 43 6 99 100
90 10 5 5 5 5 24 7 5 5 6 52 87 97 9 5 5 5 94 100 74 84 74 46 51 98 100 100 100 100 100 100 100 100 100 100 100 100 100 100 65 16 36
19 5 5 79 77 8 17 5 7 70 99 100 100 18 5 5 5 5 89 100 93 78 8 5 77 100 100 100 100 100 100 100 100 100 100 100 100 100 100 100 100 100 100
48 5 5 100 94 60 50 11 5 77 100 97 66 72 42 5 5 5 6 90 11 5 5 10 40 8 7 13 100 100 100 100 100 100 100 100 100 100 100 100 100 100 100
59 5 29 83 99 98 58 5 22 98 99 73 30 53 57 5 5 5 85 70 5 5 5 5 8 5 5 6 68 99 100 100 100 100 100 100 100 100 100 100 100 100 100
5 6 83 100 97 100 67 30 99 100 84 75 90 76 81 90 20 17 99 81 5 5 28 37 16 14 5 75 82 90 100 100 100 100 100 100 100 100 100 100 100 100 100
56 27 100 100 98 100 65 50 99 100 81 100 100 96 70 16 5 65 90 20 5 2 5 79 100 100 88 96 100 89 100 100 100 100 100 100 100 100 100 83 100 100 100
49 99 100 100 100 100 99 97 66 100 100 100 100 82 60 72 53 99 7 5 5 5 13 58 100 100 99 64 98 90 94 100 100 100 100 100 100 100 94 98 97 98 100
100 100 100 100 100 100 100 100 100 99 99 96 95 97 56 91 83 82 19 5 5 5 33 62 95 100 93 60 93 97 73 96 100 100 100 100 100 100 95 97 90 98 71
100 99 100 100 100 100 98 100 100 100 94 94 95 90 75 87 90 87 58 36 29 41 6 14 57 74 74 27 89 100 95 49 100 100 100 100 100 97 100 98 87 64 62
100 99 100 99 100 100 85 98 100 100 97 100 100 91 78 81 94 83 95 100 97 67 55 9 5 9 66 60 91 100 90 68 46 100 100 100 100 100 100 100 100 98 100
100 100 100 100 100 78 98 98 95 98 97 94 99 99 99 74 87 91 64 81 100 83 65 30 51 46 46 66 23 82 59 94 5 19 99 100 100 100 100 100 100 100 100
100 100 100 100 100 94 76 86 58 70 80 90 72 73 97 100 100 99 85 69 58 73 68 51 36 12 5 9 8 98 89 90 49 55 26 95 100 100 100 100 100 100 100
100 100 100 98 100 100 84 95 70 72 65 69 79 99 100 100 94 100 100 99 98 71 70 68 74 59 41 27 61 14 64 5 6 95 92 94 95 100 100 100 100 100 100
100 100 100 100 100 99 97 92 84 92 82 99 91 82 100 100 100 99 100 100 100 100 92 64 69 60 43 41 55 65 14 46 36 6 58 100 99 82 100 100 100 100 100
100 100 100 100 100 99 100 100 100 100 100 98 94 100 100 100 100 100 100 100 100 100 99 100 96 78 55 6 14 5 34 50 5 5 18 97 100 22 57 100 100 100 100
100 100 100 100 100 97 98 100 92 97 100 100 100 100 100 100 100 100 100 100 100 100 100 100 100 100 96 27 6 20 13 5 5 5 76 48 43 5 42 44 100 100 100

GFSGL_prec_cloud_033.txt.gz
Cloud_Cover
85 89 17 73 63 7 5 5 5 5 5 4 5 5 2 5 47 98 6 5 55 95 82 71 5 5 22 71 100 66 19 22 69 5 49 63 65 94 62 6 20 5 5
85 7 15 5 5 5 5 5 5 5 5 5 5 5 5 32 90 97 82 100 94 82 81 78 5 42 69 89 100 100 100 100 100 99 91 100 100 100 100 100 87 90 52
5 8 5 5 21 5 10 76 7 10 11 5 33 84 87 64 89 89 89 34 81 9 70 5 5 71 84 95 100 100 100 100 100 100 100 100 100 100 100 100 100 100 94
20 5 5 5 44 99 100 96 99 96 14 91 69 84 75 86 42 5 5 5 5 5 5 5 30 69 74 97 100 100 100 100 100 100 100 100 100 100 100 100 100 100 100
5 6 24 99 98 100 100 100 83 7 8 39 98 73 11 5 5 5 5 5 5 5 5 3 5 12 58 91 100 100 100 100 100 100 100 100 100 100 100 100 100 100 97
19 41 99 100 100 100 100 53 55 16 10 44 30 5 5 5 5 5 5 5 5 0 0 5 5 5 70 96 100 93 92 100 100 100 100 100 100 100 100 100 100 100 100
90 100 100 100 100 100 22 50 29 37 11 47 30 40 5 5 5 5 5 5 5 4 5 7 59 99 100 100 100 93 100 99 100 100 100 100 100 100 100 100 100 100 100
100 100 100 100 100 78 34 5 5 8 82 97 96 78 10 5 5 5 5 5 5 5 16 85 100 100 100 100 100 100 100 100 100 100 100 100 100 100 100 100 100 100 100
100 100 100 100 98 7 25 6 2 2 94 70 28 8 79 28 5 5 5 20 65 42 98 100 100 100 100 100 100 100 100 100 100 100 92 92 100 100 100 100 100 100 100
100 100 97 72 45 41 100 5 2 32 99 28 82 93 72 58 5 7 5 87 100 100 100 100 100 100 100 100 100 100 100 100 100 100 100 96 100 100 100 100 100 100 100
94 14 6 85 86 100 82 5 5 5 5 15 78 66 68 5 24 10 5 98 99 100 100 78 43 100 100 100 99 100 100 100 100 100 100 100 100 100 100 100 100 100 100
24 10 99 100 100 95 5 5 5 5 8 83 91 71 6 5 5 36 5 88 94 100 100 44 42 83 81 42 81 100 98 100 100 100 100 100 100 100 100 100 100 100 100
32 100 100 100 85 5 39 5 5 5 54 92 59 19 29 51 22 33 5 6 90 54 88 6 5 5 5 5 18 95 88 100 100 100 100 100 100 100 100 100 100 100 100
100 100 100 84 5 74 88 64 5 5 57 77 78 98 100 69 80 20 28 95 87 52 7 3 4 5 5 16 5 54 83 100 100 100 100 100 100 100 100 100 100 100 100
100 100 56 14 6 82 70 90 49 18 89 97 99 95 97 95 77 5 40 100 95 60 4 5 5 5 1 4 5 5 90 100 100 100 100 100 100 100 100 100 100 100 100
100 64 41 66 48 98 71 74 25 9 20 60 88 97 72 53 14 28 54 91 5 5 5 5 5 5 5 2 5 5 31 96 100 100 100 100 100 100 100 100 100 100 100
66 71 76 86 95 76 91 90 89 68 15 5 9 7 74 88 75 83 90 98 5 5 21 9 78 20 5 4 4 4 5 7 97 100 100 100 100 100 100 100 100 100 100
96 100 100 100 100 100 100 100 99 100 94 69 14 39 7 32 77 100 94 98 93 74 14 5 52 88 32 5 2 4 5 5 23 99 100 100 100 100 100 100 100 100 99
100 100 100 100 100 99 100 82 93 100 99 86 77 15 30 46 36 90 98 100 98 99 100 71 70 43 64 5 6 5 41 5 5 49 100 100 100 100 100 100 100 100 100
100 26 90 100 100 100 100 74 16 72 97 100 98 99 72 71 43 81 89 97 98 94 96 98 66 55 75 74 59 48 7 7 5 5 56 100 98 97 100 100 100 100 100
5 67 100 100 100 99 100 92 83 89 87 98 97 67 60 100 95 84 92 95 95 91 99 90 98 82 82 86 29 5 6 25 5 5 5 44 92 91 100 100 100 100 100
10 22 48 87 100 100 98 91 84 59 71 51 55 55 20 91 92 83 91 100 98 100 100 91 84 86 76 68 83 80 5 36 7 5 5 55 57 75 93 100 100 100 100
91 100 94 92 73 77 99 87 84 93 80 82 63 43 59 73 88 98 100 100 100 98 100 100 93 89 86 72 77 67 21 29 63 5 5 52 60 14 58 88 93 100 100
100 100 100 100 100 100 100 100 100 100 94 90 94 82 77 83 71 78 93 100 100 100 100 100 100 94 75 76 88 63 38 65 84 5 5 69 61 52 6 45 62 100 100
100 100 100 100 100 99 91 98 98 100 100 100 100 100 95 99 99 96 100 100 100 100 100 100 100 100 89 100 96 27 30 70 9 5 5 81 82 88 5 43 73 54 100
94 100 100 100 100 100 100 100 98 99 100 98 100 100 100 100 100 100 100 100 100 100 100 100 100 100 100 98 100 93 8 9 5 5 5 5 14 5 5 47 85 47 59

GFSGL_prec_cloud_036.txt.gz
Cloud_Cover
100 100 86 90 76 75 32 5 5 5 5 5 8 5 5 9 79 80 35 83 100 90 96 100 100 100 100 100 100 100 100 100 100 25 100 100 100 100 100 100 100 100 100
100 100 94 20 9 5 5 5 5 5 38 87 17 5 26 100 100 84 43 98 95 99 100 100 100 100 100 100 100 100 100 100 100 92 100 100 100 100 100 100 100 100 100
91 94 28 5 5 5 5 5 18 87 99 7 6 80 100 99 95 91 100 100 93 85 84 97 65 76 44 21 80 100 100 100 100 100 100 100 100 100 100 100 100 100 100
81 13 13 19 5 5 49 82 100 98 26 24 35 42 94 94 95 69 33 95 93 73 33 8 5 5 5 5 34 99 100 100 100 100 100 100 100 100 100 100 100 100 100
85 53 28 16 36 87 100 100 100 55 26 14 44 70 54 37 11 20 42 33 67 5 5 5 4 5 5 52 85 95 100 100 100 100 100 100 100 100 100 100 100 100 100
63 98 60 93 100 100 100 95 86 19 64 83 94 97 95 92 5 5 3 5 5 5 5 5 5 10 100 52 100 95 81 100 100 100 100 100 100 100 100 100 100 100 100
100 89 99 100 100 100 98 52 46 10 77 100 100 97 100 100 5 5 5 5 5 5 5 5 18 78 100 100 100 83 99 100 98 98 100 100 100 100 100 100 100 100 100
99 99 96 100 100 94 99 86 18 77 70 100 100 100 88 98 5 5 5 5 5 52 18 47 95 100 100 86 100 100 100 100 100 100 100 100 100 100 100 100 100 100 99
100 100 100 94 96 100 98 100 94 100 80 98 96 100 100 100 10 5 5 51 98 96 94 98 93 82 99 70 100 100 100 100 100 100 100 89 27 35 78 100 99 100 100
100 100 100 100 100 100 100 100 100 97 85 92 100 100 89 77 59 5 5 32 98 99 98 100 100 39 9 100 100 100 100 100 100 100 100 100 100 100 90 100 100 100 100
100 100 100 100 100 100 100 100 98 98 93 100 74 78 91 88 89 5 5 17 94 98 99 98 100 17 18 94 67 100 96 100 100 100 100 100 100 100 100 100 100 100 100
100 100 100 100 100 100 100 100 99 98 98 100 100 81 100 96 93 43 5 5 20 98 96 99 81 5 5 5 25 8 59 98 100 100 100 100 100 100 100 100 100 100 100
100 100 100 100 100 100 100 86 100 99 100 100 100 100 100 100 100 99 15 5 55 94 100 13 5 5 5 2 4 5 22 76 100 100 100 100 100 100 100 100 100 100 94
100 100 100 100 100 100 98 100 100 100 100 100 100 100 100 100 100 100 100 100 100 100 99 31 20 4 2 2 15 5 5 36 100 100 100 100 100 100 100 100 100 100 100
100 100 100 100 93 85 93 100 100 100 100 99 100 100 100 100 100 100 51 94 100 85 7 96 100 93 18 5 5 5 5 5 62 100 100 100 100 100 100 100 100 100 100
100 100 52 100 94 100 98 100 100 90 23 5 5 6 30 86 99 59 7 26 94 5 57 99 100 100 100 39 5 5 5 5 5 54 100 100 100 100 100 100 100 100 100
100 100 78 99 100 100 94 100 100 100 97 81 5 5 5 6 66 93 25 72 91 71 92 100 100 100 99 90 14 5 5 5 5 5 62 100 100 100 100 100 100 100 100
100 68 85 97 100 98 95 96 100 100 100 99 96 96 81 5 5 46 55 99 99 100 86 100 100 100 100 95 22 8 7 19 14 5 8 93 100 100 100 100 100 100 100
9 81 99 100 100 100 100 96 98 100 100 100 100 100 100 62 27 10 68 99 100 100 100 100 100 100 100 100 99 100 92 94 12 7 60 81 100 100 100 100 100 100 100
98 97 75 79 88 96 100 100 100 100 100 100 100 100 100 100 97 94 87 99 100 100 100 100 100 100 100 100 100 100 99 100 98 5 5 84 96 100 87 100 100 100 100
100 100 100 90 100 100 100 98 98 100 100 100 100 96 100 91 100 100 100 100 100 100 100 100 100 100 100 100 100 100 100 100 100 30 5 19 84 92 76 79 99 100 80
100 100 100 100 100 100 100 100 96 100 100 100 100 100 99 74 92 91 92 89 94 100 100 100 100 100 100 100 100 100 100 100 100 100 57 21 100 100 66 81 64 85 100
100 100 100 100 100 100 100 100 100 96 99 96 99 98 99 97 99 100 89 79 88 100 100 100 100 100 100 100 98 100 100 100 100 99 5 63 100 100 94 98 85 55 95
100 100 100 100 100 100 100 94 100 100 100 100 100 100 100 100 100 100 91 100 99 83 94 100 100 100 100 100 100 100 100 98 100 98 5 6 69 95 54 29 100 78 63
100 100 100 85 100 100 100 100 100 100 100 100 100 100 100 100 100 100 100 100 100 100 100 100 100 100 100 100 99 100 100 86 55 73 16 20 75 29 38 7 65 82 41
100 100 100 100 100 100 100 100 100 100 100 100 100 100 100 100 100 100 100 100 100 100 100 100 100 100 100 100 100 100 100 100 64 54 5 5 30 67 66 38 54 59 30

GFSGL_prec_cloud_039.txt.gz
Cloud_Cover
5 25 86 100 35 9 77 5 10 5 5 5 5 5 5 5 5 5 81 74 94 100 99 100 92 100 83 100 100 100 100 96 47 1 22 78 93 92 100 88 80 68 45
55 100 100 98 18 6 5 5 5 5 5 5 5 5 5 5 6 33 91 98 95 100 89 99 100 99 51 59 41 10 8 13 82 96 13 100 97 100 98 97 100 100 82
62 100 90 46 10 12 9 53 22 5 5 5 5 5 46 88 97 99 64 55 93 100 100 94 88 41 5 5 43 5 10 62 98 99 61 99 94 100 83 86 90 100 100
98 100 59 15 55 6 88 34 5 5 5 42 28 64 73 97 100 100 100 96 97 100 86 26 36 19 5 5 5 26 75 100 100 87 85 100 100 49 99 85 90 84 100
100 94 84 78 79 99 78 60 65 50 67 89 100 90 100 100 98 14 16 6 6 7 6 42 26 5 5 4 14 98 100 100 100 100 100 100 100 100 96 97 100 100 98
96 97 83 93 100 83 94 96 81 99 100 100 100 100 100 97 78 5 5 5 5 5 53 22 5 30 95 22 86 68 44 100 100 100 100 100 100 100 100 100 100 100 98
100 99 100 100 94 100 100 92 100 100 100 100 100 100 100 100 5 5 5 5 5 53 78 70 46 42 100 84 86 92 100 100 100 100 99 100 100 100 99 94 99 100 100
100 100 96 100 100 100 100 100 100 100 100 100 100 100 100 100 5 5 5 4 42 95 99 93 84 88 100 5 7 96 100 100 100 99 100 100 100 94 81 85 97 66 91
100 100 100 100 100 100 100 100 100 100 100 100 100 98 100 100 29 5 5 5 79 95 91 92 70 82 65 3 5 100 99 100 100 99 62 95 74 6 5 84 98 100 100
100 100 100 100 100 100 100 100 100 100 100 100 79 91 100 99 71 85 5 6 84 97 93 92 95 5 5 5 17 88 100 96 26 55 100 100 100 100 99 100 100 100 100
100 100 100 100 100 100 100 100 100 100 100 15 63 100 100 100 99 80 6 5 80 99 97 99 100 42 5 5 21 64 86 5 71 98 100 98 100 100 99 91 92 99 100
100 100 100 100 100 100 100 100 100 100 99 93 99 96 96 95 98 72 23 5 5 58 99 100 96 5 5 5 5 5 1 25 98 100 100 100 100 97 100 98 100 100 100
100 100 100 100 100 100 100 100 100 100 98 99 98 100 97 94 99 69 69 20 5 36 100 74 6 5 5 5 5 5 5 95 76 100 100 100 100 100 100 100 100 100 100
100 100 100 100 100 100 100 100 100 92 98 100 97 100 100 100 96 100 98 58 64 81 100 98 27 11 26 47 83 100 100 97 47 94 100 100 100 100 100 100 100 100 100
100 100 100 100 100 100 100 97 99 88 92 99 100 99 100 79 99 86 100 96 100 99 35 48 99 97 100 100 100 100 100 100 91 7 99 100 100 100 100 99 100 100 100
100 100 100 100 100 100 100 83 86 99 99 76 48 16 5 5 5 13 28 5 5 48 64 98 100 100 100 100 100 100 100 100 94 80 92 100 100 100 100 100 100 100 100
100 73 100 100 100 100 97 81 100 87 99 90 91 95 27 5 5 7 40 25 27 100 91 97 100 100 100 100 100 100 100 100 24 100 100 100 100 100 100 100 100 100 100
100 100 100 100 100 100 85 100 100 99 96 100 89 100 91 80 20 5 32 75 98 100 95 100 100 100 100 100 100 100 100 100 100 100 100 100 100 100 100 100 100 100 100
100 96 54 35 45 100 99 91 100 100 98 100 86 84 99 100 100 81 80 97 97 100 100 100 100 100 100 100 97 99 100 100 85 97 100 100 100 100 100 100 100 100 100
63 100 98 96 70 68 93 100 100 92 99 99 100 91 99 100 97 100 87 99 83 100 100 100 100 100 100 100 98 100 95 100 100 100 100 100 100 100 100 100 100 100 100
6 68 79 92 100 100 82 100 98 100 100 97 100 100 100 100 99 100 99 96 97 89 100 100 100 100 100 100 100 100 100 100 100 100 100 100 100 100 100 100 100 91 100
5 23 98 93 77 100 99 95 100 99 100 100 100 100 100 100 100 100 100 98 97 100 100 100 100 100 100 100 100 100 100 100 100 100 100 100 100 100 100 100 100 100 94
64 100 100 100 100 95 83 77 90 100 100 100 100 100 100 100 100 100 100 100 100 100 100 100 99 96 97 100 100 100 100 100 100 100 100 100 100 100 100 100 100 100 94
100 99 100 96 74 95 100 87 99 100 100 100 100 100 100 100 100 100 100 100 100 100 100 100 100 100 100 100 100 100 98 100 98 99 82 72 99 100 100 100 100 100 100
100 98 100 98 98 100 100 100 100 100 100 100 100 100 100 100 100 100 100 100 100 100 100 100 100 100 100 100 100 100 100 100 70 100 100 53 96 96 34 54 94 92 96
100 100 100 100 100 100 100 96 100 100 100 100 100 100 100 100 100 100 100 100 100 100 100 100 100 100 100 100 100 100 100 100 98 100 88 99 100 100 100 100 78 85 98

GFSGL_prec_cloud_042.txt.gz
Cloud_Cover
5 5 30 64 100 100 100 100 100 45 15 5 79 100 42 9 6 57 38 5 44 14 23 68 66 98 96 92 87 100 71 18 5 5 0 2 5 0 0 0 0 0 0
5 5 66 99 100 100 100 100 48 18 62 100 100 98 48 48 99 100 78 5 23 79 5 76 27 99 25 8 3 0 2 3 0 0 0 4 5 0 5 5 5 5 1
5 84 100 100 100 100 100 40 34 100 100 100 97 97 99 84 54 90 6 70 100 20 37 84 54 3 0 5 5 5 1 4 5 5 5 5 5 5 5 5 5 7 24
67 100 100 100 100 91 88 96 99 99 100 91 95 100 100 100 100 87 92 73 100 44 4 6 5 4 5 5 5 5 3 5 5 5 5 5 5 16 84 67 37 5 5
100 100 100 100 100 100 99 100 100 100 100 100 100 100 100 100 100 100 100 64 22 78 0 5 5 5 5 5 5 5 5 5 5 11 40 55 67 9 5 56 74 74 4
100 100 100 100 100 100 100 100 100 100 100 100 100 100 100 100 100 70 10 8 5 0 1 5 5 5 58 21 15 5 35 7 10 97 99 99 12 98 97 5 32 23 38
99 100 100 100 100 100 100 100 100 100 100 100 100 100 100 100 100 100 99 72 96 0 5 8 5 20 5 5 3 0 0 5 82 100 99 96 87 5 9 6 5 5 5
100 100 100 100 100 100 100 100 100 100 100 100 100 100 100 100 100 100 100 37 5 0 32 51 5 56 5 5 0 0 1 5 5 97 100 95 54 5 5 26 32 23 7
100 100 100 100 100 100 100 100 100 100 100 100 100 100 100 100 99 100 80 81 5 4 5 5 73 67 5 5 5 4 5 4 5 15 5 5 42 84 98 98 83 99 76
100 100 100 100 100 100 100 100 100 100 100 100 100 100 100 77 45 95 64 6 5 5 5 16 5 5 5 5 4 5 5 5 4 3 5 6 34 99 100 98 95 100 94
100 100 100 100 100 100 100 100 100 100 100 100 100 100 91 26 32 45 97 5 5 5 5 5 47 81 5 4 5 5 5 5 2 5 6 5 98 100 79 13 85 100 100
100 100 100 100 100 100 100 100 100 100 100 100 100 90 77 100 88 5 5 5 5 5 5 53 6 5 5 5 2 2 5 5 8 15 5 47 80 100 98 84 44 100 100
100 100 100 100 100 100 100 100 100 100 100 100 95 98 100 98 94 99 100 58 5 5 5 68 90 63 5 5 5 5 44 5 52 5 5 5 7 94 98 96 28 100 100
100 100 100 100 100 100 100 100 100 100 100 100 100 100 82 100 98 97 20 27 95 6 5 40 90 66 58 66 33 57 57 9 62 34 6 5 5 7 94 100 90 91 100
100 100 100 100 100 100 100 100 100 100 100 100 50 44 99 99 100 100 36 86 100 100 99 26 88 77 100 88 33 62 64 5 9 11 5 10 27 5 70 100 100 99 100
100 100 100 100 100 100 100 100 100 100 28 5 5 80 99 93 90 22 5 5 84 100 75 5 58 50 92 99 38 6 10 7 27 5 38 58 100 67 15 96 100 100 95
100 100 100 100 100 100 36 96 48 5 5 5 47 95 100 81 97 33 5 5 95 94 92 5 26 69 100 99 76 59 41 10 5 56 58 26 99 100 52 60 100 100 96
64 35 19 5 5 60 95 79 95 29 9 47 5 11 100 100 100 90 77 100 70 95 89 84 67 86 100 100 98 100 88 16 7 52 5 64 89 98 89 88 55 100 100
0 5 5 5 80 86 51 5 5 49 77 17 5 19 81 97 100 100 100 93 49 68 75 95 54 99 100 100 100 100 98 59 18 5 10 78 63 98 7 100 80 39 100
5 5 5 44 96 96 93 82 92 100 88 83 51 93 100 100 72 95 100 100 97 85 52 11 73 93 100 100 100 100 100 96 91 87 100 27 65 49 40 90 99 87 14
88 79 19 5 89 78 100 100 100 100 100 100 83 89 100 100 100 95 100 100 100 99 100 91 72 61 83 100 100 100 100 100 100 100 100 70 82 5 61 100 100 100 30
84 61 60 62 85 89 92 100 64 96 90 19 96 100 100 100 100 100 100 100 100 100 99 100 100 81 81 85 100 100 100 100 100 99 60 70 12 14 82 83 93 98 50
5 74 92 86 100 89 64 64 71 85 96 42 89 100 100 100 100 100 100 100 100 100 100 100 98 86 100 93 96 100 92 100 99 92 31 47 6 14 88 5 52 90 42
5 5 34 48 100 99 97 100 96 58 80 67 86 100 100 100 100 100 100 100 100 100 100 100 100 100 99 100 89 100 100 100 99 85 26 77 5 6 83 73 5 100 89
10 74 100 96 79 100 100 100 94 84 100 100 100 100 100 100 100 100 100 100 100 100 100 100 100 100 100 100 100 100 100 100 94 98 80 89 65 36 43 5 7 6 82
100 100 100 99 99 100 100 83 100 100 99 99 100 100 100 100 100 100 100 100 100 100 100 100 100 100 100 100 100 100 100 100 99 100 100 100 94 73 56 69 87 27 37

GFSGL_prec_cloud_045.txt.gz
Cloud_Cover
17 5 24 62 92 100 100 93 100 97 100 100 85 6 75 100 98 99 85 75 100 100 100 100 100 100 100 100 98 25 68 81 4 0 0 0 0 0 0 0 0 0 0
100 100 100 100 100 100 100 100 100 100 96 68 78 69 100 91 91 100 100 95 100 100 100 100 100 100 100 99 5 0 0 2 1 0 0 0 0 0 0 0 0 0 0
100 100 100 100 100 100 100 99 100 81 88 89 77 100 91 100 76 100 93 97 100 100 100 100 6 5 4 0 0 0 1 5 2 3 1 1 0 0 1 5 5 5 5
100 100 100 100 100 100 100 98 99 74 96 68 100 76 96 100 100 100 100 100 100 100 100 75 81 100 7 5 5 0 2 2 5 5 5 5 5 5 5 8 50 5 5
100 100 100 100 100 100 94 100 100 100 91 100 100 98 100 100 100 100 100 99 100 98 100 100 100 24 67 4 3 3 4 5 5 5 5 47 64 57 94 92 82 5 4
100 100 100 100 100 92 100 100 100 100 100 100 100 100 100 100 100 100 100 100 100 100 100 100 55 5 5 5 5 5 5 4 5 5 5 23 8 98 68 5 5 5 59
100 100 99 80 78 100 100 100 100 100 100 100 100 100 100 100 100 100 100 100 100 100 100 5 100 37 5 5 5 5 0 0 1 5 56 85 100 92 7 5 5 21 96
100 100 86 97 100 100 100 100 100 100 100 100 100 100 100 100 100 100 100 100 100 100 100 35 5 54 5 5 5 4 2 0 0 3 93 35 21 49 89 98 88 98 46
100 100 86 100 100 100 100 100 100 100 100 100 100 100 100 100 100 100 100 100 100 100 82 5 2 5 5 5 5 5 4 2 0 4 0 5 5 5 99 100 98 88 84
99 100 100 100 100 100 100 100 100 100 100 100 100 100 100 100 100 100 100 100 93 85 8 3 5 25 5 5 5 5 7 3 4 2 0 2 5 5 41 82 100 99 100
100 100 100 100 100 100 100 100 100 100 100 100 100 100 100 100 100 100 100 93 8 5 5 5 5 66 26 55 49 5 5 2 5 5 5 4 4 5 5 12 84 100 100
100 100 99 100 100 100 100 100 100 100 100 100 100 100 100 100 100 31 40 9 16 43 5 5 5 8 19 5 16 20 5 5 12 5 5 5 5 5 5 5 45 26 94
97 99 99 100 99 100 100 100 100 100 100 100 100 100 48 85 5 5 5 14 65 73 5 84 5 5 5 30 11 5 5 31 5 36 10 5 5 5 5 77 51 53 63
100 100 99 99 100 100 98 90 57 5 37 5 22 44 36 49 35 90 85 10 50 5 10 100 21 12 8 6 47 75 65 43 5 55 5 5 5 5 5 38 100 98 83
6 53 56 2 2 0 1 5 5 5 5 5 5 5 5 5 12 96 72 88 93 87 45 82 95 92 50 100 90 82 88 56 18 5 5 5 5 5 5 5 86 100 100
7 0 0 0 0 1 0 0 0 0 0 2 5 5 5 5 58 98 88 86 96 97 94 84 84 66 39 97 100 100 74 79 86 42 5 5 32 38 5 5 6 98 99
0 0 0 0 0 0 0 5 5 3 5 5 5 5 5 5 5 90 94 64 96 83 73 63 73 5 37 94 87 98 100 100 100 98 63 7 46 5 18 7 5 22 100
0 0 0 0 1 3 6 36 8 13 7 5 5 27 58 5 5 72 98 99 97 100 100 100 90 23 5 13 80 97 100 100 100 100 99 45 57 59 63 18 43 43 41
5 5 5 31 79 93 100 94 78 96 92 59 18 11 18 16 18 21 100 100 100 100 100 100 100 92 5 82 83 94 100 100 100 99 86 74 66 61 10 23 18 24 6
72 97 100 100 100 97 96 86 92 95 100 97 96 90 34 42 64 55 66 100 100 100 100 100 100 93 20 92 99 97 98 100 100 100 85 81 96 49 11 55 58 80 20
5 5 5 5 14 50 60 30 92 100 98 100 58 9 12 63 100 100 55 100 100 100 100 100 100 76 77 78 100 93 68 100 100 100 84 66 67 5 5 68 62 64 49
59 62 36 5 5 5 30 62 87 100 100 100 31 6 41 44 86 88 88 100 100 100 100 100 100 100 100 96 100 92 81 59 77 92 58 56 44 10 45 87 52 83 52
4 10 74 89 95 94 99 100 96 100 100 99 72 83 38 58 97 100 100 100 100 100 100 100 100 100 100 100 100 97 89 100 81 100 62 54 68 24 55 90 24 5 26
99 100 100 100 100 100 100 97 87 97 100 100 100 99 89 91 100 100 100 100 100 100 100 100 100 100 100 100 100 100 99 99 95 100 95 89 96 77 35 44 6 5 73
100 100 99 100 100 100 100 100 100 100 100 100 98 80 72 71 100 100 100 100 100 100 100 100 100 100 100 100 100 100 100 100 96 93 99 87 97 98 94 32 5 6 6
100 100 92 100 100 100 100 100 100 100 100 100 96 100 98 100 100 100 100 100 100 100 100 100 100 100 100 100 100 100 100 100 100 100 100 92 91 79 100 66 41 55 6

GFSGL_prec_cloud_048.txt.gz
Cloud_Cover
100 100 100 100 99 100 100 100 100 100 100 100 97 14 76 35 99 100 45 9 79 64 78 76 97 100 97 100 100 100 100 88 5 2 0 0 0 0 0 0 0 0 0
97 94 62 100 100 100 100 100 100 100 100 100 97 41 76 64 100 100 80 90 100 100 100 100 100 100 100 100 100 100 100 9 8 0 0 0 0 0 0 0 0 0 3
100 100 96 92 99 100 46 100 100 100 98 100 46 82 96 97 100 100 100 98 100 100 100 100 100 100 100 100 100 99 16 0 0 5 2 0 0 0 3 5 5 5 3
36 100 96 37 100 12 98 100 68 11 73 100 86 8 92 100 100 100 100 100 100 100 100 100 100 100 100 100 13 5 1 0 3 5 5 5 5 5 5 8 47 4 0
24 66 95 93 100 85 98 100 96 73 98 99 96 100 98 90 99 100 100 100 100 100 100 100 100 100 100 63 5 3 0 3 5 5 5 8 20 9 65 50 5 3 3
83 100 100 100 94 100 100 100 67 100 99 100 100 100 100 100 100 100 100 100 100 100 100 100 100 100 99 5 5 5 5 5 5 5 5 12 6 67 5 5 6 80 91
100 100 100 98 100 100 100 87 100 100 100 98 100 100 100 100 100 100 100 100 100 100 100 100 81 10 5 5 5 31 5 5 4 5 5 10 75 4 58 51 83 95 99
84 64 60 82 84 99 100 100 100 100 98 100 100 100 100 100 100 100 100 100 100 88 62 100 96 7 5 5 5 89 42 5 4 1 5 5 4 70 99 100 100 92 38
34 73 63 96 100 100 100 100 100 100 100 100 84 99 100 100 100 100 82 62 5 8 93 100 76 5 5 5 69 100 96 8 5 2 5 5 5 5 44 97 41 96 87
78 84 98 100 100 100 100 100 99 100 56 97 100 100 81 23 5 34 37 5 5 5 48 74 5 5 5 5 38 89 94 79 22 5 0 1 0 1 5 13 99 100 100
100 100 100 100 100 100 99 99 86 42 62 2 1 0 0 5 17 91 80 5 5 5 5 5 89 5 4 5 25 55 73 100 89 5 5 5 5 5 1 5 5 86 95
100 100 100 100 96 45 7 5 5 0 0 4 5 2 5 5 43 99 91 64 6 16 70 46 100 32 5 14 88 100 92 91 84 11 5 5 5 5 5 5 5 5 64
98 77 100 66 5 5 5 3 0 0 0 0 5 5 5 5 79 69 7 84 92 76 5 6 27 54 5 12 5 27 89 97 66 65 51 5 5 5 5 5 5 5 5
100 74 54 5 6 6 1 0 0 0 0 5 5 5 5 5 5 5 5 88 89 88 92 92 93 82 88 24 76 70 96 93 100 100 100 64 22 5 5 5 5 5 58
35 18 5 20 12 1 0 0 0 0 0 1 4 1 4 5 5 5 5 76 91 99 95 100 99 100 89 47 59 60 94 100 100 100 100 75 30 48 18 5 5 5 15
7 13 41 24 0 0 0 2 0 0 0 2 34 58 6 5 5 5 5 40 80 100 100 82 99 100 100 100 96 82 84 100 100 100 100 99 52 69 59 5 5 5 5
44 76 6 2 5 5 5 5 5 5 5 5 83 98 100 54 24 5 5 5 86 100 98 73 99 100 100 100 100 88 98 96 100 100 100 100 71 60 63 45 28 5 5
21 10 27 66 84 80 92 78 97 100 69 32 23 28 85 100 99 95 73 70 100 100 100 96 100 100 100 100 100 96 100 100 100 100 100 100 100 89 69 57 31 80 13
5 5 5 5 11 24 36 50 60 93 100 100 100 92 88 100 99 85 98 100 100 86 96 100 74 99 100 100 100 93 80 100 100 100 100 100 99 89 66 48 73 63 58
6 5 5 10 6 5 5 5 5 20 54 99 100 100 100 95 90 16 59 100 100 100 100 100 99 91 100 100 100 100 96 85 92 100 100 88 95 66 60 57 70 97 56
5 5 5 74 100 98 98 100 100 100 97 96 27 97 100 87 69 100 91 71 100 95 83 100 100 100 100 100 100 100 100 100 92 100 100 83 90 65 65 86 80 81 52
87 100 100 100 100 94 100 100 100 100 100 93 99 100 100 99 100 100 99 100 100 100 100 100 100 100 100 100 100 100 100 100 100 88 99 90 74 68 55 68 62 74 18
59 96 95 79 97 94 100 100 98 92 100 100 100 100 100 100 96 83 93 98 100 100 100 100 100 100 100 100 100 100 100 100 100 100 100 98 75 64 72 65 25 30 13
83 100 62 100 100 100 100 100 100 100 100 100 100 100 100 100 100 100 100 97 100 100 100 100 100 100 100 100 100 100 100 100 100 100 100 100 100 90 88 70 55 34 5
96 99 77 100 100 100 100 100 100 100 100 100 100 100 100 100 100 100 100 100 96 100 100 100 100 100 100 100 100 100 100 100 100 100 100 100 100 100 92 69 65 82 63
55 99 99 100 100 100 100 100 100 100 100 100 100 100 100 100 100 100 100 100 100 100 100 100 100 100 100 100 100 100 100 100 100 100 100 100 100 100 89 100 86 87 93

GFSGL_prec_cloud_054.txt.gz
Cloud_Cover
65 73 100 58 19 100 100 100 100 100 100 92 97 100 100 100 100 100 100 87 75 55 52 78 89 98 41 5 5 5 5 5 2 0 0 0 0 0 0 0 0 0 0
98 100 100 100 100 100 100 100 100 100 100 100 100 100 100 100 100 100 98 14 58 86 36 67 75 5 5 5 5 85 64 5 0 0 0 0 0 0 0 0 0 1 5
100 100 100 100 100 100 100 100 100 94 100 100 100 79 98 99 99 80 78 65 55 84 72 5 5 5 5 7 99 77 5 5 3 5 1 1 0 0 0 4 5 5 5
98 87 76 92 92 100 100 100 100 90 100 100 83 100 100 100 91 88 93 96 97 24 4 5 5 5 5 46 76 21 52 27 5 5 5 4 0 3 5 5 5 5 4
33 53 92 100 66 100 100 100 100 100 100 100 30 98 100 100 100 100 100 76 6 5 5 5 5 5 5 31 77 60 99 77 5 5 5 5 5 5 5 5 5 5 28
14 58 68 100 100 100 100 100 100 100 100 100 100 100 100 100 98 82 44 5 5 5 5 5 55 5 6 88 97 98 100 81 24 5 5 5 28 5 5 5 63 100 95
93 100 100 100 100 100 100 100 100 99 100 100 100 98 95 100 98 11 5 5 5 12 80 45 20 28 100 77 75 100 78 27 26 5 5 5 29 6 5 40 100 98 97
100 100 100 100 100 100 100 100 100 100 100 100 100 99 96 100 21 11 10 5 58 100 67 5 5 5 28 5 73 69 5 5 32 69 5 5 5 5 51 5 8 31 5
100 100 100 100 100 100 100 100 100 100 100 73 94 58 76 100 95 25 11 98 100 62 5 5 5 5 5 21 53 5 5 5 7 5 5 5 5 31 9 6 5 51 65
100 100 100 100 100 100 100 100 100 95 99 100 88 100 100 83 42 66 100 99 18 5 5 88 92 50 45 88 84 69 6 5 5 5 5 5 5 5 5 5 5 76 98
52 96 100 100 100 99 100 100 100 100 100 100 100 100 97 100 100 100 100 12 5 5 82 100 100 83 83 22 96 76 34 5 5 7 5 5 5 5 13 29 5 22 74
100 100 96 58 78 73 96 90 94 100 100 100 93 100 100 100 75 100 25 5 5 22 81 62 74 6 43 62 63 73 100 36 59 72 60 67 8 73 87 100 30 5 5
100 81 85 52 18 82 72 89 100 100 100 99 100 85 26 49 96 59 5 5 4 44 5 5 6 38 96 82 90 93 100 70 91 100 99 100 87 100 100 100 73 28 5
90 84 60 6 52 37 33 42 59 99 100 86 36 13 11 17 48 47 8 59 100 70 21 48 52 100 100 93 88 100 100 84 93 100 93 79 60 99 92 94 100 73 69
72 23 5 11 15 53 58 96 100 97 7 7 36 59 99 80 10 5 94 92 93 94 100 96 100 100 100 86 100 100 100 100 97 100 100 100 95 96 86 77 67 82 52
5 5 5 8 43 41 41 82 49 56 92 100 100 98 7 8 5 5 7 72 84 100 100 100 100 100 100 100 94 100 100 100 100 100 100 78 84 83 99 95 88 73 73
5 5 15 59 50 63 72 84 90 76 90 88 96 63 8 12 5 5 5 5 83 96 100 100 79 100 100 96 96 100 99 100 100 100 100 97 93 86 100 100 100 76 26
7 18 45 33 42 76 93 100 100 100 100 86 76 9 52 63 81 62 5 45 75 100 100 100 98 100 87 100 99 100 100 100 100 100 100 100 78 82 95 100 99 76 66
91 77 90 91 78 77 46 39 96 98 100 90 55 18 53 5 29 83 86 90 100 100 100 100 100 100 100 100 100 100 100 100 100 100 100 100 87 97 89 92 94 50 68
86 84 79 96 100 94 80 100 100 100 100 100 100 100 100 90 70 64 93 100 100 100 100 100 100 100 100 96 100 98 100 100 100 100 100 100 100 100 86 92 84 57 43
100 100 100 94 81 96 100 100 100 100 100 100 100 100 93 100 100 100 100 100 100 100 100 100 100 100 96 100 100 100 100 100 100 100 100 100 100 100 100 96 74 57 57
100 100 100 95 90 95 100 85 100 99 100 100 100 100 100 100 100 100 100 100 100 100 100 100 100 100 100 100 100 100 100 100 100 100 100 100 100 100 100 97 66 58 59
100 100 100 47 50 68 63 58 100 99 100 100 98 100 100 100 100 100 100 100 100 100 100 100 100 100 100 98 100 100 100 100 100 100 100 100 100 100 100 100 100 77 61
100 60 58 54 61 64 46 67 99 41 88 100 100 100 100 100 100 100 100 100 100 100 100 100 100 100 100 100 100 100 100 100 100 100 100 100 100 100 100 100 100 85 54
60 76 49 100 100 100 81 36 83 7 64 95 100 100 100 100 100 100 100 100 100 100 100 100 100 100 100 100 100 100 100 100 100 100 100 100 100 100 100 100 100 91 75
99 56 16 98 84 55 37 66 77 55 57 89 99 100 100 100 100 100 100 100 100 100 100 100 100 87 95 100 100 100 100 100 100 100 100 100 100 100 100 100 100 100 74

GFSGL_prec_cloud_057.txt.gz
Cloud_Cover
63 76 97 100 100 100 100 100 96 99 100 100 100 100 100 100 100 100 100 100 100 99 94 80 83 62 64 5 5 5 5 19 92 5 5 5 4 4 5 3 0 0 0
96 100 100 100 100 100 100 100 100 100 100 100 100 100 100 100 100 100 100 99 100 100 100 100 97 5 5 5 5 5 6 82 80 5 6 18 5 5 5 2 0 1 5
100 100 100 100 100 100 100 100 100 100 100 100 100 100 100 100 100 100 100 100 100 100 86 53 6 8 6 5 5 5 83 41 16 40 5 27 5 5 5 1 5 5 5
100 100 100 100 100 100 100 100 96 89 100 100 100 100 100 100 100 100 100 97 100 84 70 6 45 11 5 12 5 5 22 57 95 72 85 17 16 5 5 1 14 82 5
100 100 100 100 100 100 100 100 84 79 100 100 100 100 100 100 97 100 99 100 100 78 6 28 8 5 40 21 5 31 90 90 98 100 99 100 63 52 5 5 5 51 42
74 100 100 100 100 84 99 50 100 100 100 100 100 100 100 100 100 100 100 63 5 5 31 5 13 29 84 47 35 63 81 96 100 100 100 100 70 92 5 5 5 11 8
29 46 53 83 100 87 92 100 100 100 100 100 100 100 100 100 93 100 96 12 6 51 32 25 22 100 96 5 5 96 39 61 90 78 100 93 92 69 3 7 77 99 93
98 92 99 92 100 100 100 100 100 100 100 100 100 100 100 100 100 98 89 42 39 27 71 67 100 97 9 5 5 68 81 28 12 32 28 86 96 5 5 90 100 100 100
99 100 61 99 100 100 100 100 100 100 100 85 97 87 67 100 100 83 80 80 36 83 58 100 94 9 5 22 18 40 36 41 5 5 5 5 5 5 19 91 100 100 100
85 74 96 98 100 100 100 96 81 90 76 20 5 57 84 71 31 41 58 35 33 31 69 69 12 5 5 100 20 71 98 38 98 64 23 27 5 5 5 48 100 100 100
92 100 99 99 86 49 5 5 7 27 35 5 10 8 38 33 14 44 99 46 11 5 5 5 5 5 5 58 5 65 42 63 100 99 73 41 23 62 100 100 100 100 100
55 96 82 23 5 49 36 39 45 26 58 18 19 33 37 44 72 93 26 8 5 19 5 5 5 4 5 65 75 84 100 90 96 95 95 99 99 100 96 100 98 75 99
58 16 5 5 5 38 40 47 56 36 5 6 6 22 70 92 75 26 6 5 5 95 99 52 6 67 90 97 92 96 100 100 100 100 83 100 91 89 98 86 98 66 82
5 8 34 26 10 17 61 44 11 5 5 5 17 73 72 6 5 5 5 5 57 53 59 60 100 100 100 100 100 100 100 100 98 100 100 96 100 100 100 91 100 100 100
13 26 5 30 23 26 5 5 5 5 5 18 48 94 63 32 78 87 75 68 43 5 12 63 100 92 100 100 100 100 100 100 100 100 100 100 100 100 100 97 100 99 100
56 42 5 18 18 11 18 55 39 44 54 49 85 37 97 90 69 67 73 95 49 50 60 69 99 86 100 100 100 100 100 100 100 100 100 100 100 100 100 100 99 100 100
97 81 53 6 6 6 42 79 78 23 18 79 13 46 75 96 88 97 83 78 11 16 100 68 70 85 84 100 100 100 100 100 100 100 100 100 100 100 100 100 100 100 100
94 96 66 19 9 10 42 48 5 28 72 55 41 49 61 69 66 100 100 18 35 77 100 100 97 97 100 100 100 100 100 100 100 100 100 100 100 100 100 100 100 100 100
70 79 85 69 13 9 5 5 19 49 62 18 5 5 56 69 48 90 100 100 100 100 100 96 100 100 100 100 100 98 96 100 100 100 100 100 100 100 100 100 100 80 79
89 92 62 10 5 36 44 59 52 83 30 75 65 80 90 79 89 99 100 100 100 100 100 100 100 100 100 100 100 100 100 100 100 100 100 100 100 100 100 100 97 100 95
99 67 62 78 82 50 70 80 90 100 96 93 97 94 98 100 100 100 100 100 100 100 100 100 100 100 100 100 100 100 100 100 100 100 100 100 100 100 100 100 100 93 100
96 100 98 82 62 78 97 94 99 100 88 99 98 96 88 100 100 100 100 100 100 100 100 100 100 100 100 100 100 100 100 100 100 100 100 100 100 100 100 100 100 100 100
100 97 77 42 89 100 88 66 84 96 85 100 100 100 100 100 100 100 100 100 100 100 100 100 100 100 100 100 100 100 100 100 100 100 100 100 100 100 100 100 100 100 100
100 71 89 100 82 56 63 54 80 37 56 89 100 100 100 100 100 100 100 100 100 100 100 100 100 100 100 100 100 100 100 100 100 100 100 100 100 100 100 100 100 100 99
100 100 100 64 85 90 82 75 64 77 88 100 100 100 100 100 100 100 100 100 100 100 92 100 100 100 100 100 100 100 100 100 100 100 100 100 100 100 100 100 100 100 95
100 99 41 51 88 97 98 88 86 89 97 100 100 100 100 100 100 100 100 100 100 100 100 100 100 100 100 100 100 100 100 100 100 100 100 100 100 100 100 100 100 100 93

GFSGL_prec_cloud_060.txt.gz
Cloud_Cover
2 53 100 100 100 100 100 100 100 100 100 100 100 100 100 100 100 100 100 100 100 100 100 100 93 89 90 61 47 75 32 6 5 20 45 80 86 93 99 66 5 4 0
7 60 100 100 100 100 100 100 100 100 100 100 100 100 100 100 100 100 100 100 100 100 87 99 100 100 100 100 100 88 62 22 48 5 89 74 100 100 100 99 17 1 0
59 100 100 100 100 100 100 100 100 100 100 100 100 100 100 100 100 100 100 80 100 100 100 100 100 100 100 100 100 100 40 46 95 100 77 100 100 100 100 100 66 4 0
100 100 100 100 100 100 100 100 100 100 100 100 100 100 100 100 100 100 100 100 96 88 99 98 100 100 100 94 100 79 73 76 100 100 100 100 100 100 100 100 100 4 0
100 100 100 100 100 100 100 100 100 100 100 100 100 100 100 100 100 100 100 100 98 100 100 100 100 97 93 100 96 37 58 93 90 94 98 100 100 100 100 100 92 4 1
100 100 100 100 100 100 100 100 100 100 100 100 100 100 100 100 100 100 100 100 100 100 100 100 52 63 98 79 37 5 5 9 62 100 100 100 100 100 100 100 87 5 5
100 99 97 94 91 97 74 41 96 92 100 100 100 100 100 100 100 92 42 96 88 72 75 5 39 98 89 8 54 13 5 5 6 85 90 99 100 100 100 100 91 44 9
11 26 30 28 24 66 80 45 100 100 100 100 100 100 99 62 20 28 26 5 5 5 8 22 75 22 16 98 92 100 100 100 87 89 73 91 100 100 100 100 96 95 88
10 49 74 64 71 100 100 100 100 100 100 99 100 91 76 58 24 5 5 5 5 11 5 5 5 5 11 70 90 41 87 98 97 92 23 94 100 75 52 38 96 100 100
66 70 64 87 42 57 100 99 100 96 88 86 48 73 48 17 5 5 5 5 5 5 5 5 6 5 5 5 45 33 96 36 100 100 99 20 53 96 100 93 100 100 100
85 60 68 87 100 100 99 77 92 87 63 30 84 30 6 5 5 9 5 9 55 61 74 43 46 43 75 5 39 88 61 90 98 100 100 100 100 100 100 100 91 100 100
100 100 98 76 91 97 71 39 23 54 45 33 5 5 5 35 9 5 5 6 7 25 5 5 21 58 94 100 86 70 96 99 100 100 99 100 100 100 100 100 100 100 100
52 51 45 64 99 100 94 80 64 42 10 14 28 5 5 5 5 5 5 7 5 5 5 5 5 5 13 90 100 100 99 100 100 100 100 100 100 100 100 100 100 100 100
69 43 73 100 46 93 78 19 10 39 14 6 5 5 5 5 19 93 60 62 39 5 9 5 7 4 5 14 84 100 100 100 100 100 100 100 100 100 100 100 100 100 100
87 88 100 100 93 60 14 7 5 5 5 5 5 5 41 59 64 66 95 83 77 75 97 79 56 65 54 61 88 80 100 100 100 100 100 100 100 100 100 100 100 100 100
42 54 74 41 65 53 48 10 23 5 5 67 32 5 34 67 72 74 91 89 90 54 64 100 82 28 11 71 87 96 100 100 100 100 100 100 100 100 100 100 100 100 100
100 100 57 47 55 68 5 8 9 5 23 10 5 21 69 63 42 67 69 69 76 84 100 100 100 99 100 98 100 95 100 100 100 98 94 100 100 100 100 100 100 100 100
100 61 34 16 10 19 64 41 76 15 14 5 19 5 5 44 55 76 90 56 45 82 100 100 100 100 100 100 100 100 100 100 99 83 100 100 100 100 100 100 100 100 100
84 73 55 32 82 100 69 42 26 6 7 38 27 16 50 23 93 100 100 100 100 100 100 100 100 100 100 100 100 100 99 100 100 100 100 100 100 100 100 100 100 100 94
78 64 97 100 100 100 37 14 6 23 71 70 71 96 98 60 100 100 100 100 100 100 100 100 100 100 100 100 100 100 100 100 99 100 100 100 100 100 100 100 100 100 96
100 100 100 99 54 20 39 22 68 72 84 78 97 100 68 100 100 100 100 100 100 100 100 100 100 100 100 100 100 100 100 100 100 100 100 100 100 100 100 100 100 100 100
100 100 93 72 55 74 80 80 89 97 98 100 100 100 98 100 100 100 100 100 100 100 100 100 100 100 100 100 100 100 100 100 100 100 100 100 100 100 100 100 100 100 100
100 100 79 94 100 100 100 100 100 100 100 100 100 100 100 100 100 100 100 100 100 100 100 100 100 100 100 100 100 100 100 100 100 100 100 100 100 100 100 100 100 100 100
100 100 100 100 100 100 100 100 100 96 100 100 100 100 100 100 100 100 100 100 100 100 100 100 100 100 100 100 100 100 100 100 100 100 100 100 100 100 100 100 100 100 100
100 100 100 100 100 100 100 100 100 100 100 100 100 100 100 100 100 100 100 100 100 100 100 100 100 100 100 100 100 100 100 100 100 100 100 100 100 100 100 100 100 100 100
100 100 100 100 100 100 100 100 100 100 100 100 100 100 100 100 100 100 100 100 100 100 100 100 100 100 100 100 100 100 100 100 100 100 100 100 100 100 100 100 100 100 100

GFSGL_prec_cloud_063.txt.gz
Cloud_Cover
36 89 100 94 97 100 100 100 100 100 100 100 100 100 100 100 100 100 100 100 100 100 100 100 100 99 97 100 100 84 84 100 44 5 7 59 23 90 51 68 98 47 35
94 95 100 98 100 100 100 100 100 100 100 100 100 100 100 100 100 100 100 100 100 100 100 100 100 100 100 100 100 100 100 94 58 39 33 56 65 45 5 7 40 37 88
43 86 80 100 100 100 100 100 100 100 100 100 100 100 100 100 100 100 100 100 100 100 100 100 100 100 100 100 100 100 100 71 94 80 25 16 93 92 85 68 24 38 68
82 94 100 100 100 100 100 100 100 100 100 100 100 100 100 100 100 100 100 100 100 100 100 94 95 98 100 100 100 100 100 93 79 91 56 42 74 71 100 94 29 100 89
100 100 100 100 100 100 100 100 100 100 100 100 100 100 100 100 100 100 100 100 100 100 100 76 93 100 100 100 100 100 100 60 55 85 71 87 76 78 90 57 100 100 59
100 100 100 100 100 100 100 100 100 100 100 100 100 100 100 100 100 100 100 100 100 77 86 88 100 100 100 53 61 76 94 12 5 5 5 5 6 99 87 96 100 100 97
100 100 100 100 100 100 100 100 95 68 89 100 100 100 100 89 95 94 44 37 28 56 96 96 96 72 47 57 78 96 92 15 5 19 17 5 5 22 42 65 100 100 100
74 79 97 82 56 51 61 57 48 80 100 100 80 88 75 64 76 59 94 100 98 44 39 29 5 5 5 6 84 40 12 19 31 98 83 23 75 34 59 100 99 83 56
5 27 38 54 60 59 26 49 54 98 100 75 70 87 99 100 93 29 25 11 9 33 5 5 5 5 5 6 24 28 5 5 12 100 100 100 92 5 99 100 100 100 11
32 57 84 94 100 96 67 76 62 88 100 100 100 75 68 34 7 6 6 5 13 5 5 9 5 5 5 5 62 26 5 5 5 63 100 100 79 18 100 100 90 74 96
71 90 78 88 98 72 76 100 100 100 100 100 99 100 100 100 18 13 24 5 5 6 5 5 5 5 5 4 6 67 84 53 11 5 63 99 61 90 64 91 97 26 90
73 95 98 99 100 99 99 100 100 100 100 94 99 85 82 19 5 14 5 5 5 5 5 5 5 5 5 4 3 3 8 89 100 96 100 100 100 85 100 95 92 28 59
100 98 100 100 100 92 92 100 100 100 100 100 100 47 23 62 36 5 5 11 5 5 5 5 5 5 5 5 5 5 21 66 99 100 100 100 100 100 100 100 100 100 95
100 100 100 100 100 100 94 48 72 93 99 17 5 15 38 7 5 12 8 5 5 5 5 5 5 5 6 6 5 12 31 62 100 100 100 88 100 100 71 66 100 92 98
100 100 66 59 66 100 93 100 100 100 77 14 16 10 12 5 28 26 27 48 8 15 43 14 79 43 39 39 34 33 9 100 92 100 100 100 100 100 100 100 100 100 100
99 94 84 98 100 100 100 100 100 98 51 26 12 5 5 38 58 74 67 71 56 45 53 95 100 100 100 100 97 83 41 78 60 100 100 100 100 100 98 100 99 100 100
100 100 100 100 100 100 75 30 6 7 73 19 6 5 5 5 35 49 85 55 12 22 84 94 100 100 100 100 100 100 100 91 96 100 100 100 100 100 97 83 99 100 100
98 99 100 99 93 76 100 36 32 15 12 84 96 34 6 5 5 52 91 62 94 87 100 100 100 100 100 100 100 100 100 100 100 100 100 100 100 74 80 99 100 100 100
100 100 100 100 98 100 91 99 65 76 70 26 70 33 97 66 5 98 94 100 100 100 100 100 100 100 100 100 100 100 100 100 100 100 78 100 100 100 94 100 100 100 100
100 100 89 96 97 100 100 100 100 100 100 100 85 99 97 81 84 100 100 100 100 100 100 100 100 100 100 100 100 100 100 100 100 100 100 97 93 100 98 100 100 100 100
100 100 100 100 100 100 100 100 100 100 100 100 100 100 61 62 100 100 100 100 100 100 100 100 100 100 100 100 100 100 100 100 100 100 100 100 100 100 100 100 100 100 100
100 100 100 100 100 100 100 100 100 100 100 100 100 100 99 100 100 100 100 100 100 100 100 100 100 100 100 100 100 100 100 100 100 100 100 96 99 100 100 100 100 100 100
100 100 100 100 100 100 100 100 100 100 100 100 100 100 100 100 100 100 100 100 100 100 100 100 100 100 100 100 100 100 100 100 100 100 100 100 100 100 100 100 100 100 100
100 100 100 100 100 100 100 100 100 100 100 100 100 100 100 100 100 100 100 100 100 100 100 100 100 100 100 100 100 100 100 100 100 100 100 100 100 100 100 100 100 100 100
100 100 100 100 100 100 100 100 100 100 100 100 100 100 100 100 100 100 100 100 100 100 100 100 100 100 100 100 100 100 100 100 100 100 100 100 100 100 100 100 100 100 100
100 100 100 100 100 100 100 100 100 100 100 100 100 100 100 100 100 100 100 100 100 100 100 100 100 100 100 100 100 100 100 100 100 100 100 100 100 100 100 100 100 100 100

GFSGL_prec_cloud_066.txt.gz
Cloud_Cover
5 6 5 5 6 85 95 100 94 100 100 100 100 100 100 100 100 100 100 100 100 100 100 100 100 100 100 100 95 100 96 98 8 5 6 82 9 89 98 25 5 15 2
43 100 99 100 97 100 78 76 100 100 100 100 100 100 100 100 100 100 100 100 100 100 100 100 100 98 100 100 99 100 56 6 10 5 5 5 28 75 6 4 6 74 5
100 91 98 100 99 83 99 100 100 100 100 100 100 100 100 100 100 100 100 100 100 100 100 100 100 93 100 98 73 100 74 5 11 31 5 5 29 85 29 43 97 80 64
45 87 100 100 100 100 100 100 100 100 100 100 100 100 100 100 100 100 100 100 100 100 100 100 94 98 97 43 52 24 43 6 66 11 49 53 84 100 99 100 97 57 6
100 100 100 100 100 100 100 100 100 100 100 100 100 100 100 100 100 100 100 100 100 100 100 100 100 9 5 5 5 39 65 64 5 5 5 5 33 77 57 8 19 100 15
77 99 100 100 100 100 100 100 100 100 100 100 100 100 100 100 100 100 100 100 100 88 100 80 22 69 18 15 98 100 100 100 72 100 90 70 27 98 100 100 99 64 5
98 100 100 100 100 100 100 100 100 100 100 93 76 97 100 100 100 91 100 100 100 100 100 100 99 41 5 5 5 5 5 16 96 100 98 28 28 100 100 100 100 100 12
100 100 100 100 100 100 100 100 100 64 15 57 78 100 81 93 100 100 100 96 81 66 68 17 5 17 28 5 5 5 5 5 59 100 75 66 62 100 100 100 100 64 5
79 97 67 46 72 100 68 10 5 65 100 100 94 97 91 100 100 100 100 84 31 6 14 17 5 16 5 5 5 5 5 5 5 5 29 42 58 67 100 100 100 94 5
63 50 100 100 99 72 90 33 81 87 36 20 79 100 98 88 96 100 100 14 6 5 10 48 17 5 5 5 5 5 30 5 5 5 5 62 11 79 100 100 100 91 5
45 100 100 87 75 49 78 100 64 78 87 100 100 97 100 100 100 100 100 61 18 58 38 23 7 5 10 5 5 5 5 2 2 10 24 10 31 84 50 74 100 85 31
96 58 91 93 100 89 98 100 100 100 100 100 100 100 100 100 100 100 73 60 33 35 26 11 74 28 5 5 5 5 10 8 38 100 90 100 83 98 100 56 86 100 100
94 85 94 79 77 100 100 100 100 100 100 100 100 100 100 100 99 18 24 23 5 5 16 10 5 5 5 5 5 60 22 96 96 97 100 100 100 100 98 100 100 100 98
100 100 100 100 100 100 100 100 100 100 100 100 100 98 69 7 92 43 83 85 62 40 5 5 5 6 12 5 5 5 40 6 98 100 82 100 99 100 100 100 100 93 93
94 100 90 85 76 63 85 86 84 100 84 56 50 38 24 66 57 87 79 77 96 76 16 5 21 29 5 5 5 41 18 81 93 100 100 99 96 94 100 100 100 95 87
29 39 61 86 93 75 67 36 49 98 94 94 82 60 5 29 100 91 81 100 99 99 18 5 7 5 5 5 60 95 92 100 100 100 100 85 100 100 100 100 100 100 98
86 80 88 100 100 99 93 100 100 100 100 100 88 61 72 100 100 100 100 100 100 100 100 68 52 14 5 53 85 99 100 100 100 100 100 86 100 100 100 100 100 96 88
100 100 100 100 100 100 100 91 99 94 70 100 100 100 100 100 100 100 100 100 100 82 41 72 24 5 35 84 93 100 100 100 100 100 100 100 100 97 100 100 100 90 92
100 100 100 100 100 100 100 100 100 100 100 100 100 97 100 100 100 100 100 100 99 81 99 70 20 35 58 100 100 100 100 100 99 100 100 100 100 100 100 95 83 92 100
100 100 100 100 100 100 100 100 100 100 100 100 100 100 100 100 100 100 97 100 100 100 72 10 38 68 57 99 100 100 100 100 100 100 100 100 100 100 100 91 98 100 100
100 100 100 100 100 100 100 100 100 100 100 100 100 100 100 100 100 100 100 94 100 98 28 88 100 100 98 100 100 97 100 100 100 100 100 100 100 100 100 100 100 100 100
100 100 100 100 100 100 100 100 100 100 100 100 100 100 100 100 96 100 89 91 90 68 99 100 82 100 100 100 100 84 100 100 100 100 100 100 100 100 100 100 100 100 100
100 100 100 100 100 100 100 100 100 100 100 100 100 100 100 100 100 100 100 82 94 99 71 75 83 100 74 32 84 100 100 100 100 93 100 100 100 100 100 100 100 100 100
100 100 100 100 100 100 100 100 100 100 100 100 100 100 100 100 100 100 100 100 86 72 17 89 97 10 35 96 100 100 100 100 100 96 100 100 100 100 100 100 100 100 100
100 100 100 100 100 100 100 100 100 100 100 100 100 100 100 100 100 100 95 97 81 13 100 36 10 99 100 100 92 92 100 100 100 100 75 100 100 100 100 100 100 100 100
100 100 100 100 100 100 100 100 100 100 100 100 100 100 100 100 100 96 100 97 100 94 9 43 95 84 78 76 99 100 100 100 100 100 100 100 100 100 100 100 100 100 100

GFSGL_prec_cloud_069.txt.gz
Cloud_Cover
67 99 89 78 82 100 100 100 100 100 100 100 100 100 100 95 100 100 100 100 100 100 100 100 100 100 100 100 96 77 52 64 49 54 12 5 7 5 5 2 3 5 5
100 100 100 100 100 100 100 100 100 100 100 100 100 100 100 100 100 100 100 100 100 100 100 100 100 100 100 78 76 72 8 53 100 32 47 5 5 5 5 37 67 75 78
100 100 100 100 98 100 100 100 100 100 100 100 100 100 100 100 100 100 100 100 100 100 100 100 100 100 95 96 97 100 100 63 94 38 23 34 6 5 6 80 97 22 97
100 100 100 100 100 100 100 100 100 100 100 100 100 100 100 100 100 100 100 100 100 100 100 100 100 100 93 66 58 14 5 5 5 5 13 15 80 79 100 97 24 4 9
100 100 100 100 100 100 100 100 100 100 100 100 100 100 100 100 100 100 100 100 100 100 100 100 98 97 17 7 63 92 75 52 97 100 33 10 27 19 5 30 100 100 100
100 100 100 100 100 100 100 100 100 100 100 100 100 100 100 100 100 100 100 100 100 100 100 26 22 5 10 51 55 56 82 84 86 94 94 99 35 44 9 8 96 100 98
100 100 100 100 100 100 100 98 100 100 100 100 100 100 100 93 100 88 100 75 42 5 5 52 100 16 7 12 5 7 11 17 10 6 5 17 89 54 88 98 87 100 94
99 100 100 89 100 100 100 100 100 90 100 93 59 59 96 100 100 74 19 5 8 30 100 100 100 79 11 9 90 94 96 94 22 5 5 5 28 79 94 52 56 27 93
88 94 100 100 100 100 100 89 94 34 80 98 100 100 100 100 87 75 63 100 100 100 100 99 81 95 100 84 9 5 94 100 73 61 19 6 5 5 17 100 100 100 100
100 100 98 79 56 47 35 21 7 53 86 64 95 50 38 100 100 100 100 100 98 82 51 90 53 21 6 24 74 62 55 45 100 64 75 10 7 5 5 5 66 100 100
10 6 83 79 51 98 45 7 21 74 99 100 98 100 100 100 91 100 100 100 79 41 60 45 50 78 33 100 99 100 100 100 58 99 100 100 84 25 76 84 91 100 100
5 30 74 2 5 50 98 100 100 100 100 100 100 64 5 5 29 59 84 19 18 37 77 97 99 97 98 97 100 100 100 72 31 93 88 81 92 96 99 89 73 100 100
5 20 4 0 1 5 97 100 100 100 60 48 63 38 32 70 60 54 71 99 38 70 100 100 100 100 100 100 100 100 100 49 67 97 99 91 100 88 98 100 100 100 100
28 71 8 5 3 11 83 100 95 86 100 98 99 85 76 73 77 100 100 100 100 100 90 92 100 100 100 100 100 100 93 23 97 100 100 100 87 100 100 85 92 100 100
100 31 8 5 5 8 52 65 100 93 99 98 94 96 99 97 96 90 87 99 75 88 94 100 100 100 100 100 100 99 96 63 100 100 100 94 100 100 96 97 100 100 100
100 67 28 60 35 57 98 100 100 100 100 100 94 100 100 100 100 65 67 84 69 96 100 100 100 100 100 100 96 98 86 95 100 100 100 100 100 100 100 100 100 100 100
100 100 100 98 100 100 100 100 100 100 100 100 100 100 100 100 100 100 100 100 100 100 100 100 100 100 100 99 81 100 100 96 96 100 100 100 100 100 100 100 100 100 100
100 100 100 100 100 100 100 100 100 100 100 100 100 100 100 100 100 100 100 100 100 100 100 100 100 100 99 39 51 82 91 98 100 100 100 100 100 100 100 100 100 100 100
100 100 100 100 100 100 100 100 100 100 100 100 100 100 100 100 100 100 100 100 100 100 100 100 100 100 91 88 60 31 77 92 77 100 100 100 100 100 100 100 100 100 100
100 100 100 100 100 100 100 100 100 100 100 100 100 100 100 100 100 100 100 100 100 100 100 100 100 77 38 33 61 81 90 7 88 93 100 100 100 100 100 100 98 100 99
100 100 100 100 100 100 100 100 100 100 100 100 100 100 100 100 100 100 100 100 100 100 100 97 74 56 57 46 86 99 25 7 100 79 100 100 100 100 100 100 100 100 100
100 100 100 100 100 100 100 100 100 100 100 100 100 100 100 100 100 100 100 100 100 100 87 69 64 53 64 86 31 11 93 100 100 100 100 100 100 100 100 100 100 100 99
100 100 100 100 100 100 100 100 100 100 100 100 100 100 100 100 100 100 100 100 97 94 88 29 60 91 32 5 33 99 100 100 99 100 100 100 100 100 100 100 100 100 95
100 100 100 100 100 100 100 100 100 100 100 100 100 100 100 100 100 100 100 100 100 62 13 93 79 12 46 95 64 56 96 85 100 100 100 99 88 82 100 100 100 100 100
100 100 100 100 100 100 100 100 100 100 100 100 100 100 100 100 100 100 100 72 38 82 72 5 5 5 5 5 5 9 23 98 100 100 100 100 100 100 100 100 100 100 100
100 100 100 100 100 100 100 100 95 96 96 100 100 100 100 100 100 99 84 44 95 68 9 5 38 18 28 86 100 100 100 100 100 100 100 100 100 100 100 100 100 100 100

GFSGL_prec_cloud_072.txt.gz
Cloud_Cover
70 99 100 100 100 100 100 100 100 100 100 100 100 100 100 100 100 100 100 100 100 100 100 100 99 100 100 100 100 100 100 98 82 20 24 8 5 5 5 5 5 1 2
100 100 100 100 100 100 100 100 100 100 100 100 100 100 100 100 100 100 100 100 100 100 100 100 100 100 100 100 100 100 57 43 7 22 5 11 5 5 51 29 23 5 5
100 100 100 100 100 100 100 100 100 100 100 100 100 100 100 100 100 100 100 100 100 100 100 100 100 100 100 100 99 74 98 100 100 96 50 5 15 18 33 46 23 94 42
100 100 100 100 100 100 100 100 100 100 100 100 100 100 100 100 100 100 100 100 100 100 100 100 100 100 100 95 100 100 94 38 5 5 16 16 21 88 83 96 22 9 51
100 100 100 100 100 100 100 100 100 100 100 100 100 100 100 100 100 100 100 100 100 100 100 100 100 85 98 100 92 27 5 5 24 6 6 5 5 5 5 11 94 93 38
100 100 100 100 100 100 100 100 100 100 100 100 100 100 100 100 100 100 100 100 100 100 100 100 100 49 28 38 5 5 5 5 5 5 58 6 6 5 50 93 100 85 56
100 100 100 100 100 100 100 100 100 100 100 100 100 100 100 100 100 100 100 100 100 100 100 56 5 5 5 5 12 6 5 5 6 53 5 5 5 68 39 91 100 96 92
100 100 100 100 100 100 100 100 100 100 100 100 100 100 100 100 100 100 100 100 68 39 10 27 6 5 5 12 5 5 21 26 20 8 42 69 96 100 100 93 93 10 25
100 100 100 100 100 100 100 100 100 100 87 96 100 100 100 100 100 100 100 20 5 40 16 7 5 5 5 5 5 5 89 65 27 74 100 96 100 100 100 99 97 100 68
100 100 100 100 100 100 100 100 86 18 66 100 100 100 100 100 100 100 28 5 13 5 5 5 5 5 5 34 12 94 100 100 64 100 100 100 100 100 100 93 99 100 100
100 100 100 100 100 95 69 52 24 42 91 99 94 91 100 100 48 60 36 6 17 52 5 18 5 7 16 49 66 96 45 61 92 100 100 100 98 99 100 95 100 100 80
100 100 88 42 14 6 7 5 20 10 0 19 27 20 57 36 88 100 87 36 55 23 54 78 76 66 78 68 54 37 74 99 91 91 100 100 100 100 93 69 95 98 100
11 5 56 49 6 41 46 5 26 47 7 7 5 7 61 100 100 84 55 87 71 98 100 100 100 100 100 100 100 100 100 100 100 100 100 100 100 98 90 95 99 74 100
26 81 100 48 41 50 68 73 97 28 21 5 28 96 100 100 99 96 84 100 100 100 100 100 100 100 100 100 100 100 100 100 100 100 100 100 100 100 100 95 100 100 100
76 100 100 100 100 85 100 100 100 100 84 86 97 97 100 100 100 98 100 100 100 100 100 100 100 100 99 100 100 100 100 100 100 100 100 100 100 100 100 68 20 96 100
98 100 100 100 100 100 92 93 100 100 100 100 100 100 100 100 100 91 84 81 96 100 100 100 100 100 100 100 100 100 100 100 100 100 100 100 100 100 100 59 71 100 100
100 100 100 100 100 100 100 100 100 100 100 100 100 100 100 100 100 100 96 88 98 100 100 100 100 100 100 100 100 100 100 100 100 100 100 100 100 100 100 100 100 100 100
100 100 100 100 100 100 100 99 100 100 100 100 100 100 100 100 100 100 100 100 97 100 100 100 100 100 100 100 100 100 100 100 100 36 100 68 100 100 100 100 100 100 100
100 100 100 100 100 100 100 100 100 100 100 100 100 100 100 100 100 100 100 100 100 100 100 100 100 100 100 100 100 100 100 93 8 5 100 50 100 98 100 100 100 100 100
100 100 100 100 100 100 100 100 100 100 100 100 100 100 100 100 100 100 100 100 100 100 100 100 100 100 100 100 97 94 87 9 44 86 100 99 62 63 100 100 100 100 100
100 100 100 100 100 100 100 100 100 100 100 100 100 100 100 100 100 100 100 100 100 100 100 100 100 100 99 66 98 54 15 70 62 100 100 100 92 100 100 100 100 100 100
100 100 100 100 100 100 100 100 100 100 100 100 100 100 100 100 100 100 100 100 100 100 100 100 100 100 100 90 54 74 100 100 100 88 100 100 100 100 99 95 100 100 100
98 98 100 100 100 100 100 100 100 100 100 100 100 100 100 100 100 100 100 100 100 100 100 100 100 100 100 74 44 93 100 100 100 100 100 100 100 100 100 100 100 100 100
99 95 95 99 100 100 100 100 100 100 100 100 100 100 100 100 100 100 100 100 100 100 100 100 100 98 84 5 27 5 74 98 100 100 100 100 100 100 100 100 100 100 100
100 100 97 99 100 100 100 100 100 100 100 100 100 99 99 99 99 100 100 100 100 99 97 95 59 5 5 5 5 8 70 100 100 100 100 100 100 100 100 100 100 100 100
99 98 100 100 100 98 86 91 93 92 87 80 86 85 86 79 46 56 86 67 36 5 5 5 10 5 5 58 96 100 100 100 100 100 100 100 100 100 100 100 100 100 100

GFSGL_prec_cloud_075.txt.gz
Cloud_Cover
97 85 86 66 100 100 100 100 100 100 100 100 100 100 100 100 100 100 100 100 100 100 100 100 100 100 100 100 100 96 100 100 100 100 97 53 32 48 6 10 11 5 20
100 100 100 100 100 100 100 100 100 100 100 100 100 100 100 100 100 100 100 100 100 100 100 100 100 100 100 100 100 100 100 100 100 57 5 52 98 80 87 75 67 60 18
100 100 100 100 100 100 100 100 100 100 100 100 100 100 100 100 100 100 100 100 100 100 100 100 100 100 100 100 100 100 100 100 100 98 100 100 88 98 28 40 54 26 6
65 100 100 100 100 94 100 100 100 100 100 100 100 100 100 100 100 100 100 100 100 100 100 100 100 100 100 100 100 100 100 98 100 95 48 61 50 72 47 5 7 33 40
0 43 100 100 100 100 100 100 100 100 100 100 100 100 100 100 100 100 100 100 100 100 100 100 100 100 94 100 100 100 100 93 54 69 52 14 59 5 5 5 5 34 86
12 75 100 100 100 100 100 100 100 100 100 100 100 100 100 100 100 100 100 100 100 100 100 100 100 100 100 100 100 100 95 84 22 22 7 5 5 5 5 35 26 16 5
57 100 100 100 100 100 100 100 100 100 100 100 100 100 100 100 100 100 100 100 100 100 100 100 100 100 100 99 81 85 23 5 28 27 8 10 41 76 40 14 14 18 87
100 100 100 100 100 100 100 100 100 100 100 100 100 100 100 100 100 100 100 100 100 100 100 100 100 100 100 75 7 10 81 35 5 38 36 19 22 53 88 98 100 100 100
100 100 100 100 100 100 100 100 100 100 100 100 100 100 100 100 100 100 100 100 100 100 100 100 100 100 100 100 81 96 100 100 99 99 100 100 100 100 88 65 91 100 87
100 100 100 100 100 100 100 100 100 100 100 100 100 100 100 100 100 100 100 100 100 98 13 100 100 42 100 100 100 99 100 100 100 100 100 100 100 100 100 100 100 100 100
100 100 100 100 100 100 100 100 100 100 100 100 100 100 100 100 100 100 100 100 57 78 100 100 100 100 100 100 100 100 100 100 100 100 100 100 100 100 100 100 100 100 100
100 100 100 100 100 100 100 100 100 100 100 100 100 100 100 100 100 100 96 67 100 100 100 100 100 100 100 100 100 95 98 100 99 78 76 94 100 96 100 100 100 100 100
100 100 100 100 100 100 100 100 100 100 100 100 100 100 100 96 79 88 100 100 100 100 100 100 100 100 100 100 100 100 100 100 98 99 97 89 100 100 100 100 100 100 100
100 100 100 100 100 94 94 89 96 98 100 100 100 100 87 98 100 100 100 100 100 100 100 100 100 100 100 100 100 100 100 100 100 98 91 100 100 100 100 100 100 100 99
35 88 100 100 100 99 100 100 100 100 100 100 100 100 100 100 100 100 100 100 100 100 100 100 100 100 100 100 100 100 100 100 100 100 100 100 100 100 100 100 100 100 100
99 100 100 100 100 100 100 100 100 100 100 100 100 100 100 100 100 100 100 100 100 100 100 100 100 100 100 100 100 100 100 100 100 100 100 100 100 100 100 100 100 100 100
100 100 100 100 100 100 100 100 100 100 100 100 100 100 100 94 98 100 100 100 100 100 100 100 100 100 100 100 100 100 100 100 100 100 100 100 100 100 100 100 100 100 99
100 100 100 100 100 100 100 100 100 100 100 100 100 100 100 100 100 100 100 100 100 100 100 100 100 100 100 100 100 100 100 100 100 100 100 100 79 100 100 90 100 100 100
100 100 100 100 100 100 100 100 100 100 100 100 100 100 100 100 100 100 100 100 100 100 100 100 100 100 100 100 100 100 100 100 100 100 56 90 74 100 100 100 100 100 100
100 100 100 100 100 100 100 100 100 100 100 100 100 100 100 99 100 100 100 100 100 100 100 100 100 100 100 100 100 100 100 100 100 98 72 96 76 95 100 100 100 100 100
100 100 100 100 100 97 89 89 89 82 90 100 98 90 79 76 77 87 91 93 100 100 100 100 100 100 100 100 100 100 100 100 95 58 100 99 100 100 100 100 100 96 100
100 100 100 100 89 92 91 83 80 87 89 86 83 89 89 87 96 92 86 91 99 100 99 100 100 100 100 100 100 100 100 100 92 97 95 96 100 100 100 100 97 100 100
100 100 90 91 90 100 100 99 100 100 100 95 97 89 90 94 100 100 95 100 100 100 100 100 100 100 100 100 100 96 100 100 99 100 100 100 100 100 100 100 100 100 100
100 100 96 100 89 88 88 100 100 100 100 100 100 100 100 88 75 99 89 76 97 64 58 80 82 19 18 28 28 22 75 98 100 100 100 100 100 100 100 100 100 100 100
100 100 98 77 73 100 99 93 95 100 100 100 95 82 99 98 41 45 96 99 31 5 5 5 5 5 15 5 13 5 29 77 100 100 100 100 100 100 100 100 100 100 100
100 99 78 99 70 70 82 100 95 95 100 100 100 100 96 94 78 100 55 34 24 18 5 5 5 5 5 5 23 63 78 47 94 100 100 100 100 100 100 100 100 100 100

GFSGL_prec_cloud_078.txt.gz
Cloud_Cover
57 47 65 100 100 100 100 100 100 100 92 94 100 80 100 100 100 100 100 100 100 100 100 100 100 100 100 100 100 100 100 100 100 100 100 100 100 98 100 100 100 80 86
100 100 100 100 99 99 100 99 100 100 100 98 82 100 100 100 100 100 100 100 100 100 100 100 100 100 100 100 100 100 100 100 100 100 100 100 100 100 100 100 75 52 49
98 100 100 100 100 100 100 100 100 100 100 100 100 100 88 100 100 99 100 100 100 100 100 100 100 100 100 100 100 100 100 100 100 100 100 100 100 100 100 100 96 76 100
1 58 100 100 100 100 99 95 100 100 100 100 100 100 100 100 100 100 100 100 100 100 100 100 100 100 100 100 100 100 100 100 100 100 100 100 100 100 100 100 77 100 100
0 0 28 98 86 100 88 100 100 100 100 100 100 100 100 100 100 100 100 100 100 100 100 100 100 100 100 100 100 100 100 100 100 100 100 100 100 100 100 100 100 100 100
0 4 0 4 53 86 100 100 100 100 100 100 100 100 100 100 100 100 100 100 100 100 100 100 100 100 100 100 94 100 100 100 100 100 100 100 100 100 100 100 58 13 99
5 14 79 99 100 100 100 100 100 100 100 100 100 100 100 100 100 100 100 100 100 100 98 100 98 100 100 100 100 100 100 98 100 100 100 100 100 100 100 100 78 92 100
94 100 100 100 100 100 100 100 100 100 100 100 100 100 100 100 100 100 100 100 100 100 100 100 100 100 100 100 100 100 100 98 97 82 100 100 100 100 100 87 100 100 99
100 100 100 100 100 100 100 100 100 100 100 100 100 100 100 100 100 100 100 100 100 100 100 100 100 100 100 100 100 100 94 93 100 88 100 100 100 100 100 91 82 94 93
100 100 100 100 100 100 100 100 100 100 100 100 100 100 100 100 100 100 100 100 100 100 100 100 100 100 100 99 70 79 100 100 100 100 100 100 100 100 99 98 87 100 100
100 100 100 100 100 100 100 100 100 100 100 100 100 100 100 100 100 100 100 100 100 100 100 100 100 100 100 91 100 100 100 100 100 100 100 100 100 100 100 100 100 100 99
100 100 100 100 100 100 100 100 100 100 100 100 100 100 100 100 100 100 100 100 100 100 100 100 93 89 75 97 100 100 100 100 100 100 100 100 100 100 100 100 100 100 100
100 100 100 100 100 100 100 100 100 100 100 100 100 100 100 100 100 100 100 100 100 100 100 99 96 100 100 100 100 100 100 100 100 100 99 100 100 100 100 100 100 100 100
100 100 100 100 100 100 100 100 100 100 100 100 100 100 100 100 100 100 100 100 100 100 100 100 100 100 100 100 100 100 100 100 100 100 100 100 100 100 100 100 100 100 100
100 100 96 98 97 100 100 100 100 100 100 100 99 100 100 100 100 100 100 100 100 100 100 100 100 100 100 100 100 100 100 100 100 100 100 99 100 100 100 100 100 100 100
95 100 98 87 98 94 100 100 100 100 100 100 100 100 100 100 100 100 100 100 100 100 100 100 100 100 100 100 100 100 100 100 100 100 100 100 100 100 100 100 100 100 100
100 100 100 100 100 100 100 100 100 100 100 100 90 100 100 100 100 100 100 88 95 100 100 100 100 100 100 100 100 100 100 100 100 100 100 100 100 100 100 100 100 100 81
100 100 100 100 100 100 100 100 100 100 100 100 100 99 100 100 100 100 100 100 100 100 98 93 100 98 97 100 100 100 100 100 100 100 100 100 100 100 100 100 100 100 100
100 100 100 100 100 100 100 100 100 100 100 100 100 100 100 100 100 100 100 100 100 100 100 100 100 100 100 100 100 100 100 100 100 100 100 100 100 100 100 100 100 98 97
100 100 100 100 100 100 100 100 100 95 83 92 100 100 100 100 100 100 94 91 92 100 100 100 100 100 100 100 100 100 100 100 100 100 96 74 88 100 100 100 100 100 100
100 100 100 100 100 100 100 100 100 98 94 100 100 100 90 99 92 91 93 91 82 92 86 100 100 100 100 100 100 100 100 100 100 100 100 100 100 100 100 100 100 100 100
100 100 100 100 100 100 100 100 100 100 100 92 100 73 27 58 65 83 74 78 78 61 75 96 87 92 99 99 97 82 84 100 100 100 100 100 100 100 100 100 100 100 100
100 100 100 100 100 100 100 98 100 100 86 94 70 66 74 92 95 77 33 13 13 31 23 7 15 5 5 5 10 63 100 100 100 100 100 100 100 100 100 100 100 100 100
100 100 100 100 100 100 100 100 100 66 79 94 99 100 100 100 100 85 72 88 76 8 5 6 5 5 5 5 5 7 81 90 99 100 100 100 100 100 100 100 100 100 100
100 100 100 100 100 100 100 98 69 93 100 100 100 100 98 88 48 88 90 28 9 40 5 5 5 5 5 5 5 5 21 100 100 100 100 100 100 100 100 100 100 100 100
100 100 100 100 100 68 81 100 100 100 100 100 100 100 90 73 29 99 23 34 20 5 5 5 5 5 5 5 5 51 97 100 99 100 100 100 100 100 100 100 100 100 100

GFSGL_prec_cloud_081.txt.gz
Cloud_Cover
5 5 5 8 12 50 82 57 68 76 96 100 100 100 82 100 85 100 98 100 100 100 100 100 100 100 100 100 100 100 100 100 100 100 100 92 94 100 100 100 100 100 100
5 7 85 60 86 93 78 100 96 86 90 100 100 100 100 100 92 95 100 100 100 100 100 100 100 100 100 100 100 100 100 100 100 100 100 100 100 100 100 100 100 100 100
69 70 99 100 100 100 100 100 88 18 97 99 100 93 78 83 100 100 100 100 100 100 100 100 100 100 100 100 100 100 100 100 100 100 100 100 99 89 95 100 100 100 100
0 42 74 71 84 93 100 100 63 87 47 22 97 100 100 100 100 100 100 100 100 100 100 100 100 100 100 100 100 100 100 100 100 100 88 100 100 71 100 58 93 100 100
0 0 0 20 86 98 100 74 100 100 100 100 100 100 100 100 100 100 100 100 100 100 100 100 100 100 100 100 100 100 99 100 100 100 100 100 100 100 86 81 94 72 100
5 5 1 0 0 0 18 99 100 100 100 100 98 84 100 100 100 100 100 100 100 100 100 100 100 100 100 100 100 100 100 100 100 100 100 100 98 100 5 40 60 43 45
5 8 5 3 2 0 8 94 100 100 100 100 100 100 100 100 100 100 100 100 100 100 100 100 100 100 100 100 100 100 100 100 100 100 100 84 100 90 61 38 33 43 96
80 5 13 34 75 84 100 100 100 100 100 100 100 100 100 100 100 100 100 100 100 100 100 100 100 100 100 100 100 100 100 100 100 100 100 100 98 85 78 83 94 70 90
82 96 99 99 100 100 100 100 100 100 100 100 100 100 100 100 100 100 100 100 100 100 100 100 100 100 100 100 100 100 100 100 100 100 100 100 100 100 100 100 72 97 61
100 100 100 100 100 100 100 100 100 100 100 100 100 100 100 100 100 100 100 100 100 100 100 100 100 100 100 100 100 100 100 100 100 100 100 100 100 100 100 89 50 46 64
100 100 100 100 100 100 100 100 100 100 100 100 100 100 100 100 100 100 100 100 100 100 100 100 100 100 100 100 100 100 100 100 100 100 100 100 100 100 100 100 100 98 100
100 100 100 100 100 100 100 100 100 100 100 100 100 100 100 100 100 100 100 100 100 100 100 100 100 100 100 100 100 100 100 100 100 100 100 100 100 100 100 100 100 100 78
100 100 100 100 100 100 100 100 100 100 100 100 100 100 100 100 100 100 100 100 100 100 100 100 100 100 100 100 100 100 100 100 100 100 100 100 100 100 100 100 100 100 100
100 100 100 100 100 100 100 100 100 100 100 100 100 100 100 100 100 100 100 100 100 100 100 100 100 97 100 100 100 100 100 100 100 100 100 100 100 100 100 100 100 100 100
100 100 100 100 100 100 100 100 100 100 100 100 100 100 100 100 100 100 100 100 100 100 100 87 87 99 100 100 100 100 100 100 100 100 100 100 100 100 100 100 100 100 100
100 100 100 100 100 100 100 100 100 100 100 100 100 100 100 100 100 100 90 89 94 99 98 87 98 100 100 99 100 100 100 100 100 100 100 100 100 96 100 100 100 100 100
100 100 100 100 100 100 100 100 100 100 100 100 100 100 100 100 100 100 95 100 95 100 100 100 100 100 100 100 100 100 100 100 100 100 100 100 100 100 100 100 100 100 100
100 100 100 100 100 100 100 100 100 100 100 100 100 100 100 100 100 97 89 73 97 100 100 100 100 100 100 100 100 100 100 100 100 100 100 100 100 100 100 100 100 100 100
100 100 100 100 100 100 100 100 100 100 100 100 100 100 100 100 100 100 93 99 100 100 100 100 100 100 100 100 100 100 100 100 100 100 100 100 100 100 100 100 100 100 100
100 100 100 100 100 100 100 100 100 100 100 100 100 100 100 98 100 100 100 100 100 100 100 100 100 100 100 100 100 100 100 100 100 100 100 100 100 100 100 100 100 100 100
100 100 100 100 100 100 100 100 100 100 100 100 100 86 62 94 100 100 100 100 100 100 100 100 100 100 100 100 100 100 100 100 100 100 100 100 100 100 100 100 100 100 100
100 100 100 100 100 100 100 100 100 100 100 100 100 91 96 100 100 100 100 100 100 100 100 100 100 100 100 100 100 100 100 100 100 100 100 100 100 100 100 100 100 100 100
100 100 100 100 100 100 100 100 100 100 100 100 100 100 100 100 100 100 100 100 99 98 91 49 94 96 98 100 100 100 100 100 100 100 100 100 100 100 100 100 100 100 100
100 100 100 100 100 96 100 100 100 100 100 100 100 100 100 100 100 100 95 78 39 80 92 100 98 79 72 73 99 100 100 100 100 100 100 100 100 100 100 100 100 100 100
100 100 100 100 100 100 100 100 98 100 92 100 100 100 99 98 95 98 87 91 97 99 96 93 100 99 95 82 72 84 100 100 100 100 100 100 100 100 100 100 100 100 100
100 100 100 100 100 100 100 100 98 92 88 80 66 64 66 57 80 98 100 100 100 100 100 100 100 90 81 81 98 100 100 100 100 100 100 100 100 100 100 100 100 100 100

GFSGL_prec_cloud_087.txt.gz
Cloud_Cover
100 100 79 94 100 100 100 100 100 100 100 100 100 100 100 100 100 100 100 100 100 100 100 100 100 100 100 94 69 95 100 100 100 100 100 100 100 100 100 100 100 100 100
15 51 100 83 100 100 27 38 100 98 100 100 100 100 100 100 100 100 100 100 100 100 100 100 100 70 98 84 100 100 100 100 100 100 100 83 100 100 100 100 100 100 100
0 2 10 75 100 42 88 99 100 58 45 62 100 100 100 100 100 100 100 100 100 100 100 100 94 86 100 100 100 100 100 100 100 100 100 100 100 100 100 100 100 100 100
0 0 0 0 4 8 36 82 88 83 74 72 95 100 100 100 100 99 78 54 43 86 59 90 97 100 100 100 100 100 100 100 100 100 100 100 100 100 100 100 100 100 100
5 2 0 0 0 7 25 96 100 100 100 63 82 10 37 62 20 19 21 35 18 5 31 91 100 100 100 100 100 100 100 100 100 100 100 100 100 100 100 100 100 100 100
85 5 5 0 0 0 0 0 0 21 43 11 21 6 64 32 7 78 27 45 90 100 100 100 100 100 100 99 100 100 100 100 100 100 100 100 100 100 100 100 100 100 100
100 100 17 5 5 0 0 0 3 21 14 0 5 14 41 43 100 100 100 100 100 100 100 100 100 100 100 100 100 100 100 100 100 100 100 100 100 100 100 100 100 96 96
100 100 100 100 54 4 1 0 0 0 2 38 62 59 59 97 100 100 100 100 100 100 100 100 100 100 100 100 100 100 100 100 100 100 100 100 100 100 100 100 100 100 100
100 100 100 100 100 100 42 6 20 41 68 100 100 100 100 100 100 100 100 100 100 100 100 100 100 100 100 100 100 100 100 100 100 100 100 100 100 95 100 100 100 100 100
100 100 100 100 100 100 100 100 100 81 99 100 100 100 100 100 100 100 100 100 100 100 100 100 100 100 100 100 100 100 100 100 100 100 100 100 100 100 100 100 100 100 100
71 100 100 100 100 100 100 100 100 100 100 100 100 100 100 100 100 100 100 100 100 100 100 100 100 100 100 100 100 100 100 100 100 100 100 100 100 100 100 100 100 100 100
100 100 100 100 100 100 100 100 100 100 100 100 100 100 100 100 100 100 100 100 100 100 100 100 100 100 100 100 100 100 100 100 100 100 100 100 100 100 100 100 100 100 100
100 100 100 100 100 100 100 100 100 100 100 100 100 100 100 100 100 100 100 100 100 100 100 100 100 100 100 100 100 100 100 100 100 100 100 100 100 100 100 100 100 100 100
100 100 100 100 100 100 100 100 100 100 100 100 100 100 100 100 100 100 100 100 100 100 100 100 100 100 100 100 100 100 100 100 100 100 100 100 100 100 100 100 100 100 100
100 100 100 100 100 100 100 100 100 100 100 100 100 100 100 100 100 100 100 100 100 100 100 100 100 100 100 100 100 100 100 100 100 100 100 100 100 100 100 100 100 100 100
100 100 100 100 100 100 100 100 100 100 100 100 100 100 100 100 100 100 100 100 100 100 100 99 100 100 100 100 100 100 100 100 100 100 100 100 100 100 100 100 100 100 100
100 100 100 100 100 100 100 100 100 100 100 100 100 100 100 100 100 100 100 100 100 100 100 100 100 99 100 100 100 100 100 100 100 100 100 100 100 100 100 100 100 100 100
100 100 100 100 100 100 100 100 100 100 100 100 100 100 100 100 100 100 100 100 100 100 100 100 100 100 100 100 100 100 100 100 100 100 100 100 100 100 100 100 100 100 100
100 100 100 100 100 100 100 100 100 100 100 100 100 100 100 100 100 100 100 100 100 100 100 100 100 100 100 100 100 100 100 100 100 100 100 100 100 100 100 100 100 100 100
100 100 100 100 100 100 100 100 100 100 100 100 100 100 100 100 100 100 100 100 100 100 100 100 100 100 100 100 100 100 100 100 100 100 100 100 100 100 100 100 100 100 100
100 100 100 100 100 100 100 100 100 100 100 100 100 100 100 100 100 100 100 100 100 100 100 100 100 100 100 100 100 100 100 100 100 100 100 100 100 100 100 100 100 100 100
100 100 100 100 100 100 100 100 100 100 100 100 100 100 100 100 100 100 100 100 100 100 100 100 100 100 100 100 100 100 100 100 100 100 100 100 100 100 100 100 100 100 100
100 100 100 100 100 100 100 100 100 100 100 100 100 100 100 100 100 100 100 100 100 100 100 100 100 100 100 100 100 100 100 100 100 100 100 100 100 100 100 100 100 100 100
100 100 100 100 100 100 100 100 100 100 100 100 100 100 100 100 100 100 100 100 100 100 100 100 100 100 100 100 100 100 100 100 100 100 100 100 100 100 100 100 100 100 100
100 99 100 100 100 100 100 100 100 100 100 100 100 100 100 100 100 100 100 100 100 100 100 100 100 100 100 100 100 100 100 100 100 100 100 100 100 100 100 100 100 100 100
100 99 100 100 100 100 100 100 100 100 100 100 100 100 100 100 100 100 100 100 100 100 100 100 100 100 100 100 100 100 100 100 100 100 100 100 100 100 100 100 100 100 100

GFSGL_prec_cloud_093.txt.gz
Cloud_Cover
100 100 100 100 100 100 100 100 100 100 100 100 100 100 100 100 100 100 100 100 100 100 100 100 100 100 100 76 100 100 100 86 89 100 100 100 99 100 91 75 77 62 96
100 100 100 100 100 100 100 100 100 83 100 100 100 100 100 100 100 100 100 100 100 100 100 100 100 100 100 89 100 100 77 100 99 98 34 77 93 100 40 100 98 100 100
100 100 100 100 100 100 76 43 100 100 97 60 90 98 100 100 100 100 100 100 100 100 100 100 100 100 100 100 100 100 100 95 94 100 96 99 100 97 100 100 100 100 100
92 100 100 100 100 100 83 16 3 64 89 94 99 99 100 100 100 100 100 53 12 34 99 100 100 100 100 100 100 100 57 70 100 100 100 100 100 100 100 100 100 100 100
3 96 100 100 100 100 100 44 20 17 0 5 4 34 80 35 43 16 54 81 96 75 80 13 97 100 96 77 66 35 82 100 100 100 100 100 100 100 100 91 100 100 100
100 4 91 100 100 100 100 100 100 45 10 18 0 0 3 5 5 5 85 95 54 66 80 100 98 100 100 100 100 100 100 100 100 100 100 100 100 100 100 100 100 100 100
45 36 6 79 41 99 100 100 100 99 81 36 100 95 7 5 4 5 45 70 51 73 100 100 100 100 100 100 100 100 100 100 100 100 100 100 100 100 100 100 100 100 100
43 5 5 5 22 92 97 100 100 100 100 100 100 100 100 99 100 98 84 100 100 100 100 100 100 100 100 100 100 100 100 100 100 100 100 100 100 100 87 98 96 96 77
64 88 94 100 10 25 98 100 100 100 100 100 100 100 100 100 100 100 100 100 100 100 100 100 100 100 100 100 100 100 100 100 100 100 100 100 100 100 92 96 95 99 80
100 98 78 100 98 100 100 100 100 100 99 100 100 100 100 100 100 100 100 100 100 100 100 100 100 100 100 100 100 100 100 100 100 100 100 100 100 100 97 100 100 100 100
99 100 99 100 99 100 100 100 100 100 100 100 100 100 100 100 100 100 100 100 100 100 100 100 100 100 100 100 100 100 100 100 100 100 100 100 100 100 99 97 100 100 100
100 100 100 100 100 100 100 100 100 100 100 100 100 100 100 100 100 100 100 100 100 100 100 100 100 100 100 100 100 100 100 100 100 100 100 100 100 100 85 100 100 91 71
100 100 100 100 100 100 100 100 100 100 100 100 100 100 100 100 100 100 100 100 100 100 100 100 100 100 100 100 100 100 100 100 100 100 100 100 100 100 100 100 100 100 100
100 100 100 100 100 100 100 100 100 100 100 100 100 100 100 100 100 100 100 100 100 100 100 100 100 100 100 100 100 100 100 100 100 100 100 100 100 100 100 100 100 100 100
100 100 100 100 100 100 100 100 100 100 100 100 100 100 100 100 100 100 100 100 100 100 100 100 100 100 100 100 100 100 100 100 100 100 100 100 100 100 100 100 100 99 100
100 100 100 100 100 100 100 100 100 100 100 100 100 100 100 100 100 100 100 100 100 100 100 100 100 100 100 100 100 100 100 100 100 100 100 100 100 100 100 100 100 100 100
100 100 100 100 100 100 100 100 100 100 100 100 100 100 100 100 100 100 100 100 100 100 100 100 100 100 100 100 100 100 100 100 100 100 100 100 100 100 100 100 100 100 100
100 100 100 100 100 100 100 100 100 100 100 100 100 100 100 100 100 100 100 100 100 100 100 100 100 100 100 100 100 100 100 100 97 100 100 100 100 100 100 100 88 100 56
100 100 100 100 100 100 100 100 100 100 100 100 100 100 100 100 100 100 100 100 100 100 100 100 100 100 100 100 100 100 100 97 100 100 100 100 100 100 89 78 15 50 24
100 100 100 100 100 100 100 100 100 100 100 100 100 100 100 100 100 100 100 100 100 100 100 100 100 100 100 100 100 100 93 100 100 84 94 100 65 32 24 32 29 93 99
97 100 100 100 100 100 100 100 100 100 100 100 100 100 100 100 100 100 100 100 100 100 100 100 100 100 100 99 32 99 100 100 91 62 57 96 81 45 10 16 56 60 84
100 100 100 100 100 100 100 100 100 100 100 100 100 100 100 100 100 100 100 100 90 40 14 53 98 100 100 100 100 98 95 99 91 78 38 26 21 29 42 43 34 76 96
100 100 100 100 100 100 100 100 100 100 100 100 100 100 100 100 100 100 100 100 100 100 100 100 100 100 100 78 43 18 12 51 90 81 100 98 15 5 37 88 100 100 100
100 100 100 100 100 100 100 100 100 100 100 100 100 100 100 100 100 100 94 100 100 100 92 72 100 96 11 8 5 5 5 74 34 28 24 56 51 71 100 100 97 98 100
100 100 100 100 100 100 100 100 100 95 42 99 97 99 100 99 96 97 100 100 92 86 93 100 81 7 5 5 56 74 69 97 16 5 6 62 93 90 100 100 100 100 99
100 100 100 100 100 100 96 100 100 97 100 100 100 100 100 100 100 100 80 65 17 28 10 24 40 62 38 21 100 100 63 22 70 71 79 85 100 100 100 100 99 100 100

GFSGL_prec_cloud_096.txt.gz
Cloud_Cover
96 26 83 30 47 77 97 100 100 100 100 100 100 100 100 100 100 100 100 100 100 100 100 100 100 100 100 100 100 100 100 100 100 100 89 100 100 100 100 100 90 100 100
100 36 100 100 98 90 100 100 100 95 99 100 100 100 100 100 100 100 100 100 100 100 100 100 100 100 100 100 100 100 100 100 100 100 100 100 100 100 99 91 44 97 100
28 62 99 100 100 100 100 100 100 100 100 100 100 100 100 100 100 100 100 100 100 100 100 100 100 100 100 100 94 77 100 100 100 99 95 87 100 100 97 100 100 100 100
5 30 89 100 100 100 100 100 100 100 89 89 100 100 100 100 100 100 100 100 100 100 100 100 100 100 84 82 70 64 84 47 72 97 100 100 100 100 100 100 100 100 100
26 6 34 100 100 100 100 100 100 100 30 1 1 16 79 100 100 100 100 98 99 99 100 100 100 88 100 72 32 90 69 87 89 100 100 100 100 100 100 100 93 99 100
30 5 5 91 100 100 100 100 100 95 96 100 36 5 5 2 0 5 26 24 51 95 82 100 100 100 100 100 100 100 100 100 100 100 100 100 100 100 100 100 100 100 100
100 100 12 5 10 88 100 100 100 100 100 100 100 97 18 10 5 5 5 21 39 60 99 100 100 100 100 100 100 100 100 100 100 100 100 100 100 100 100 100 100 100 100
100 100 100 56 31 42 47 94 100 100 100 100 100 99 100 100 96 82 63 100 100 100 100 100 100 100 100 100 100 100 100 100 100 100 100 100 100 100 100 100 87 55 98
100 100 100 100 100 90 100 100 100 100 100 100 100 48 98 100 100 100 100 100 100 100 100 100 100 100 100 100 100 100 100 100 100 100 100 100 100 100 100 100 100 100 100
87 97 100 100 100 100 100 100 100 100 100 100 100 100 100 100 100 100 100 100 100 100 100 100 100 100 100 100 100 100 100 100 100 100 100 100 100 100 100 100 100 100 100
100 100 100 100 100 100 100 100 100 100 100 100 100 100 100 100 100 100 100 100 100 100 100 100 100 100 100 100 100 100 100 100 100 100 100 100 100 100 100 100 100 100 100
100 100 100 100 100 100 100 100 100 100 100 100 100 100 100 100 100 100 100 100 100 100 100 100 100 100 100 100 100 100 100 100 100 100 100 100 100 100 100 100 100 100 100
100 100 100 100 100 100 100 100 100 100 100 100 100 100 100 100 100 100 100 100 100 100 100 100 100 100 100 100 100 100 100 100 100 100 100 100 100 100 100 100 100 100 100
100 100 100 100 100 100 100 100 100 100 100 100 100 100 100 100 100 100 100 100 100 100 100 100 100 100 100 100 100 100 100 100 100 100 100 100 100 100 100 100 100 100 100
100 100 100 100 100 100 100 100 100 100 100 100 100 100 100 100 100 100 100 100 100 100 100 100 100 100 100 100 100 100 100 100 100 100 100 100 100 100 100 100 100 100 100
68 100 100 100 100 99 96 100 100 100 100 100 100 100 100 100 100 100 100 100 100 100 100 100 100 100 100 100 100 100 100 100 100 100 100 100 100 100 100 100 100 100 100
100 100 86 100 100 100 100 98 100 100 100 100 100 100 100 100 100 100 100 100 100 100 100 100 100 100 100 100 100 100 100 100 100 100 100 100 100 100 96 98 100 95 100
97 98 96 94 100 100 100 100 100 100 100 100 100 100 100 100 100 100 100 100 100 100 100 100 100 100 100 100 100 100 100 100 100 100 100 97 100 100 90 58 100 100 99
100 100 100 99 100 100 94 97 100 100 100 100 100 100 100 100 100 100 100 100 100 100 100 100 100 100 100 100 100 100 100 100 87 100 100 100 97 100 100 93 54 34 35
100 100 91 98 99 100 97 99 100 100 100 100 100 100 100 100 100 100 100 100 100 100 100 100 100 100 100 100 100 100 100 100 84 99 100 100 100 63 50 78 80 90 87
100 100 100 100 100 99 100 100 100 100 100 100 100 100 100 100 100 100 100 100 100 100 100 100 100 100 100 100 100 100 100 100 94 28 8 50 99 69 100 69 97 25 86
100 99 100 100 100 100 100 100 100 100 100 100 100 100 100 100 100 100 100 100 100 100 98 90 71 100 100 100 86 58 100 100 100 100 99 100 100 89 64 10 44 73 60
100 100 100 100 100 99 100 100 100 100 100 100 100 100 100 100 100 100 100 100 100 100 100 100 100 100 100 98 55 73 100 100 100 100 82 82 55 37 86 100 70 45 54
100 100 100 100 100 100 100 100 100 100 100 100 100 100 94 100 100 100 100 100 100 100 98 100 100 49 85 87 97 94 86 100 100 23 30 59 57 52 82 78 69 79 99
100 100 100 100 100 100 100 91 100 100 100 100 100 100 98 100 100 100 100 100 99 100 100 98 84 16 18 85 92 90 100 90 18 76 72 83 100 100 97 99 96 94 97
97 98 100 100 100 100 99 100 100 100 100 100 100 98 98 99 99 97 87 62 99 100 99 12 54 79 55 67 86 81 88 97 53 6 21 94 100 100 94 99 90 100 100

GFSGL_prec_cloud_099.txt.gz
Cloud_Cover
100 58 11 14 2 6 1 100 97 99 100 100 100 100 100 100 100 100 100 100 100 100 100 100 100 100 100 100 100 100 100 100 100 100 100 100 100 100 100 100 100 100 100
100 91 8 26 2 4 16 6 96 68 100 100 100 100 100 100 100 100 100 100 100 100 100 100 100 100 100 100 100 100 100 100 100 100 100 100 100 100 100 100 100 81 86
100 100 24 5 11 0 3 5 92 97 4 95 100 100 100 100 100 100 100 100 100 100 100 100 100 100 100 100 100 100 100 100 100 100 100 100 100 88 100 84 90 100 100
100 100 54 5 5 1 0 2 66 100 86 2 52 100 100 100 100 100 100 100 100 100 100 100 100 100 100 100 100 100 100 100 100 100 100 100 100 95 100 100 100 100 100
100 100 100 15 16 5 2 21 64 100 100 94 39 5 73 100 100 100 100 100 100 100 100 100 100 100 100 98 94 100 100 90 73 97 100 100 100 100 100 100 100 100 100
100 100 100 100 49 5 10 67 53 100 100 100 100 100 98 8 0 4 5 27 58 90 98 95 100 100 100 100 100 100 100 100 100 100 100 100 100 100 100 100 100 100 100
100 100 100 100 100 78 100 100 100 100 100 100 100 89 60 40 8 11 5 5 5 6 5 17 100 100 100 100 100 100 100 100 100 100 100 100 100 100 100 100 100 100 100
100 100 100 100 100 100 100 100 100 100 100 100 100 98 37 5 5 6 9 17 28 25 20 58 99 100 100 100 100 100 100 100 100 100 100 100 100 100 100 100 100 100 100
100 100 100 100 100 100 100 100 100 100 100 100 100 100 100 74 35 31 79 90 97 88 100 100 100 100 100 100 100 100 100 100 100 100 100 100 100 100 100 100 100 100 100
100 100 100 100 100 100 100 100 100 100 100 100 100 100 100 100 100 100 100 100 100 100 100 100 100 100 100 100 100 100 100 100 100 100 100 100 100 100 100 100 100 100 100
100 100 100 100 100 100 100 100 100 100 100 100 100 100 100 100 100 100 100 100 100 100 100 100 100 100 100 100 100 100 100 100 100 100 100 100 100 100 100 100 100 100 100
100 100 100 100 100 100 100 100 100 100 100 100 100 100 100 100 100 100 100 100 100 100 100 100 100 100 100 100 100 100 100 100 100 100 100 100 100 100 100 100 100 100 100
100 100 100 100 100 100 100 100 100 100 100 100 100 100 100 100 100 100 100 100 100 100 100 100 100 100 100 100 100 100 100 100 100 100 100 100 100 100 100 100 100 100 100
100 100 100 100 100 100 100 100 100 100 100 100 100 100 100 100 100 100 100 100 100 100 100 100 100 100 100 100 100 100 100 100 100 100 100 100 100 100 100 100 100 100 100
100 100 100 100 100 100 100 100 100 100 100 100 100 100 100 100 100 100 100 100 100 100 100 100 100 100 100 100 100 100 100 100 100 100 100 100 100 100 100 100 100 100 100
99 100 100 100 100 100 100 100 100 100 100 100 100 100 100 100 100 100 100 100 100 100 100 100 100 100 100 100 100 100 100 100 100 100 100 100 100 100 100 100 100 100 99
89 97 97 100 100 100 100 100 100 100 99 100 100 100 100 100 100 100 100 100 100 100 100 100 100 100 100 100 100 100 100 100 100 100 100 100 100 100 100 96 100 100 100
93 95 98 100 100 100 100 100 100 100 100 100 100 100 100 100 100 100 100 100 100 100 100 100 100 100 100 100 100 100 100 100 100 100 100 100 100 100 100 100 100 100 100
100 100 100 100 100 100 99 100 100 92 92 100 100 100 100 100 100 100 100 100 100 100 100 100 100 100 100 100 100 100 100 100 100 100 100 100 100 100 100 100 100 89 57
100 98 100 99 100 100 100 100 100 100 93 100 100 100 100 100 100 100 100 100 100 100 100 100 100 100 100 100 100 100 100 100 100 100 100 71 78 100 100 96 82 76 92
100 100 100 100 100 100 94 100 100 93 100 100 100 98 85 76 100 100 100 100 96 100 100 100 100 100 100 58 100 100 100 100 100 100 100 88 92 36 16 89 99 98 100
100 100 100 98 100 100 100 100 97 99 100 100 100 100 100 89 98 100 100 100 100 100 100 100 100 100 100 100 100 100 100 100 100 100 100 100 100 93 100 100 100 96 86
100 100 100 100 100 97 100 100 100 100 99 92 100 98 99 93 96 97 100 100 100 100 99 100 100 100 100 100 100 100 100 100 100 100 100 100 100 100 78 96 68 63 35
100 100 89 97 96 93 91 96 94 98 99 90 95 100 100 100 100 100 100 100 100 97 91 82 75 96 48 54 92 56 100 100 100 100 81 87 90 22 63 79 8 25 93
92 95 99 98 100 100 91 78 99 100 100 99 100 99 100 100 100 90 100 100 89 94 100 85 86 64 97 92 91 66 52 96 72 91 94 99 100 100 100 100 94 86 60
90 100 99 99 96 99 100 100 99 96 94 94 100 100 100 100 100 100 100 97 87 100 100 87 81 85 99 53 96 98 100 92 48 6 23 55 100 100 99 100 96 98 93

GFSGL_prec_cloud_102.txt.gz
Cloud_Cover
99 100 100 54 21 0 1 20 30 86 100 100 100 100 100 100 100 100 100 100 100 100 100 100 100 100 100 100 100 100 100 100 100 100 100 100 100 100 100 100 100 100 100
100 100 100 36 11 1 17 23 23 11 98 100 100 100 100 100 100 100 100 100 100 100 100 100 100 100 100 100 100 100 100 100 100 100 100 100 100 100 100 100 100 100 100
100 100 100 59 36 18 2 21 1 7 2 88 100 100 100 100 100 100 100 100 100 100 100 100 100 100 100 100 100 100 100 100 100 100 100 100 100 100 100 100 100 100 100
100 100 100 98 68 26 5 5 0 2 52 37 56 93 100 100 100 100 100 100 100 100 100 100 100 100 100 100 100 100 100 100 100 100 100 100 100 100 100 100 100 100 100
100 100 100 100 69 12 5 5 5 1 47 99 68 38 78 58 93 100 100 100 100 100 100 100 100 100 100 100 100 100 100 100 100 100 100 100 100 100 100 100 100 100 100
100 100 100 100 97 99 21 5 6 14 48 100 100 99 100 52 6 5 20 100 100 100 100 100 100 100 100 100 100 100 100 100 100 100 100 100 100 100 100 100 100 100 100
100 100 100 100 100 100 100 100 100 100 100 100 100 100 100 84 92 99 73 36 24 16 26 19 74 100 99 100 100 100 100 100 100 100 100 100 100 100 100 100 100 100 100
100 100 100 100 100 100 100 100 100 100 100 100 100 100 100 100 100 100 96 100 100 100 99 99 88 99 100 100 100 100 100 100 100 100 100 100 100 100 100 100 100 100 100
100 100 100 100 100 100 100 96 100 98 100 100 100 99 100 100 100 100 100 100 100 70 95 79 56 99 100 100 100 100 100 100 100 100 100 100 100 100 100 100 100 100 100
100 100 100 100 100 100 100 100 100 100 98 100 92 100 100 100 100 100 100 100 100 100 100 100 100 100 100 100 100 100 100 100 100 100 100 100 100 100 100 100 100 100 100
100 100 100 100 100 100 100 100 100 100 100 100 100 100 100 100 100 100 100 100 100 100 100 100 100 100 100 100 100 100 100 100 100 100 100 100 100 100 100 100 100 100 100
100 100 100 100 100 100 100 100 100 100 100 100 100 100 100 100 100 100 100 100 100 100 100 100 100 100 100 100 100 100 100 100 100 100 100 100 100 100 100 100 100 100 100
100 100 100 100 100 100 100 100 100 100 100 100 100 100 100 100 100 100 100 100 100 100 100 100 100 100 100 100 100 100 100 100 100 100 100 100 100 100 100 100 100 100 100
100 100 100 100 100 100 100 100 100 100 100 100 100 100 100 100 100 100 100 100 100 100 100 100 100 100 100 100 100 100 100 100 100 100 100 100 100 100 100 100 100 100 100
98 100 100 100 100 100 100 100 100 100 100 100 100 100 100 100 100 100 100 100 100 100 100 100 100 100 100 100 100 100 100 100 100 100 100 100 100 100 100 100 100 100 100
83 99 100 100 100 100 100 100 100 100 100 100 100 100 100 100 100 100 100 100 100 100 100 100 100 100 100 100 100 100 100 100 100 100 100 100 100 100 100 100 100 100 100
100 100 100 100 100 100 100 100 100 100 100 100 100 100 100 100 100 100 100 100 100 100 100 100 100 100 100 100 100 100 100 100 100 100 100 100 100 100 100 100 100 100 100
98 100 100 100 98 80 98 100 100 100 100 100 100 100 100 100 100 97 89 93 82 90 100 100 100 100 100 100 100 100 100 100 100 100 100 100 100 100 100 98 100 80 98
100 100 100 98 99 95 100 100 96 100 100 100 100 89 100 100 100 100 98 79 87 92 71 87 99 100 100 100 100 100 100 100 100 100 100 100 100 100 100 100 100 100 100
100 100 86 88 85 90 92 92 97 100 100 100 100 100 97 33 39 96 94 100 87 94 94 90 93 95 100 100 100 100 100 100 100 100 100 100 100 100 100 100 100 100 100
96 100 100 100 100 100 100 100 100 100 100 100 100 100 96 100 100 100 90 94 86 98 100 98 69 99 100 100 100 100 100 100 100 100 100 100 100 100 100 100 99 86 56
84 89 93 100 100 100 100 98 96 95 100 100 100 100 100 100 95 99 99 97 100 93 100 97 100 99 100 100 96 96 99 87 77 93 45 56 39 34 5 18 12 9 22
88 100 100 100 100 100 100 100 99 93 91 87 88 94 98 89 96 94 98 100 100 99 92 89 73 68 91 97 100 100 77 86 9 5 5 6 5 23 46 74 62 26 19
96 100 100 100 100 100 100 100 91 92 100 100 99 98 98 93 88 99 100 97 77 74 100 99 84 87 87 72 84 96 70 65 25 26 58 48 22 59 55 60 48 25 51
79 80 88 99 99 97 100 100 100 99 100 98 100 100 90 97 100 100 100 100 92 88 88 77 74 96 100 100 88 98 100 100 99 91 94 86 94 100 81 77 78 74 48
88 86 85 100 92 88 76 82 79 68 78 95 100 100 100 100 100 100 100 97 100 100 97 100 100 100 100 100 100 100 100 71 44 40 19 10 70 68 85 98 79 90 90

GFSGL_prec_cloud_105.txt.gz
Cloud_Cover
100 100 89 100 64 64 65 100 97 49 88 97 100 100 100 100 100 100 100 100 100 100 100 100 100 100 100 100 100 100 100 100 100 100 100 100 100 100 100 100 100 100 100
100 100 99 100 90 76 73 86 90 54 81 100 100 100 100 100 100 100 100 100 100 100 100 100 100 100 100 99 100 100 100 100 100 100 100 100 100 100 100 100 100 100 90
100 100 100 100 100 92 84 89 83 71 100 100 100 100 100 100 100 100 100 100 100 100 100 100 100 100 100 100 100 100 100 100 100 100 100 100 100 100 100 100 100 100 100
100 100 100 100 96 80 100 91 79 74 89 100 100 100 100 100 100 100 100 100 100 100 100 100 100 100 100 100 100 100 100 100 100 100 100 100 100 100 100 100 100 100 100
100 100 100 100 100 100 100 100 60 62 60 73 100 100 100 100 100 100 100 100 100 100 100 100 100 100 100 100 100 100 100 100 100 100 100 100 100 100 100 100 100 100 100
100 100 100 100 100 100 100 100 96 96 99 61 100 100 100 100 100 100 100 100 100 100 100 100 100 100 100 100 100 100 100 100 100 100 100 100 100 100 100 100 100 100 100
100 100 100 100 100 100 100 100 100 99 92 38 96 100 100 100 75 33 87 100 100 100 100 100 100 100 100 100 100 100 100 100 100 100 100 100 100 100 100 100 100 100 100
100 100 100 100 100 100 100 100 100 100 100 100 100 100 100 100 100 100 64 47 78 79 73 81 99 100 100 100 100 100 100 100 100 100 100 100 100 100 100 100 100 100 100
100 100 100 100 100 100 100 100 100 100 100 100 100 100 100 100 100 100 100 100 77 60 67 56 50 94 100 100 100 100 100 100 100 100 100 100 100 100 100 100 100 100 100
100 100 100 100 100 100 100 100 100 100 100 100 100 100 100 100 100 100 100 100 100 100 100 100 100 100 100 100 100 100 100 100 100 100 100 100 100 100 100 100 100 100 100
100 100 100 100 100 100 100 100 100 100 100 100 100 100 100 100 100 100 100 100 100 100 100 100 100 100 100 100 100 100 100 100 100 100 100 100 100 100 100 100 100 100 100
100 100 100 100 100 100 100 100 100 100 100 100 100 100 100 100 100 100 100 100 100 100 100 100 100 100 100 100 100 100 100 100 100 100 100 100 100 100 100 100 100 100 100
100 100 100 100 100 100 100 100 100 100 100 100 100 100 100 100 100 100 100 100 100 100 100 100 100 100 100 100 100 100 100 100 100 100 100 100 100 100 100 100 100 100 100
100 100 100 100 100 100 100 100 100 100 100 100 100 100 100 100 100 100 100 100 100 100 100 100 100 100 100 100 100 100 100 100 100 100 100 100 100 100 100 100 100 100 100
100 100 100 100 100 100 100 100 100 100 100 100 100 100 100 100 100 100 100 100 100 100 100 100 100 100 100 100 100 100 100 100 100 100 100 100 100 100 100 100 100 100 100
81 99 100 100 100 100 100 100 100 100 100 100 100 100 100 100 100 100 97 100 100 87 68 86 100 100 100 100 100 99 100 100 100 100 100 100 100 100 100 100 100 100 100
100 100 100 100 100 100 100 100 100 100 100 100 100 100 97 100 100 100 100 100 100 100 88 100 100 100 94 97 77 87 100 100 100 100 100 100 100 100 100 100 100 100 100
99 98 100 100 99 97 100 100 100 100 100 100 100 100 100 100 100 100 92 77 84 100 100 100 98 86 50 72 75 86 83 48 14 71 100 100 100 100 100 100 100 100 100
100 97 100 98 100 100 100 100 100 100 100 100 100 93 99 100 100 99 95 96 97 99 98 85 100 96 91 95 100 87 75 80 100 100 100 84 100 100 100 100 100 88 84
100 100 100 100 100 100 100 100 100 100 100 100 100 100 97 53 47 85 89 98 100 100 100 100 100 100 100 99 99 88 83 98 97 100 100 100 96 72 69 78 51 87 97
100 100 96 100 100 100 100 100 100 100 100 100 100 100 65 60 82 82 100 95 100 100 100 100 100 98 99 96 84 94 85 100 87 34 87 97 98 100 73 91 99 55 7
100 100 100 100 100 100 100 100 100 96 72 68 87 96 94 94 96 99 100 100 100 100 100 96 100 100 100 100 100 91 96 89 64 68 38 60 62 76 40 65 84 92 81
100 100 100 100 100 99 97 89 84 80 81 82 68 74 79 97 100 95 100 100 99 97 95 100 100 99 100 100 100 97 82 92 98 94 87 88 78 74 80 87 90 99 94
100 100 100 100 100 100 94 81 72 68 62 83 85 84 88 100 100 100 100 100 100 100 100 98 81 78 77 100 100 100 100 100 100 99 96 96 94 73 81 75 94 100 100
100 100 100 99 99 99 90 77 75 76 70 77 77 79 84 88 99 100 100 100 99 100 100 100 100 100 100 100 100 100 94 98 85 56 100 99 98 83 85 93 100 100 100
100 100 96 87 84 83 74 80 84 95 82 83 98 100 96 79 81 94 97 92 75 91 99 100 90 76 96 100 100 95 89 33 58 5 29 88 99 100 100 100 100 100 100

GFSGL_prec_cloud_108.txt.gz
Cloud_Cover
100 100 100 100 94 70 76 91 84 33 97 70 98 100 100 100 100 100 100 100 100 100 100 100 100 100 100 100 100 100 100 100 100 100 100 100 100 100 100 100 94 74 100
100 100 100 100 87 100 100 100 98 51 100 86 59 88 100 100 100 100 100 100 100 100 100 100 100 100 100 100 100 100 100 100 100 100 100 100 100 100 100 100 98 100 100
100 100 100 100 100 100 100 100 100 51 99 86 76 96 100 100 100 100 100 100 100 100 100 100 100 100 100 100 100 100 100 100 100 100 100 100 100 100 100 100 100 100 100
100 100 100 100 100 100 100 100 100 78 99 98 100 94 95 100 100 100 100 100 100 100 100 100 100 100 100 100 100 100 100 100 100 100 100 100 100 100 100 100 100 100 100
100 100 100 100 100 100 100 100 100 100 100 88 100 100 100 98 100 100 100 100 100 100 100 100 100 100 100 100 100 100 100 100 100 100 100 100 100 100 100 100 100 100 100
100 100 100 100 100 100 100 100 100 100 100 100 90 100 100 79 96 100 100 100 100 100 100 100 100 100 100 100 100 100 100 100 100 100 100 100 100 100 100 100 100 100 100
100 100 100 100 100 100 100 100 100 100 100 100 100 100 100 100 96 73 100 100 100 100 100 100 100 100 100 100 100 100 100 100 100 100 100 100 100 100 100 100 100 100 100
100 100 100 100 100 100 100 100 100 100 100 100 100 100 100 100 100 100 96 100 100 100 100 100 100 100 100 100 100 100 100 100 100 100 100 100 100 100 100 100 100 100 100
100 100 100 100 100 100 100 100 100 100 100 100 100 100 100 100 100 100 100 100 100 100 100 100 91 100 100 100 100 100 100 100 100 100 100 100 100 100 100 100 100 100 100
100 100 100 100 100 100 100 100 100 100 100 100 100 100 100 100 100 100 100 100 100 100 100 100 100 90 100 100 100 100 100 100 100 100 100 100 100 100 100 100 100 100 100
100 100 100 100 100 100 100 100 100 100 100 100 100 100 100 100 100 100 100 100 100 100 100 100 100 100 100 100 100 100 100 100 100 100 100 100 100 100 100 100 100 100 100
100 100 100 100 100 100 100 100 100 100 100 100 100 100 100 100 100 100 100 100 100 100 100 100 100 100 100 100 100 100 100 100 100 100 100 100 100 100 100 100 100 100 100
100 100 100 100 100 100 100 100 100 100 100 100 100 100 100 100 100 100 100 100 100 100 100 100 100 100 100 100 100 100 100 100 100 100 100 100 100 100 100 100 100 100 100
100 100 100 100 100 100 100 100 100 100 100 100 100 100 100 100 100 100 100 100 100 100 100 100 100 100 100 100 100 100 100 100 100 100 100 100 100 100 100 100 100 100 100
100 100 100 100 100 100 100 100 100 100 100 100 100 100 100 100 100 100 100 100 100 100 100 100 100 100 100 100 100 100 100 100 100 100 100 100 100 100 98 100 100 100 100
100 100 100 100 100 100 100 100 100 100 100 100 100 100 100 100 100 100 100 94 94 99 99 100 100 100 100 100 100 100 100 100 100 100 87 59 93 100 100 100 99 97 100
100 100 100 100 100 100 100 100 100 100 100 100 100 100 100 100 100 100 100 95 91 82 100 100 100 100 100 99 95 71 60 100 100 100 91 68 88 89 87 82 74 75 64
100 100 100 100 100 100 100 100 100 100 100 100 100 100 100 100 100 100 98 96 77 95 99 99 94 95 75 10 46 46 6 54 90 100 80 84 61 45 61 40 32 69 24
100 100 100 100 100 100 100 100 100 100 100 100 100 100 100 100 100 93 94 92 84 71 73 78 62 36 22 98 82 88 82 77 69 99 94 99 87 15 27 17 18 5 5
100 100 100 100 100 100 100 100 100 100 100 100 100 100 100 94 98 98 99 92 49 33 74 85 37 56 68 84 97 83 75 96 100 100 100 100 100 89 71 68 98 90 13
100 100 100 100 100 100 100 100 100 100 100 100 100 99 78 76 65 79 85 92 72 85 89 79 100 100 99 96 80 78 100 100 100 84 93 100 100 100 100 100 100 60 5
100 100 100 100 100 100 100 100 100 99 96 92 86 82 95 94 88 98 100 100 100 100 100 100 98 100 96 95 100 100 100 100 100 100 98 98 98 99 100 98 100 100 100
100 100 100 100 100 100 100 98 100 91 84 82 71 82 89 99 99 100 100 100 100 100 100 100 99 98 100 100 100 100 100 100 100 100 100 100 100 100 100 100 100 100 100
100 100 100 100 100 99 93 93 85 73 88 97 100 100 100 100 100 100 100 100 100 100 100 100 100 98 99 100 100 100 100 100 100 100 100 100 100 94 100 100 100 100 100
100 100 100 100 97 91 92 90 98 99 99 99 100 100 100 100 100 100 100 100 100 100 100 100 100 100 100 100 100 100 100 100 92 65 100 100 100 94 100 97 100 100 100
98 100 100 100 100 100 99 99 100 100 100 100 100 100 100 100 100 100 97 96 100 98 100 100 100 99 100 100 99 100 100 98 79 10 70 100 100 100 100 100 100 100 100

GFSGL_prec_cloud_111.txt.gz
Cloud_Cover
50 89 100 100 100 100 100 92 42 19 99 100 99 100 100 100 100 100 100 100 100 100 100 100 100 100 100 100 100 100 100 100 100 100 100 100 100 100 100 100 100 100 100
100 100 100 100 100 100 100 51 31 20 99 93 89 77 100 100 100 100 100 100 100 100 100 100 100 100 100 100 100 100 100 100 100 100 100 100 100 100 100 100 100 100 100
100 100 100 100 100 100 100 75 88 85 97 64 72 100 100 100 100 100 100 100 100 100 100 100 100 100 100 100 100 100 100 100 100 100 100 100 100 100 100 100 100 100 100
100 100 100 100 100 100 100 99 100 100 100 100 100 100 100 100 100 100 100 100 100 100 100 100 100 100 100 100 100 100 100 100 100 100 100 100 100 100 100 100 100 100 100
100 100 100 100 100 100 100 100 100 100 100 100 71 100 100 100 100 100 100 100 100 100 100 100 100 100 100 100 100 100 100 100 100 100 100 100 100 100 100 100 100 100 100
100 100 100 100 100 100 100 100 100 100 100 100 100 100 100 100 100 83 99 100 100 100 100 100 100 100 100 100 100 100 100 100 100 100 100 100 100 100 100 100 100 100 100
100 100 100 100 100 100 100 100 100 100 100 94 100 100 100 70 28 100 49 100 100 100 100 100 100 100 100 100 100 100 100 100 100 100 100 100 100 100 100 100 100 100 100
100 100 100 100 100 100 100 100 100 100 100 100 100 100 100 94 100 98 86 100 100 100 100 99 100 100 100 100 100 100 100 100 100 100 100 100 100 100 100 100 100 100 100
100 100 100 100 100 100 100 100 100 100 100 100 100 100 100 100 100 100 94 100 100 100 100 100 100 100 100 100 100 100 100 100 100 100 100 100 100 100 100 100 100 100 100
100 100 100 100 100 100 100 100 100 100 100 100 100 100 100 100 100 100 100 100 100 100 100 100 100 94 100 100 100 100 100 100 100 100 100 100 100 100 100 100 100 100 100
100 100 100 100 100 100 100 100 100 100 100 100 100 100 100 100 100 100 100 100 100 100 100 100 100 100 100 100 100 100 100 100 100 100 100 100 100 100 100 100 100 100 100
100 100 100 100 100 100 100 100 100 100 100 100 100 100 100 100 100 100 100 100 100 100 100 100 100 100 100 100 100 100 100 100 100 100 100 100 100 100 100 100 100 100 100
100 100 100 100 100 100 100 100 100 100 100 100 100 100 100 100 100 100 100 100 100 100 100 100 100 100 100 100 100 100 100 100 100 100 100 100 100 100 100 100 100 100 100
100 100 100 100 100 100 100 100 100 100 100 100 100 100 100 100 100 100 100 100 100 100 100 100 100 100 100 100 100 100 100 100 100 100 100 100 100 100 100 100 100 100 100
100 100 100 100 100 100 100 100 100 100 100 100 100 100 100 100 100 100 100 100 100 100 100 100 100 100 100 100 100 100 100 100 100 100 100 100 100 92 96 99 100 100 100
100 100 100 100 100 100 100 100 100 100 100 100 100 100 100 100 100 100 100 100 100 100 100 100 100 100 100 100 100 100 100 100 97 78 40 57 85 100 5 5 37 48 19
100 100 100 100 100 100 100 100 100 100 100 100 100 100 100 100 100 100 100 100 100 100 100 100 100 100 100 100 100 92 96 100 72 57 58 5 8 35 8 8 39 31 5
100 100 100 100 100 100 100 100 100 100 100 100 100 100 100 100 100 100 100 100 100 100 100 100 100 99 100 95 88 69 88 96 79 78 90 88 83 61 87 48 82 73 87
100 100 100 100 100 100 100 100 100 100 100 100 100 100 99 97 97 97 100 100 100 100 95 94 99 100 98 100 100 100 100 100 100 100 100 100 98 84 35 95 100 100 100
100 100 100 100 100 100 100 100 100 100 100 100 100 100 100 100 98 95 99 98 97 89 91 92 98 100 100 100 100 96 100 98 100 100 100 100 100 100 96 91 100 91 21
100 100 100 100 100 100 100 100 100 100 100 100 100 96 99 96 100 100 100 100 100 100 100 100 100 100 100 100 100 100 100 100 100 100 100 100 100 100 100 99 100 75 6
100 100 100 100 100 100 100 100 100 100 99 97 100 99 100 100 100 100 100 100 100 100 100 100 100 100 100 100 100 100 100 100 100 100 100 100 100 100 100 100 100 100 100
100 100 100 100 100 100 100 100 100 100 100 100 100 100 100 100 100 100 100 100 100 100 100 100 100 100 100 100 100 100 100 100 100 100 100 100 100 100 100 100 100 100 100
100 100 100 100 100 100 100 100 100 98 100 100 100 100 100 100 100 100 100 100 100 100 100 100 100 100 100 100 100 100 100 100 100 95 100 100 100 94 100 100 100 100 100
100 100 100 100 100 100 100 100 100 100 100 100 100 100 100 100 100 100 100 100 100 100 100 100 100 96 62 80 97 100 100 100 100 100 100 100 100 65 100 93 100 100 100
100 100 100 100 100 100 100 100 100 100 100 100 100 100 100 100 100 100 100 100 100 100 100 100 94 82 100 100 100 100 100 92 85 33 48 100 100 100 100 100 100 100 100

GFSGL_prec_cloud_114.txt.gz
Cloud_Cover
66 5 93 44 16 10 28 100 100 100 100 36 53 93 100 100 100 100 100 100 100 100 100 100 100 100 100 100 100 100 100 100 100 100 100 100 100 100 100 100 100 100 100
100 100 94 93 12 14 82 100 100 98 65 99 43 97 100 100 100 100 100 100 100 100 100 100 100 100 100 100 100 100 100 100 100 100 100 100 100 100 100 100 100 100 100
100 100 100 100 100 14 100 100 100 99 90 100 100 74 100 100 100 100 100 100 100 100 100 100 100 100 100 100 100 100 100 100 100 100 100 100 100 100 100 100 100 100 100
100 100 100 100 100 34 100 100 100 64 100 100 100 100 100 100 100 100 100 100 100 100 100 100 100 100 100 100 100 100 100 100 100 100 100 100 100 100 100 100 100 100 100
100 100 100 100 100 100 100 100 100 94 100 100 100 100 100 90 100 100 100 100 100 100 100 100 100 100 100 100 100 100 100 100 100 100 100 100 100 100 100 100 100 100 100
100 100 100 100 96 100 100 100 100 100 100 100 100 100 100 100 100 100 100 100 100 100 100 100 100 100 100 100 100 100 100 100 100 100 100 100 100 100 100 100 100 100 100
100 100 100 100 100 100 100 100 100 100 100 100 100 100 100 100 99 100 96 96 100 100 100 100 100 100 100 100 100 100 100 100 100 100 100 100 100 100 100 100 100 100 100
100 100 100 100 100 100 100 100 100 100 100 100 100 100 100 100 71 100 94 100 100 100 100 100 100 100 100 100 100 100 100 100 100 100 100 100 100 100 100 100 100 100 100
100 100 100 100 100 100 100 100 100 100 100 100 100 100 100 100 100 100 100 100 100 100 100 100 100 100 100 100 100 100 100 100 100 100 100 100 100 100 100 100 100 100 100
100 100 100 100 100 100 100 100 100 100 100 100 100 100 100 100 100 100 100 100 100 100 100 100 100 100 100 100 100 100 100 100 100 100 100 100 100 100 100 100 100 100 100
100 100 100 100 100 100 100 100 100 100 100 100 100 100 100 100 100 100 100 100 100 100 100 100 100 100 100 100 100 100 100 100 100 100 100 100 100 100 100 100 100 100 100
100 100 100 100 100 100 100 100 100 100 100 100 100 100 100 100 100 100 100 100 100 100 100 100 100 100 100 100 100 100 100 100 100 100 100 100 100 100 100 100 100 100 100
100 100 100 100 100 100 100 100 100 100 100 100 100 100 100 100 100 100 100 100 100 100 100 100 100 100 100 100 100 100 100 100 100 100 100 100 100 100 100 100 100 100 100
100 100 100 100 100 100 100 100 100 100 100 100 100 100 100 100 100 100 100 100 100 100 100 100 100 100 100 100 100 100 100 100 100 100 100 100 100 100 100 86 94 100 100
100 100 100 100 100 100 100 100 100 100 100 100 100 100 100 100 100 100 100 100 100 100 100 100 100 100 100 100 100 100 100 100 100 100 100 100 100 100 100 100 100 100 95
100 100 100 100 100 100 100 100 100 100 100 100 100 100 100 100 100 100 100 100 100 100 100 100 100 100 100 100 100 100 100 100 100 100 100 100 100 100 100 82 21 43 81
100 100 100 100 100 100 100 100 100 100 100 100 100 100 100 100 100 100 100 100 100 100 100 100 100 100 100 100 100 100 100 100 100 100 100 100 95 10 47 99 34 5 5
100 100 100 100 100 100 100 100 100 100 100 100 100 100 100 100 100 100 100 100 100 100 100 100 100 100 100 100 100 100 100 100 100 100 100 100 85 29 7 15 6 11 72
100 100 100 100 100 100 100 100 100 100 100 100 100 100 100 100 100 100 100 100 100 100 100 100 99 86 68 95 98 89 74 33 31 40 15 9 5 5 8 71 6 5 5
100 100 100 100 100 100 100 100 100 100 100 100 100 100 100 100 100 100 100 100 100 89 70 50 68 78 8 18 29 57 13 5 37 23 67 69 58 31 23 23 13 34 5
100 100 100 100 100 100 100 100 100 100 100 100 100 100 100 100 100 100 100 100 100 100 54 51 65 27 26 28 37 71 42 59 50 80 28 7 39 6 6 8 5 7 5
100 100 100 100 100 100 100 100 100 100 99 100 100 100 100 100 100 100 100 100 99 91 90 100 87 90 98 51 14 10 49 88 83 68 11 99 32 5 30 7 37 26 89
100 100 100 100 100 100 100 100 100 100 100 100 100 100 100 100 100 100 76 99 52 74 58 68 18 8 51 77 86 92 54 22 70 96 92 89 79 9 26 89 9 25 46
100 100 100 100 100 87 75 100 100 100 100 100 100 100 100 100 100 93 97 100 92 31 5 5 37 96 100 79 35 8 46 80 32 25 5 33 94 14 45 44 91 99 88
100 100 100 100 100 100 100 100 100 100 100 100 100 98 100 95 75 78 85 88 41 13 95 100 28 15 60 27 10 8 62 90 66 10 5 92 54 9 35 8 29 23 51
91 96 100 100 100 100 100 100 100 100 100 100 100 100 98 76 59 73 48 50 53 35 27 45 78 100 92 5 5 26 23 6 5 5 5 52 86 75 62 91 78 63 32

GFSGL_prec_cloud_117.txt.gz
Cloud_Cover
100 100 95 90 96 72 98 92 100 100 64 100 91 94 100 100 100 100 100 100 100 100 100 100 100 100 100 100 100 100 100 100 100 100 100 100 100 100 100 100 100 100 100
100 100 100 100 100 100 100 100 87 91 100 100 98 21 79 100 100 100 100 100 100 100 100 100 100 100 100 100 100 100 100 100 100 100 100 100 100 100 100 100 100 100 100
100 100 100 100 100 100 100 100 100 100 98 100 82 93 100 100 100 100 100 100 100 100 100 100 100 100 100 100 100 100 100 100 100 100 100 100 100 100 100 100 100 100 100
100 100 100 100 100 100 100 100 100 86 100 100 95 60 100 100 100 100 100 100 100 100 100 100 100 100 100 100 100 100 100 100 100 100 100 100 100 100 100 100 100 100 100
100 100 100 100 100 100 100 100 100 99 100 100 31 83 100 100 100 100 100 100 100 100 100 100 100 100 100 100 100 100 100 100 100 100 100 100 100 100 100 100 100 100 100
100 100 100 100 100 100 100 100 100 100 100 100 39 100 100 100 100 100 100 100 100 98 100 100 100 100 100 100 100 100 100 100 100 100 100 100 100 100 100 100 100 100 100
100 100 100 100 100 100 100 54 100 100 100 100 98 100 100 100 100 100 100 100 100 100 100 100 100 100 100 100 100 100 100 100 100 100 100 100 100 100 100 100 100 100 100
100 100 100 100 100 100 100 97 100 100 100 94 100 100 100 100 100 100 100 100 100 96 100 100 100 100 100 100 100 100 100 100 100 100 100 100 100 100 100 100 100 100 100
100 100 100 100 100 100 100 100 100 100 93 100 100 100 100 100 100 100 100 100 100 100 100 100 100 100 100 100 100 100 100 100 100 100 100 100 100 100 100 100 100 100 100
100 100 100 100 100 100 100 100 100 100 100 100 100 100 100 100 100 100 100 100 100 100 100 100 100 100 100 100 100 100 100 100 100 100 100 100 100 100 100 100 100 100 100
96 100 100 100 100 100 100 100 100 100 100 100 100 100 100 100 100 100 100 100 100 100 100 100 100 100 100 100 100 100 100 100 100 100 100 100 100 100 100 100 100 100 100
96 100 100 100 100 100 100 100 100 100 100 100 100 100 100 100 100 100 100 100 100 100 100 100 100 100 100 100 100 100 100 100 100 100 100 100 100 100 100 100 100 100 100
100 100 100 100 100 100 100 100 100 100 100 100 100 100 100 100 100 100 100 100 100 100 100 100 100 100 100 100 100 100 100 100 100 100 100 100 100 100 100 100 100 100 100
100 100 100 100 100 100 100 100 100 100 100 100 100 100 100 100 100 100 100 100 100 100 100 100 100 100 100 100 100 100 100 100 100 100 100 100 100 100 100 100 100 78 92
100 100 100 100 100 100 100 100 100 100 100 100 100 100 100 100 100 100 100 100 100 100 100 100 100 100 100 100 100 100 100 100 100 100 100 100 100 100 100 100 100 100 100
100 100 100 100 100 100 100 100 100 100 100 100 100 100 100 100 100 100 100 100 100 100 100 100 100 100 100 100 100 100 100 100 100 100 100 100 100 100 100 100 100 100 100
100 100 100 100 100 100 100 100 100 100 100 100 100 100 100 100 100 100 100 100 100 100 100 100 100 100 100 100 100 100 100 100 100 100 100 100 100 100 100 100 94 88 95
100 100 100 100 100 100 100 100 100 100 100 100 100 100 100 100 100 100 100 100 100 100 100 100 100 100 100 100 100 100 100 100 100 100 100 100 100 100 100 86 75 35 90
100 100 100 100 100 100 100 100 100 100 100 100 100 100 100 100 100 100 100 100 100 100 100 100 100 100 100 100 100 100 100 100 100 100 92 93 9 5 47 28 5 7 5
100 100 100 100 100 100 100 100 100 100 100 100 100 100 100 100 100 100 100 100 100 100 100 100 100 100 100 100 100 95 59 13 33 22 56 44 15 5 5 5 12 20 90
100 100 100 100 100 100 100 100 100 100 100 100 100 100 100 100 100 100 100 100 100 100 100 100 100 100 100 100 86 77 63 38 58 42 35 6 5 13 10 5 5 5 7
100 100 100 100 100 100 100 100 100 100 100 100 100 100 100 100 100 100 100 100 100 100 100 100 100 100 100 100 100 100 76 83 92 73 10 34 87 48 20 5 5 6 5
100 100 100 100 100 100 100 100 100 100 100 100 100 100 100 100 100 100 100 100 100 100 100 100 100 100 97 97 100 100 92 99 97 95 17 69 17 34 75 32 20 5 5
100 100 100 100 100 100 100 100 100 100 100 100 100 100 100 100 100 100 100 100 100 99 100 51 55 53 92 100 100 100 100 8 73 94 10 22 65 12 6 43 5 5 17
99 100 98 100 99 79 98 100 100 100 100 100 100 100 100 100 100 86 100 100 100 95 100 100 92 91 95 13 5 17 27 78 35 15 57 53 10 8 22 22 49 5 5
100 100 98 95 88 68 84 97 69 86 76 85 100 100 100 100 100 100 98 94 83 84 67 81 32 5 5 5 6 58 5 5 5 8 22 16 5 24 68 69 68 19 11

GFSGL_prec_cloud_120.txt.gz
Cloud_Cover
100 100 96 92 100 100 100 100 100 78 98 100 100 94 100 100 100 100 100 100 100 100 100 100 100 100 100 100 100 100 100 100 100 100 100 100 100 100 100 100 100 100 100
100 100 100 100 96 100 100 100 64 100 100 100 100 100 100 100 100 100 100 100 100 100 100 100 100 100 100 100 100 100 100 100 100 100 100 100 100 100 100 100 100 100 100
100 98 87 91 100 100 100 100 100 100 100 100 100 100 100 100 100 100 100 100 83 100 100 100 100 100 100 100 100 100 100 100 100 100 100 100 100 100 100 100 100 100 100
86 100 67 83 100 100 100 100 100 92 100 100 100 100 100 100 100 100 100 100 100 100 100 100 100 100 100 100 100 100 100 100 100 100 100 100 100 100 100 100 100 100 100
98 100 98 71 96 100 97 100 100 100 100 100 100 97 100 100 100 100 100 100 100 96 100 100 100 100 100 100 100 100 100 100 100 100 100 100 100 100 100 100 100 100 100
100 100 100 97 100 100 100 100 100 100 100 100 100 96 100 100 100 100 100 100 100 100 100 100 100 100 100 100 100 100 100 100 100 100 100 100 100 100 100 100 100 100 100
100 100 100 100 100 100 100 100 100 100 100 100 100 100 100 100 100 100 100 100 100 100 100 100 100 100 100 100 100 100 100 100 100 100 100 100 100 100 100 100 100 100 100
100 100 97 100 100 100 100 100 100 100 100 100 100 100 82 98 100 100 100 100 100 100 100 100 100 100 100 100 100 100 100 100 100 100 100 100 100 100 100 100 100 100 100
100 100 100 100 100 100 100 100 100 100 100 100 100 100 83 100 100 100 100 100 100 100 100 100 100 100 100 100 100 100 100 100 100 100 100 100 100 100 100 100 100 100 100
100 100 100 100 100 100 100 100 100 100 100 100 100 96 97 100 100 100 100 100 100 100 100 100 100 100 100 100 100 100 100 100 100 100 100 100 100 100 100 100 100 100 100
95 75 92 99 100 100 100 100 100 100 100 100 100 100 100 100 100 100 100 100 100 100 100 100 100 100 100 100 100 100 100 100 100 100 100 100 100 100 100 100 100 100 100
70 74 85 82 100 100 100 100 100 100 100 100 100 100 100 100 100 100 100 100 100 100 100 100 100 100 100 100 100 100 100 100 100 100 100 100 100 100 100 100 100 100 100
70 86 88 99 100 100 100 100 100 100 100 100 100 100 100 100 100 100 100 100 100 100 100 100 100 100 100 100 100 100 100 100 100 100 100 100 100 100 100 100 100 100 100
65 86 97 100 100 100 100 100 100 100 100 100 100 100 100 100 100 100 100 100 100 100 100 100 100 100 100 100 100 100 100 100 100 100 100 100 100 100 100 100 100 100 100
74 82 98 100 100 100 100 100 100 100 100 100 100 100 100 100 100 100 100 100 100 100 100 100 100 100 100 100 100 100 100 100 100 100 100 100 100 100 100 100 100 100 100
95 100 100 100 100 100 100 100 100 100 100 100 100 100 100 100 100 100 100 100 100 100 100 100 100 100 100 100 100 100 100 100 100 100 100 100 100 100 100 100 100 95 100
100 100 100 100 100 100 100 100 100 100 100 100 100 100 100 100 100 100 100 100 100 100 100 100 100 100 100 100 100 100 100 100 100 100 100 100 100 100 100 100 100 100 100
100 100 100 100 100 100 100 100 100 100 100 100 100 100 100 100 100 100 100 100 100 100 100 100 100 100 100 100 100 100 100 100 100 100 99 100 100 100 100 100 100 100 100
100 100 100 100 100 100 100 100 100 100 100 100 100 100 100 100 100 100 100 100 100 100 100 100 100 100 100 100 100 100 100 100 100 100 100 100 100 100 100 100 100 100 96
100 100 100 100 100 100 100 100 100 100 100 100 100 100 100 100 100 100 100 100 100 100 100 100 100 100 100 100 100 100 100 100 100 100 100 100 100 100 100 100 100 82 77
100 100 100 100 100 100 100 100 100 100 100 100 100 100 100 100 100 100 100 100 100 100 100 100 100 100 100 100 100 100 100 100 100 100 100 100 100 100 100 100 98 100 11
96 100 100 100 100 100 100 100 100 100 100 100 100 100 100 100 100 100 100 100 100 100 100 100 100 100 100 100 100 100 100 100 100 100 100 100 100 100 100 100 100 26 67
83 96 100 100 100 100 100 100 100 100 100 100 100 100 100 100 100 100 100 100 100 100 100 100 100 100 100 100 100 100 100 100 100 100 100 100 100 100 59 76 94 76 62
88 86 100 100 100 100 100 100 100 100 100 100 100 100 100 100 100 100 100 100 100 100 100 100 100 100 100 100 100 100 100 100 100 100 94 48 21 12 93 27 9 94 18
76 94 94 90 100 100 100 100 100 100 100 100 100 100 100 100 100 100 100 100 100 100 100 100 100 100 100 100 100 100 98 93 14 29 5 30 6 44 100 88 29 74 44
79 79 88 89 99 99 100 100 100 100 100 100 99 100 100 100 100 100 100 100 100 100 100 100 100 100 100 96 66 60 32 22 9 49 17 14 68 53 26 46 5 33 10

GFSGL_prec_cloud_123.txt.gz
Cloud_Cover
100 100 88 95 100 100 100 100 100 100 100 95 100 100 97 95 100 100 100 100 100 100 100 100 99 100 100 100 100 100 100 100 100 100 100 100 100 100 100 100 100 100 100
100 100 92 89 25 5 44 64 100 99 96 92 100 100 100 100 100 100 100 100 100 100 100 100 100 97 100 100 100 100 100 100 100 100 100 100 100 100 100 100 100 100 100
5 5 28 5 11 65 5 28 81 99 100 100 100 100 100 100 100 100 100 100 100 100 100 100 96 100 100 100 100 100 100 100 100 100 100 100 100 100 100 100 100 100 100
96 100 92 12 64 83 100 88 26 100 100 100 100 100 100 100 100 100 100 100 100 100 100 98 97 99 100 100 100 100 100 100 100 100 100 100 100 100 100 100 100 100 100
100 84 75 95 100 100 100 100 56 100 100 100 100 100 100 100 100 100 100 100 100 100 100 91 98 96 100 83 100 100 100 100 100 100 100 100 100 100 100 100 100 100 100
100 100 100 100 100 100 100 100 100 100 100 100 100 100 100 100 100 100 100 100 100 100 100 100 87 91 87 100 100 100 100 100 100 100 100 100 100 100 100 100 100 100 100
100 99 100 100 100 100 100 96 100 100 100 100 100 100 100 100 100 100 100 100 100 100 100 100 100 100 100 100 100 100 100 100 100 100 100 100 100 100 100 100 100 100 100
100 100 100 100 100 100 100 100 100 100 100 100 100 100 100 100 100 100 100 100 100 100 100 100 100 100 100 100 100 100 100 100 100 100 100 100 100 100 100 100 100 100 100
100 100 100 100 100 100 100 100 100 100 100 100 100 100 100 100 100 100 100 100 100 100 100 100 100 100 100 100 100 100 100 100 100 100 100 100 100 100 100 100 100 100 100
100 100 100 100 100 100 100 100 100 100 100 100 100 100 100 100 100 100 100 100 100 100 100 100 100 99 100 100 100 100 100 100 100 100 100 100 100 100 100 100 100 100 100
94 71 100 100 100 100 100 100 100 100 100 100 100 100 100 100 100 100 100 100 100 100 100 100 100 100 100 100 100 100 100 100 100 100 100 100 100 100 100 100 100 100 100
98 99 100 99 100 100 100 100 100 100 100 100 100 100 100 100 100 100 100 100 100 100 100 100 100 100 100 100 100 100 100 100 100 100 100 100 100 100 100 100 100 100 100
28 41 80 88 100 100 77 100 100 100 100 100 100 100 100 100 100 100 100 100 100 100 100 100 100 100 100 100 100 100 100 100 100 100 100 100 100 100 100 100 100 100 100
25 42 57 86 81 88 90 100 100 100 100 100 100 100 100 100 100 100 100 100 100 100 100 100 100 100 100 100 100 100 100 100 100 100 100 100 100 100 100 100 100 100 100
56 27 75 92 91 94 100 100 100 100 100 100 100 100 100 100 100 100 100 100 100 100 100 100 100 100 100 100 100 100 100 100 100 100 100 100 100 100 100 100 100 100 100
85 84 82 98 100 100 100 100 100 100 100 100 100 100 100 100 100 100 100 100 100 100 100 100 100 100 100 100 100 100 100 100 100 100 100 100 100 100 100 100 100 100 100
100 100 100 100 100 100 100 100 100 100 100 100 100 100 100 100 100 100 100 100 100 100 100 100 100 100 100 100 100 100 100 100 100 100 100 100 100 100 100 100 100 98 100
100 77 100 100 100 100 100 100 100 100 100 100 100 100 100 100 100 100 100 100 100 100 100 100 100 100 100 100 100 100 100 100 100 100 100 100 100 100 100 100 100 100 96
99 97 100 100 100 100 100 100 100 100 100 100 100 100 100 100 100 100 100 100 100 100 100 100 100 100 100 100 100 100 100 100 100 100 100 100 100 100 100 100 97 77 77
90 71 94 100 100 100 100 100 100 100 100 100 100 100 100 100 100 100 100 100 100 100 100 100 100 100 100 100 100 100 100 100 100 100 100 100 100 100 100 90 100 100 100
87 91 80 100 100 100 100 100 100 100 100 100 100 100 100 100 100 100 100 100 100 100 100 100 100 100 100 100 100 100 100 100 100 100 100 100 100 100 100 100 100 100 100
81 88 95 100 100 100 100 100 100 100 100 100 100 100 100 100 100 100 100 100 100 100 100 100 100 100 100 100 100 100 100 100 100 100 100 100 100 100 100 100 100 100 100
71 84 86 90 91 100 100 100 100 100 100 100 100 100 100 100 100 100 100 100 100 100 100 100 100 100 100 100 100 100 100 100 100 100 100 100 100 100 100 100 100 100 100
77 73 73 69 72 82 94 100 100 100 100 100 100 100 100 100 100 100 100 100 100 100 100 100 100 100 100 100 100 100 100 100 100 100 100 100 100 100 100 100 100 100 100
74 81 82 86 68 72 63 97 100 100 100 100 100 100 100 100 100 100 100 100 100 100 100 100 100 100 100 100 100 100 100 100 100 100 100 100 100 100 100 100 100 100 68
100 100 98 89 84 67 71 84 93 98 100 100 100 100 100 100 100 100 100 100 100 100 100 100 100 100 100 100 100 100 100 100 100 100 100 100 100 96 91 45 20 98 56

GFSGL_prec_cloud_126.txt.gz
Cloud_Cover
77 51 87 100 100 100 100 100 100 100 100 100 100 98 100 100 100 100 100 100 100 100 100 100 100 100 100 100 100 97 100 100 100 100 100 100 100 100 100 100 100 100 100
100 100 100 100 100 100 100 100 52 95 100 100 100 99 100 100 100 100 100 100 100 100 100 100 100 100 100 100 100 100 100 84 96 100 100 100 100 100 100 100 100 100 100
100 100 100 100 100 100 100 98 82 19 66 96 100 100 100 100 100 100 100 100 100 100 100 100 100 100 100 100 100 100 100 100 94 100 100 100 100 100 100 100 100 100 100
100 99 99 100 100 97 100 98 55 44 36 40 45 100 100 100 100 100 100 100 100 100 100 100 100 100 100 100 100 100 100 100 100 100 100 100 100 100 100 100 100 100 100
100 97 98 100 100 100 100 100 96 46 54 76 88 100 100 100 100 100 100 100 100 100 100 100 100 100 100 95 100 100 100 100 100 100 100 100 100 100 100 100 100 100 100
96 97 100 95 65 88 100 100 100 87 56 90 100 100 100 100 100 100 100 100 100 100 100 100 100 100 100 100 100 100 100 100 100 100 100 100 100 100 100 100 100 100 100
100 100 100 100 100 100 100 100 100 100 72 100 100 100 100 100 100 100 100 100 100 100 100 100 100 100 100 100 100 97 100 99 84 99 100 100 100 100 100 100 100 100 100
100 100 100 100 100 100 100 100 100 100 100 100 100 100 100 100 100 100 100 100 100 100 100 100 100 100 100 100 100 100 100 100 100 100 100 100 100 100 100 100 100 100 100
100 100 100 100 100 100 100 100 100 100 100 100 100 100 100 100 100 100 100 100 100 100 100 100 100 100 100 100 100 100 100 100 100 100 100 100 100 100 100 100 100 100 100
100 100 100 100 100 100 100 100 100 100 100 100 100 100 100 100 100 100 100 100 100 100 100 100 100 100 100 100 100 100 100 100 100 100 100 100 100 100 100 100 100 100 100
100 84 100 100 100 100 100 100 100 100 100 100 100 100 100 100 100 100 100 100 100 100 100 100 100 100 100 100 99 100 100 100 100 100 100 100 100 100 100 100 100 100 100
87 31 91 78 100 100 100 96 100 100 100 100 100 100 100 100 100 100 100 100 100 100 100 100 100 100 100 100 100 100 100 100 100 100 100 100 100 100 100 100 100 100 100
5 16 31 84 97 100 100 100 100 100 100 100 100 100 100 100 100 100 100 100 100 100 100 100 100 100 100 100 100 100 100 100 100 100 100 100 100 100 100 100 100 100 100
99 82 76 90 84 90 99 98 100 100 100 100 100 100 100 100 100 100 100 100 100 100 100 100 100 100 100 100 100 100 100 100 100 100 100 100 100 100 100 100 100 100 100
100 98 81 98 94 90 96 100 100 100 100 100 100 100 100 100 100 100 100 100 100 100 100 100 100 100 100 100 100 100 100 100 100 100 100 100 100 100 100 100 100 100 100
100 100 94 90 100 100 88 82 86 100 100 100 100 100 100 100 100 100 100 100 100 100 100 100 100 100 100 100 100 100 100 100 100 100 100 100 100 100 100 100 100 100 100
99 91 100 100 100 99 100 100 98 96 100 100 100 100 100 100 100 100 100 100 100 100 100 100 100 100 100 100 100 100 100 100 100 100 100 100 100 100 100 100 100 100 100
78 68 99 100 100 100 100 100 100 100 100 100 100 100 100 100 100 100 100 100 100 100 100 100 100 100 100 100 100 100 100 100 100 100 100 100 100 100 100 100 100 100 100
98 90 83 84 85 88 95 100 100 100 100 100 100 100 100 100 100 100 100 100 100 100 100 100 100 100 100 100 100 100 100 100 100 100 100 100 100 100 100 100 100 100 100
96 96 76 88 91 84 79 100 100 100 100 100 100 100 100 100 100 100 100 100 100 100 100 100 100 100 100 100 100 100 100 100 100 100 100 100 100 100 100 100 100 100 100
100 99 76 82 94 96 86 100 100 100 100 100 100 100 100 100 100 100 100 100 100 100 100 100 100 100 100 100 100 100 100 100 100 100 100 100 100 100 100 100 100 100 100
100 100 92 99 89 98 94 93 100 100 100 100 100 100 100 100 100 100 100 100 100 100 100 100 100 100 100 100 100 100 100 100 100 100 100 100 100 100 100 100 100 100 100
100 100 100 67 55 69 73 80 95 100 100 100 100 100 100 100 100 100 100 100 100 100 100 100 100 100 100 100 100 100 100 100 100 100 100 100 100 100 100 100 100 100 100
82 100 95 78 61 66 78 68 68 95 100 100 100 100 100 100 100 100 100 100 100 100 100 100 100 100 100 100 100 100 100 100 100 100 100 100 100 100 100 100 100 100 100
70 71 88 87 69 81 99 87 70 74 94 100 100 100 100 100 100 100 100 100 100 100 100 100 100 100 100 100 100 100 100 100 100 100 100 100 100 100 100 100 100 100 100
62 61 77 78 85 84 98 100 100 100 100 100 100 100 100 100 100 100 100 100 100 100 100 100 100 100 100 100 100 100 100 100 100 100 100 100 100 100 100 100 100 100 100

GFSGL_prec_cloud_129.txt.gz
Cloud_Cover
99 100 100 100 100 100 100 100 94 100 99 100 100 100 100 100 100 100 100 100 100 100 100 100 97 100 100 98 100 100 100 100 100 66 44 61 100 100 100 100 100 100 100
100 99 100 100 100 100 100 100 100 31 66 95 97 100 100 100 100 94 100 100 100 100 100 100 100 100 100 98 100 100 100 100 100 99 98 78 100 100 100 100 100 100 100
96 100 96 98 100 100 100 100 100 80 16 6 41 99 100 100 100 100 100 100 100 100 100 100 100 100 100 100 100 100 100 100 100 100 100 100 100 100 100 100 100 100 100
100 100 100 100 77 35 100 100 99 77 55 99 100 100 100 100 100 100 100 100 100 100 100 100 100 100 99 100 100 100 100 100 100 100 100 100 100 100 100 100 100 100 100
100 100 100 100 100 100 100 100 99 92 86 80 73 82 100 100 98 100 100 42 100 100 99 99 100 100 75 100 100 100 100 100 100 100 100 100 100 100 100 100 100 100 100
100 100 100 100 100 100 100 100 100 100 100 100 80 68 68 67 60 98 97 100 100 100 100 100 100 100 100 100 100 100 100 100 100 100 100 100 100 100 100 100 100 100 100
100 100 100 100 89 82 96 100 94 94 100 100 100 99 84 45 34 100 100 100 100 100 100 100 100 100 100 100 100 100 100 100 69 100 100 100 100 98 94 100 100 100 100
100 100 100 100 100 99 82 94 95 100 100 100 100 100 100 84 92 100 100 99 100 100 99 100 100 100 100 100 100 100 100 100 100 100 100 95 81 93 100 100 100 100 100
99 99 100 100 100 100 100 100 100 100 100 100 100 100 100 100 100 100 100 100 100 100 100 100 100 100 100 100 100 100 100 100 100 100 100 100 98 85 100 100 100 100 100
83 98 100 100 100 100 100 100 100 97 100 100 100 100 100 100 100 100 100 100 100 100 100 100 100 100 100 100 100 100 100 100 100 100 100 100 100 100 100 100 100 100 100
100 100 96 100 100 100 99 100 93 100 100 100 100 100 100 100 100 97 100 100 100 100 100 100 100 100 100 100 100 100 100 100 100 100 100 100 100 100 100 100 100 100 100
98 93 85 70 88 100 98 86 100 100 100 100 100 100 100 100 100 100 100 100 100 100 100 100 100 100 100 100 100 100 100 100 100 100 100 100 100 100 100 100 100 100 100
100 79 92 87 92 92 99 97 99 98 99 83 100 100 100 100 100 100 100 100 100 100 100 100 100 100 100 100 100 100 100 100 100 100 100 100 100 100 100 100 100 100 100
100 100 86 84 76 86 99 93 100 100 100 91 100 100 100 100 100 100 100 100 100 100 100 100 100 100 100 100 100 100 100 100 100 100 100 100 100 100 100 100 100 100 100
100 97 94 92 92 94 98 100 100 100 100 100 100 100 100 100 100 100 100 100 100 100 100 100 100 100 100 100 100 100 100 100 100 100 100 100 100 100 100 100 100 100 100
96 91 94 99 95 98 96 99 97 95 100 100 100 100 100 100 100 100 100 100 100 100 100 100 100 100 100 100 100 100 100 100 100 100 100 100 100 100 100 100 100 100 100
97 99 97 100 100 100 100 100 100 85 100 97 100 100 100 100 100 100 100 100 100 100 100 100 100 100 100 100 100 100 100 100 100 100 100 100 100 100 100 100 100 100 100
98 95 100 100 100 100 100 100 96 100 100 94 92 100 100 100 100 100 100 100 100 100 100 100 100 100 100 100 100 100 100 100 100 100 100 100 100 100 100 100 100 100 100
100 100 100 98 99 96 100 100 100 96 100 100 100 98 97 100 100 100 100 100 100 100 100 100 100 100 100 100 100 100 100 100 100 100 100 100 100 100 100 100 100 100 100
100 100 100 100 100 100 100 97 100 100 100 100 100 100 100 100 100 100 100 100 100 100 100 100 100 100 100 100 100 100 100 100 100 100 100 100 100 100 100 100 100 100 100
100 100 100 100 100 100 71 89 100 100 100 100 100 100 100 100 100 100 100 100 100 100 100 100 100 100 100 100 100 100 100 100 100 100 100 100 100 100 100 100 100 100 100
100 100 100 100 100 100 100 88 99 100 100 100 100 100 100 100 100 100 100 100 100 100 100 100 100 100 100 100 100 100 100 100 100 100 100 100 100 100 100 100 100 100 100
99 99 96 86 76 86 99 100 98 97 100 100 100 100 100 100 100 100 100 100 100 100 100 100 100 100 100 100 100 100 100 100 100 100 100 100 100 100 100 100 100 100 100
100 100 100 100 87 88 91 90 84 97 93 100 100 100 100 100 100 100 100 100 100 100 100 100 100 100 100 100 100 100 100 100 100 100 100 100 100 100 100 100 100 100 100
100 100 100 100 100 100 100 100 100 100 97 98 100 100 100 100 100 100 100 100 100 100 100 100 100 100 100 100 100 100 100 100 100 100 100 100 100 100 100 100 100 100 100
99 100 100 100 100 100 100 100 100 100 100 100 100 100 100 100 100 100 100 100 100 100 100 100 100 100 100 100 100 100 100 100 100 100 100 100 100 100 100 100 100 100 100

GFSGL_prec_cloud_132.txt.gz
Cloud_Cover
100 100 53 22 81 98 64 24 28 16 81 100 97 66 81 100 100 100 100 100 100 100 100 100 100 100 100 100 100 92 96 100 49 100 69 100 92 81 100 100 100 100 100
100 100 100 100 46 22 44 29 5 5 13 87 100 98 26 32 97 35 100 100 100 100 100 100 100 100 100 100 100 100 100 87 100 100 94 98 88 100 100 89 100 100 100
100 100 100 100 100 100 100 100 100 38 96 98 32 69 37 26 45 66 62 100 100 100 100 100 100 100 100 100 98 94 100 99 99 100 100 80 99 100 100 100 100 100 100
100 100 100 100 100 100 100 100 99 100 100 97 100 100 7 100 100 51 10 97 100 100 100 100 100 100 100 100 99 99 100 100 100 100 100 100 97 100 100 100 100 100 100
100 100 100 100 100 100 100 100 98 99 64 99 100 94 87 5 93 98 70 86 100 100 100 100 100 100 100 100 96 100 100 100 100 100 100 100 100 100 100 100 100 100 100
100 100 100 100 100 100 100 100 94 100 100 100 100 100 87 61 42 85 100 100 100 98 100 100 100 100 100 100 100 100 100 100 100 100 100 100 100 100 100 100 100 100 100
100 100 100 100 100 100 100 100 100 100 100 100 100 100 100 100 100 100 100 97 100 100 100 100 98 100 100 100 100 100 100 100 100 100 100 100 100 100 100 100 100 100 100
100 100 100 100 100 100 100 100 100 100 100 100 100 100 100 100 100 100 100 95 100 100 100 76 60 100 100 100 100 100 100 100 100 100 100 100 100 100 100 93 100 100 100
100 100 100 100 100 100 100 100 100 100 100 100 100 100 100 100 100 100 100 100 100 100 100 100 100 100 96 100 100 100 100 100 100 100 100 100 100 100 100 100 100 100 100
100 100 100 100 100 100 100 100 100 100 100 100 97 89 100 100 100 100 100 99 100 100 100 100 99 74 100 100 100 100 100 100 100 100 100 100 100 100 100 98 67 100 100
100 100 100 98 99 100 100 89 84 100 100 100 92 93 100 100 100 100 100 100 100 100 100 100 100 100 100 100 100 100 100 100 100 100 100 100 100 100 100 100 100 100 100
100 100 100 100 100 100 100 100 98 95 100 100 100 91 83 100 100 95 100 100 100 100 100 100 100 100 100 100 100 100 100 100 100 100 100 100 100 100 100 100 100 100 100
100 100 100 100 100 100 100 100 100 100 96 87 100 100 100 100 93 72 100 100 94 100 100 100 100 100 100 100 100 100 100 100 100 100 100 100 100 100 100 100 100 100 100
100 100 100 100 100 100 100 100 100 100 100 97 100 100 100 100 99 88 99 100 100 100 100 100 100 100 100 100 100 100 100 100 100 100 100 100 100 100 100 100 100 100 100
100 100 100 100 100 100 100 98 100 100 100 100 100 100 100 100 100 100 100 99 100 100 100 100 100 100 100 100 100 100 100 100 100 100 100 100 100 100 100 100 100 100 100
100 100 99 100 100 100 100 100 100 100 100 100 100 100 100 100 100 100 100 100 100 100 100 100 100 100 100 100 100 100 100 100 100 100 100 100 100 100 100 100 100 100 100
100 100 100 100 100 100 98 99 98 79 100 100 100 100 100 100 100 100 100 100 100 100 100 100 100 100 100 100 100 100 100 100 100 100 100 100 100 100 100 100 100 100 100
100 100 100 100 100 100 99 100 100 98 92 99 93 100 100 100 100 100 100 100 97 100 100 100 100 100 100 100 100 100 100 100 100 100 100 100 100 100 100 100 100 100 100
100 99 98 99 100 100 100 100 100 100 100 96 97 88 100 100 100 98 98 100 100 100 100 100 100 100 100 100 100 100 100 100 100 100 100 100 100 100 100 100 100 100 100
100 100 100 100 100 100 100 100 100 100 100 100 100 100 100 98 97 100 100 100 100 100 100 100 100 100 100 100 100 100 100 100 100 100 100 100 100 100 100 100 100 100 100
100 100 100 100 100 100 100 100 100 100 100 100 100 100 100 100 100 100 100 100 100 100 100 100 100 100 100 100 100 100 100 100 100 100 100 100 100 100 100 100 100 100 100
100 100 100 100 100 100 100 100 100 100 100 100 100 100 100 100 100 100 100 100 100 100 100 100 100 100 100 100 100 100 100 100 100 100 100 100 100 100 100 100 100 100 100
100 100 100 100 100 100 100 100 100 100 100 100 100 100 100 100 100 100 100 100 100 100 100 100 100 100 100 100 100 100 100 100 100 100 100 100 100 100 100 100 100 100 100
100 100 100 100 100 100 100 100 100 100 100 100 100 100 100 100 100 100 100 100 100 100 100 100 100 100 100 100 100 100 100 100 100 100 100 100 100 100 100 100 100 100 100
100 100 100 100 100 100 100 100 100 100 100 100 100 100 100 100 100 100 100 100 100 100 100 100 100 100 100 100 100 100 100 100 100 100 100 100 100 100 100 100 100 100 100
100 100 100 100 100 100 100 100 100 100 100 100 100 100 100 100 100 100 100 99 100 100 100 100 100 100 100 100 100 100 100 100 100 100 100 100 100 100 100 100 100 100 100